GFSSE_700_spd_000.txt.gz
Wind_Speed
4 3 7 6 4 5 5 5 6 4 6 11 11 10 8 7 9 8 9 4 4 7 6 17 12 18 16 16 16 16 14 14 16 17 19 20 16 18 12 11 7 9 9
7 7 6 5 9 7 5 6 4 7 9 11 12 10 8 7 9 11 11 11 12 11 14 19 24 28 22 22 19 18 16 15 16 17 17 19 20 17 15 14 11 12 14
7 6 6 4 5 2 3 4 6 8 12 10 12 12 8 6 8 11 12 13 15 18 19 19 20 19 19 30 28 20 18 16 16 17 16 18 18 19 17 16 15 16 17
9 6 4 4 4 7 10 11 12 14 15 15 13 13 11 6 7 9 10 13 15 16 16 16 16 22 28 29 18 28 19 20 18 17 16 18 18 19 19 20 19 19 19
7 3 2 7 10 12 13 15 15 17 17 15 13 14 10 6 7 9 9 11 12 12 13 15 15 14 22 35 35 17 20 24 21 20 16 16 17 20 21 22 22 21 19
3 2 5 7 10 12 14 15 15 16 16 17 17 15 12 10 11 12 13 15 13 14 14 13 16 19 17 21 23 15 13 32 26 23 18 17 15 18 23 24 22 20 18
3 4 6 10 13 16 17 17 16 16 17 17 18 18 18 17 15 16 16 19 16 15 14 14 14 16 14 17 16 19 20 27 23 24 23 19 16 16 18 25 22 20 20
7 10 12 14 16 18 19 19 20 21 22 21 21 21 21 20 18 17 19 20 18 17 15 12 12 15 18 18 16 14 12 23 35 32 26 23 19 20 19 24 23 21 20
11 12 15 14 14 16 17 18 19 22 23 23 23 23 23 21 19 18 18 16 15 14 15 12 10 12 16 19 18 15 18 17 33 40 29 28 28 25 25 24 26 23 21
16 16 16 13 15 17 17 17 20 22 22 19 18 17 17 16 15 14 14 12 12 12 13 12 9 10 13 17 18 18 16 16 24 31 33 34 34 28 27 26 26 26 25
17 15 17 20 20 20 22 24 24 19 16 15 12 18 17 15 14 13 13 13 12 12 9 10 12 14 16 13 15 15 14 13 20 27 30 34 35 32 29 29 30 27 26
17 16 22 25 23 25 26 23 15 16 14 14 14 15 15 15 15 15 16 16 16 15 14 12 13 15 15 11 11 11 13 16 19 25 31 33 35 39 35 32 31 29 30
15 19 20 20 20 21 22 16 17 18 17 17 18 19 18 17 17 17 18 18 19 19 19 19 17 14 14 13 14 18 22 24 26 28 30 32 33 37 38 36 37 35 33
16 18 18 18 21 21 16 13 17 19 19 19 19 21 21 21 21 21 21 21 20 20 20 21 21 20 17 16 15 14 16 24 27 25 23 28 33 36 38 37 37 38 37
16 18 19 19 20 19 17 17 20 22 23 24 24 25 26 27 27 26 25 26 25 25 25 25 25 25 23 20 20 19 18 17 21 24 28 32 31 38 43 43 41 40 40
18 20 21 21 20 21 20 20 23 25 28 27 27 28 29 30 31 32 31 30 28 28 27 28 29 29 28 26 24 24 22 21 19 21 29 30 33 37 43 46 47 44 44
18 18 20 22 20 21 23 23 25 27 28 27 28 29 31 33 34 34 34 32 31 31 30 30 30 30 30 29 28 28 27 24 24 20 28 34 35 39 40 48 47 47 51
21 22 25 25 22 22 22 25 27 25 27 29 29 30 30 31 33 33 33 31 31 30 29 30 31 30 31 31 32 32 31 30 28 29 30 32 35 35 44 48 46 53 50
21 24 26 27 27 25 24 24 28 29 28 26 25 24 26 27 27 27 27 29 30 31 30 30 31 32 32 33 33 33 34 34 34 35 35 36 37 38 39 40 41 42 57
20 22 26 28 28 26 27 27 25 25 26 26 26 24 21 22 25 27 29 30 31 31 30 31 32 32 31 32 34 35 34 34 35 36 40 41 40 41 45 45 43 41 41
18 22 22 25 25 24 23 26 28 28 27 27 27 28 29 26 24 26 29 29 30 31 32 30 29 28 30 32 32 31 31 32 32 34 38 41 43 44 45 46 48 47 43
15 15 26 24 20 22 32 29 32 33 30 29 27 29 31 32 31 31 31 30 32 35 36 34 33 36 36 37 35 35 37 34 30 27 34 37 40 41 43 44 45 47 44
17 24 32 36 27 28 38 37 43 40 35 31 29 31 33 36 36 36 35 31 33 35 37 38 42 41 39 41 41 41 44 40 37 31 28 30 33 37 40 42 42 42 39
28 30 39 41 34 34 40 40 43 46 44 37 34 35 37 39 40 39 39 39 38 40 42 45 46 44 42 43 46 47 46 42 40 44 35 34 34 34 36 41 41 42 37
29 33 37 39 36 35 33 38 46 50 44 42 38 37 41 45 45 41 39 41 44 45 47 45 42 45 46 42 53 53 45 41 36 39 45 41 37 37 37 38 44 44 45
30 34 38 38 39 36 34 37 48 42 41 40 37 38 42 49 48 46 43 44 46 45 50 51 51 49 47 53 59 52 42 37 39 40 42 43 45 40 41 39 40 44 48

GFSSE_700_spd_003.txt.gz
Wind_Speed
10 12 13 12 10 11 7 8 11 14 11 10 8 5 5 7 8 9 7 6 5 7 8 13 12 18 21 23 20 19 22 22 18 18 19 21 21 17 17 13 11 9 7
12 10 10 12 11 8 4 4 2 6 9 7 3 4 3 4 6 9 10 11 13 16 13 16 17 18 17 29 16 16 21 22 21 20 20 21 23 22 20 18 15 13 12
9 6 10 8 8 5 1 2 4 9 11 7 5 4 3 3 5 9 11 12 16 16 19 18 17 15 17 22 23 17 21 28 30 24 21 18 20 24 23 21 18 15 15
11 8 7 6 5 5 4 5 8 9 10 8 7 6 5 5 7 9 11 16 16 16 16 14 14 15 19 26 21 19 14 21 37 37 26 18 19 20 21 22 19 17 17
7 5 5 4 6 9 11 11 11 12 12 13 12 11 10 8 9 11 14 16 18 18 17 14 14 14 19 22 28 24 18 20 27 31 23 17 18 18 18 20 20 18 17
2 1 3 8 10 11 13 12 13 14 14 15 15 15 15 14 12 12 13 15 17 16 17 16 16 17 20 19 20 32 35 29 27 30 27 22 18 17 17 17 19 18 19
2 3 7 9 9 9 12 13 14 16 17 18 18 18 18 18 16 15 16 16 17 16 17 14 14 16 17 18 18 16 22 32 31 31 28 28 22 18 16 17 17 19 19
5 8 11 11 12 14 17 18 18 20 21 21 20 18 17 17 15 14 14 13 12 10 10 10 8 12 17 16 18 20 22 24 23 27 29 31 29 23 17 19 18 20 20
8 9 13 14 14 17 18 19 21 21 21 20 18 17 17 15 13 10 10 9 7 7 6 5 4 4 6 10 14 18 20 23 24 24 33 33 31 28 21 20 21 20 21
12 12 8 8 12 15 16 18 18 13 13 11 9 11 13 13 13 12 12 11 10 10 9 7 7 8 11 12 12 16 17 21 24 23 25 37 33 27 27 24 24 22 24
12 9 7 9 14 15 18 20 13 11 9 10 8 8 9 11 12 12 11 12 12 12 10 11 13 13 15 16 15 11 15 18 20 21 21 30 36 33 30 28 27 26 25
7 6 10 16 20 21 23 21 8 11 13 13 13 13 15 14 14 14 16 16 16 15 13 13 14 17 17 16 16 16 13 14 13 16 24 30 34 39 34 29 32 31 29
10 12 15 19 23 23 23 18 12 12 14 16 16 16 17 18 19 18 19 19 19 18 18 17 17 16 19 19 18 18 19 20 24 25 24 27 29 36 35 32 35 33 33
12 14 17 20 22 22 21 18 16 17 19 20 21 20 20 21 22 24 24 23 23 23 22 22 22 21 21 21 21 21 20 20 22 23 27 30 31 31 34 29 32 35 36
12 15 16 17 19 18 19 20 20 22 23 24 24 22 22 23 25 26 26 26 27 27 27 26 25 25 25 25 25 24 24 24 24 23 23 28 28 28 34 32 31 33 36
11 11 13 17 21 20 21 22 22 24 26 26 25 27 28 27 27 28 29 29 28 28 27 27 27 28 28 28 27 27 27 27 28 27 27 26 29 33 35 34 36 37 38
11 13 16 20 23 23 24 24 23 24 26 29 30 29 29 30 30 30 30 29 28 27 26 26 27 28 29 29 29 29 29 30 30 31 31 30 29 28 34 34 38 41 42
12 13 16 20 24 26 26 25 25 26 26 25 25 26 27 28 28 28 27 27 27 26 26 26 27 27 28 29 29 31 32 32 33 34 35 36 34 33 35 40 43 42 44
13 14 16 20 24 26 24 22 22 23 24 25 26 26 25 26 27 27 27 29 31 31 29 28 28 28 29 31 31 31 32 33 34 37 39 40 40 39 38 40 44 42 45
12 14 17 16 23 25 18 22 24 24 27 28 29 27 25 25 26 27 28 29 31 29 27 26 26 27 27 28 28 29 32 34 35 33 35 42 44 45 44 43 44 47 46
10 16 17 17 25 28 29 31 31 32 29 31 32 32 30 27 27 28 29 29 30 31 30 29 28 27 26 27 29 31 29 30 30 33 34 35 37 44 45 47 46 47 50
10 15 15 21 28 28 29 32 35 38 34 36 34 31 31 32 32 31 31 32 33 35 35 35 34 33 32 32 34 37 34 30 30 30 35 36 36 37 42 45 46 45 48
15 14 21 27 32 34 33 35 36 41 38 41 35 31 32 34 36 37 38 39 40 40 38 38 38 38 36 37 38 40 43 43 40 36 32 36 37 37 34 35 41 43 44
28 31 32 33 35 38 37 41 40 42 41 47 42 36 35 35 36 37 39 42 46 46 41 42 43 43 42 43 42 42 44 46 45 47 36 37 40 39 38 36 35 37 40
31 31 33 35 36 35 37 38 39 42 42 50 44 42 40 40 42 42 41 45 45 42 47 40 43 42 45 48 48 47 48 49 45 49 55 41 40 41 38 38 38 36 36
30 33 35 36 36 39 39 39 38 44 50 50 43 43 45 44 43 44 45 44 49 46 53 43 47 52 52 50 56 51 52 52 50 49 51 49 44 43 43 39 40 39 36

GFSSE_700_spd_006.txt.gz
Wind_Speed
17 16 16 15 16 11 6 6 8 8 10 9 11 7 5 5 4 5 8 6 7 8 9 11 11 12 12 16 16 16 11 7 17 22 20 21 20 20 18 15 10 9 8
13 14 16 15 12 11 5 3 2 0 5 8 7 7 6 7 8 9 10 9 10 12 13 16 15 15 17 15 17 12 14 17 10 16 21 21 22 22 21 19 15 14 13
15 14 13 12 11 3 4 1 2 5 6 7 8 6 7 9 9 9 12 12 14 15 15 16 20 20 18 20 18 12 15 17 16 18 25 29 23 20 20 22 20 19 17
13 12 12 10 9 5 5 5 5 6 8 9 9 9 8 8 9 10 13 15 17 19 19 18 22 20 20 23 21 17 18 20 16 17 25 31 31 20 17 19 21 21 20
11 8 8 9 7 8 7 8 8 9 9 9 9 8 6 7 9 12 14 17 19 19 20 21 20 20 20 21 21 20 22 26 19 17 18 25 33 26 14 15 16 20 20
7 7 9 10 10 11 12 12 12 13 14 15 13 12 11 10 11 13 17 19 19 19 20 21 22 22 22 22 23 19 24 27 30 29 25 23 28 23 16 12 14 16 18
5 5 7 9 11 12 14 15 16 17 18 17 15 14 14 14 14 13 15 17 18 17 17 19 18 18 20 20 20 19 16 26 35 35 28 28 34 26 16 14 15 15 16
3 6 7 8 8 10 13 15 15 15 14 11 8 7 6 7 7 7 9 10 12 11 11 10 11 13 14 15 18 19 22 24 26 28 26 27 28 20 20 18 16 16 17
5 6 6 4 8 10 10 12 14 12 10 9 6 4 7 9 6 4 2 3 6 9 9 7 7 5 5 9 14 20 23 25 27 27 25 25 28 25 24 24 19 19 18
6 6 2 5 7 9 11 14 13 8 7 9 8 7 10 11 12 11 9 8 8 9 8 7 6 8 9 10 12 14 21 23 26 28 26 24 30 33 27 25 26 21 23
4 1 2 4 8 11 14 15 9 6 7 8 7 8 9 11 11 12 11 12 13 14 13 13 12 13 13 14 14 15 14 17 21 23 23 23 24 25 35 26 26 24 22
3 2 5 12 17 17 17 16 11 9 10 12 11 11 11 12 12 12 13 14 15 15 15 16 16 16 17 16 15 15 15 16 17 19 19 20 20 19 27 32 33 28 25
7 8 10 15 15 16 16 14 14 14 15 15 16 16 16 15 16 17 18 19 19 19 20 20 20 19 19 20 20 19 18 18 17 19 25 27 25 22 24 29 34 36 34
9 10 13 12 16 18 18 18 18 17 18 20 20 20 19 19 20 21 22 23 24 25 25 25 25 24 24 23 23 22 22 22 21 21 22 24 26 31 31 30 29 32 36
8 9 10 12 16 18 20 22 21 20 21 23 24 24 23 24 25 26 26 26 27 27 27 27 27 27 27 27 27 26 26 26 26 26 25 25 26 27 30 31 30 30 34
6 7 10 14 18 21 23 23 21 21 22 23 24 25 26 26 27 28 29 29 29 29 28 28 28 28 28 29 29 29 29 29 30 30 31 31 30 29 30 31 32 30 34
5 7 10 14 18 23 25 25 22 20 22 23 24 25 26 28 28 28 29 29 29 29 29 28 27 28 29 29 29 30 30 31 32 33 35 35 35 34 32 32 31 36 34
8 9 11 15 17 19 22 19 18 20 21 24 25 25 26 29 30 30 30 30 30 29 29 28 29 29 30 30 30 30 30 32 33 35 37 38 39 39 37 35 33 32 39
11 12 15 16 16 19 21 20 24 26 26 33 28 28 27 26 28 29 30 30 31 31 32 32 32 31 31 31 31 31 32 32 34 35 35 36 38 41 42 41 41 40 40
11 14 17 19 17 21 26 25 29 28 31 32 32 34 35 29 28 29 29 29 30 29 28 29 30 31 31 31 31 31 31 30 32 33 35 35 35 37 41 44 45 45 45
7 12 18 18 22 26 29 28 27 29 30 30 31 32 34 31 30 29 30 31 33 34 31 30 29 29 29 29 31 31 31 33 33 32 35 36 36 39 39 39 41 45 48
16 10 14 15 21 27 30 33 32 31 31 31 34 35 37 36 35 35 35 35 36 38 37 37 38 37 37 34 32 30 34 34 34 34 34 34 35 39 42 41 41 41 44
19 16 17 22 27 28 30 31 33 35 38 39 39 41 45 43 36 39 41 42 42 42 42 41 43 44 41 41 41 37 38 37 34 37 37 35 34 35 41 44 44 43 42
23 22 25 25 26 29 32 34 36 39 41 43 45 48 48 39 38 40 45 46 45 44 44 41 44 46 45 48 45 46 43 45 45 42 38 37 33 34 34 37 43 46 45
23 24 25 26 29 33 33 35 38 40 44 51 49 45 44 45 44 45 46 48 49 48 48 44 48 47 50 50 48 49 49 49 51 52 49 41 39 38 38 39 42 44 46
23 26 27 27 30 33 34 36 39 45 48 45 45 46 46 47 47 48 49 51 52 53 52 50 54 54 56 56 56 55 56 56 57 58 57 55 50 42 43 44 45 45 45

GFSSE_700_spd_009.txt.gz
Wind_Speed
13 12 12 12 13 12 9 7 5 7 3 5 8 8 8 7 7 6 4 7 8 8 12 14 12 13 13 12 16 12 8 11 13 16 14 12 13 18 18 18 14 9 9
17 17 17 17 15 10 4 2 1 1 5 5 7 9 10 10 9 10 10 10 13 13 15 17 16 14 16 19 18 17 15 15 12 14 13 12 13 13 17 18 21 16 12
16 17 16 14 10 6 4 3 1 3 6 6 5 7 8 9 10 11 13 13 13 14 15 17 19 20 23 23 22 20 17 18 17 17 13 15 15 19 20 17 19 20 17
14 13 12 10 10 10 7 5 5 5 6 6 7 9 9 9 11 13 16 16 16 17 18 19 19 20 22 23 23 23 21 19 22 18 18 19 19 21 23 22 17 21 21
13 9 9 9 7 6 6 7 7 8 8 8 9 9 9 10 11 14 17 19 18 18 19 20 21 21 22 24 24 24 21 22 24 22 17 13 14 16 20 23 20 18 20
8 6 5 3 3 5 7 8 8 8 8 10 9 9 8 9 12 15 17 18 18 18 19 21 23 22 23 24 24 25 24 23 21 25 25 23 21 19 17 17 19 15 19
5 1 2 5 5 6 7 7 9 11 12 12 11 9 8 8 10 12 14 15 16 16 17 18 19 21 22 23 23 23 20 19 17 25 30 33 28 24 20 19 16 15 15
3 1 4 3 3 5 6 8 10 11 9 8 6 5 4 6 7 7 7 8 9 9 10 11 11 12 14 15 16 18 19 18 20 22 28 32 29 23 24 21 19 16 17
1 3 1 0 4 5 6 7 9 4 5 6 4 1 3 5 5 6 5 5 6 7 7 7 8 7 8 8 10 12 16 21 23 25 28 29 27 25 23 23 21 17 17
5 5 2 3 3 4 6 9 8 3 4 6 5 5 6 6 7 7 7 8 9 10 11 10 10 11 11 13 13 13 15 16 21 24 26 26 27 28 28 28 27 26 20
5 4 2 1 6 9 10 10 7 5 7 8 10 10 11 11 11 11 11 12 12 14 14 14 15 16 16 16 16 16 15 14 15 17 21 22 24 25 31 28 28 23 24
5 3 1 2 8 11 12 11 9 5 7 9 11 12 13 13 13 14 15 16 18 18 18 18 17 18 19 20 21 20 19 18 16 17 18 19 18 18 22 23 30 25 24
5 4 4 9 12 14 14 13 12 11 11 12 14 15 16 16 16 17 18 20 22 23 23 23 23 23 23 24 25 24 23 22 21 20 20 20 22 22 21 22 22 29 32
8 6 7 10 13 15 17 17 16 14 13 14 16 17 18 19 21 22 23 24 26 27 28 29 29 28 27 28 28 27 27 26 25 25 25 24 23 22 20 26 26 28 33
5 5 5 8 11 14 15 16 16 15 14 16 18 21 22 23 23 24 26 27 27 29 30 31 31 31 30 30 30 30 30 29 29 29 28 29 29 27 24 23 26 32 35
3 1 2 5 9 13 14 16 15 15 18 20 23 25 22 22 23 24 26 27 28 29 30 30 30 30 30 31 32 32 32 33 33 33 33 33 33 32 30 28 26 26 31
2 3 5 7 10 12 14 19 19 22 21 21 24 26 25 26 27 27 26 26 27 28 29 29 29 29 29 29 30 31 33 33 35 36 36 37 37 37 36 34 32 31 29
6 8 7 10 14 15 16 20 20 21 19 20 21 23 24 26 26 26 26 26 27 27 28 29 29 29 30 31 32 32 33 34 36 37 39 40 42 41 41 40 38 36 34
9 9 11 13 15 19 22 24 24 24 22 22 24 24 27 28 29 29 27 26 27 27 28 29 30 31 32 32 31 31 32 34 35 37 38 41 42 42 42 43 43 42 40
7 9 14 17 18 20 24 25 24 23 23 24 26 26 30 32 33 34 30 31 32 33 32 32 33 33 33 32 33 32 32 33 34 35 36 37 38 39 40 40 40 42 44
9 8 10 13 16 17 21 24 25 25 24 25 28 30 32 35 37 39 36 31 32 36 36 37 38 39 39 35 37 35 34 34 36 36 36 38 37 37 38 40 42 41 39
13 8 6 11 14 18 22 25 28 30 30 31 33 36 39 42 41 41 40 39 38 39 40 40 41 44 43 42 42 43 43 42 40 36 36 38 37 35 36 37 40 41 41
14 11 9 12 16 21 25 27 29 32 35 37 37 39 42 41 39 39 40 41 42 44 46 45 45 45 47 46 44 45 48 48 44 43 41 39 38 35 34 36 39 39 41
16 14 14 17 22 26 29 31 33 36 37 39 43 47 43 42 44 45 42 41 41 44 46 48 49 49 49 51 51 51 54 52 50 46 49 48 43 43 38 35 37 37 35
18 15 17 22 26 29 32 35 38 40 41 44 48 44 43 46 46 42 42 46 48 47 48 51 54 55 53 51 56 57 61 56 54 53 50 51 50 45 42 39 41 41 39
22 21 25 29 31 34 37 40 41 45 48 49 44 45 46 43 43 47 47 48 47 50 52 52 53 56 56 54 55 59 63 59 60 62 55 57 54 54 50 45 47 49 46

GFSSE_700_spd_015.txt.gz
Wind_Speed
9 9 12 12 13 12 8 5 3 2 1 2 2 4 5 7 9 9 9 11 15 16 15 16 17 17 17 17 18 18 16 17 16 15 15 14 14 14 12 12 17 12 12
6 8 11 14 13 9 6 5 4 4 3 3 4 6 7 9 11 13 13 15 17 18 18 18 19 19 18 17 19 23 23 22 20 17 18 15 15 15 12 12 13 18 11
10 10 13 15 11 9 7 5 2 2 4 5 8 10 12 13 15 15 16 16 17 17 18 20 21 21 21 21 21 21 23 25 22 18 16 15 19 16 15 17 17 19 15
13 14 15 13 8 5 4 3 2 3 6 8 12 13 14 15 15 17 17 17 18 19 19 19 20 22 22 21 21 21 21 19 16 16 17 15 20 16 18 20 20 19 20
14 13 11 9 7 6 5 4 5 8 10 12 13 14 14 14 15 15 17 19 20 20 20 20 22 24 24 23 23 22 21 19 17 14 15 17 15 27 22 17 14 14 23
13 10 9 7 5 5 6 8 10 10 11 12 11 11 12 12 12 13 14 15 16 17 19 20 22 23 23 23 22 21 20 18 16 15 14 26 21 27 23 21 17 21 19
10 8 6 5 6 8 10 12 11 11 10 9 8 8 8 9 10 12 13 13 13 13 14 16 18 18 17 16 16 15 14 14 15 17 17 16 22 26 25 26 24 23 22
8 6 5 6 10 11 10 9 8 7 3 4 5 6 7 9 12 13 15 14 14 13 13 14 15 15 15 16 15 13 12 12 12 13 20 15 27 22 26 28 28 25 22
6 5 8 9 8 8 7 7 8 3 4 5 7 7 9 12 14 15 16 15 15 16 16 17 18 18 18 17 16 16 16 14 14 18 17 24 25 23 24 25 25 26 24
7 9 9 7 6 6 5 6 5 5 6 8 9 10 11 13 16 18 18 18 19 19 20 20 21 21 21 21 21 20 19 20 18 18 20 21 19 22 23 23 24 26 24
9 9 4 3 4 3 3 3 4 5 7 9 10 12 14 16 18 21 19 22 23 24 24 25 25 25 25 25 24 23 22 23 21 22 24 22 21 22 23 23 22 22 25
8 6 6 4 3 1 2 4 6 6 8 9 11 12 14 15 17 19 21 22 24 25 27 28 28 28 29 29 31 28 26 27 25 26 30 25 24 23 22 21 22 21 22
8 6 5 6 4 1 3 6 6 7 6 7 6 8 11 14 16 18 20 23 24 26 26 28 30 29 29 29 29 31 31 30 29 29 34 27 27 26 25 22 22 24 23
6 6 6 6 3 0 4 6 7 7 8 10 12 13 16 18 20 20 22 23 25 28 29 29 28 30 29 29 30 30 31 30 30 31 36 30 30 29 28 26 23 23 21
8 9 7 6 4 4 4 4 7 9 12 14 16 19 20 21 21 22 23 24 25 26 27 27 28 29 30 30 30 29 29 29 29 28 32 33 32 32 31 30 29 26 24
9 10 10 8 8 9 10 10 13 14 16 19 21 22 23 23 25 23 22 23 22 23 25 26 26 26 26 27 28 30 30 30 31 31 31 36 31 32 32 32 30 30 28
9 9 13 11 14 14 15 17 17 18 19 21 25 26 25 25 24 24 25 24 23 23 25 27 27 27 27 27 29 31 32 32 32 32 32 33 38 34 34 34 33 32 31
10 11 13 15 17 18 20 20 20 22 22 23 25 26 24 23 24 24 24 25 26 25 26 29 31 32 32 32 35 36 34 35 37 37 37 36 35 38 38 36 35 35 35
10 14 15 19 18 22 25 23 23 23 21 22 24 25 29 28 30 30 31 30 32 31 31 32 30 33 35 36 38 37 40 41 39 39 41 41 39 38 38 42 38 36 36
18 17 19 21 22 24 25 23 23 23 25 28 30 31 33 33 35 37 38 39 38 40 37 37 37 35 35 35 36 40 40 42 45 45 45 46 46 47 42 42 42 39 38
19 18 17 17 19 21 23 22 24 25 29 32 35 39 38 40 42 44 44 46 47 48 41 40 37 36 35 35 41 41 40 40 45 46 46 48 48 48 50 48 47 40 45
12 12 14 15 16 19 23 24 26 29 32 35 38 41 41 45 44 47 50 52 53 49 45 40 36 37 39 39 42 45 50 48 45 44 44 46 46 45 46 48 49 45 40
15 17 19 22 23 22 25 29 31 33 36 38 40 42 43 46 51 53 53 53 49 44 42 40 41 43 43 41 43 46 47 50 45 36 36 48 45 48 46 47 47 48 46
17 20 23 24 24 25 29 33 34 37 40 41 44 49 53 55 53 49 48 49 49 44 46 47 43 44 48 49 49 50 49 50 50 52 47 39 45 44 43 50 48 55 50
21 24 26 27 29 30 33 35 38 42 45 46 51 55 52 52 51 50 48 48 45 46 48 46 51 54 55 57 57 58 58 56 52 56 54 49 48 47 39 39 44 55 53
25 24 25 27 30 33 33 39 44 47 50 50 50 51 51 51 51 50 50 50 50 51 51 59 59 58 59 60 59 58 57 57 53 54 54 55 56 53 53 43 36 38 51

GFSSE_700_spd_021.txt.gz
Wind_Speed
10 16 15 13 9 10 6 3 1 1 1 1 1 2 4 6 9 12 13 14 15 16 17 19 18 19 19 18 18 18 16 16 15 15 17 15 11 12 13 12 9 7 4
10 15 14 13 12 9 4 2 3 2 2 2 3 6 10 13 15 15 16 16 16 18 19 19 19 19 19 19 19 20 19 18 18 17 16 15 12 10 9 11 9 6 5
10 12 12 12 12 9 4 6 5 3 3 5 8 11 14 16 16 17 16 15 15 17 19 18 18 18 19 20 20 20 20 20 19 17 17 14 11 13 14 12 9 8 9
12 11 13 12 10 6 6 4 4 5 7 11 13 15 15 14 13 11 10 11 11 14 16 16 16 17 18 19 21 21 21 20 19 17 16 17 16 15 14 5 7 10 10
10 11 10 11 7 3 3 5 7 10 13 14 14 14 11 8 7 6 8 10 12 14 14 14 13 13 14 15 16 17 18 17 16 16 17 17 16 17 20 30 6 12 12
9 10 9 6 4 4 7 10 13 13 12 11 9 6 6 6 6 9 11 12 14 15 16 17 15 15 15 15 14 14 15 14 13 14 15 15 16 16 14 13 10 12 16
9 8 5 3 4 8 10 9 7 7 6 4 4 5 6 8 9 12 14 15 16 16 16 16 16 16 17 16 16 15 15 15 14 14 12 13 14 18 16 14 11 13 15
5 4 3 5 8 9 7 5 6 6 3 4 6 8 8 10 12 14 15 16 17 17 17 17 18 18 18 18 18 17 16 16 17 19 18 18 15 12 13 14 15 16 17
4 4 7 8 8 6 3 5 5 3 3 5 8 9 11 13 14 16 18 18 19 20 20 20 20 20 21 21 20 19 18 17 17 21 22 23 20 16 14 15 18 19 19
7 8 8 7 5 5 5 4 4 4 5 7 9 12 14 15 13 12 15 18 20 22 23 24 24 24 23 23 23 22 21 21 18 21 22 23 22 20 20 18 17 18 19
10 9 6 3 4 3 3 4 5 5 8 10 11 12 12 14 17 19 19 21 22 23 24 25 26 26 25 25 25 23 21 22 19 22 24 23 22 21 20 19 20 21 20
10 9 6 4 6 4 4 4 5 6 7 8 11 13 17 21 22 23 26 26 27 27 26 26 25 25 24 21 22 23 23 22 21 22 22 22 20 20 22 21 20 20 20
10 10 9 5 6 7 7 7 8 8 11 12 14 18 21 21 23 24 25 25 26 26 26 25 25 24 23 21 19 19 21 21 21 23 22 22 20 19 20 21 22 22 21
13 11 15 8 8 5 4 6 9 12 14 17 19 19 22 22 24 25 26 26 26 26 26 25 23 22 22 22 23 23 19 18 19 22 22 21 22 19 19 19 19 21 23
11 16 18 9 5 6 7 8 9 13 15 19 20 22 24 25 24 24 24 24 25 25 25 24 23 23 22 23 25 26 25 24 23 23 24 24 23 23 20 20 20 20 20
12 21 18 19 8 11 7 12 12 15 18 22 22 24 24 26 22 23 25 23 23 25 26 28 29 29 31 32 33 33 33 31 29 28 29 27 25 24 24 21 21 21 20
11 20 18 21 15 23 3 17 20 17 21 24 27 27 26 28 25 27 26 26 28 30 30 32 32 33 34 34 35 35 35 35 35 36 34 34 29 25 25 24 23 22 22
18 17 16 18 15 11 16 21 23 20 20 23 27 31 32 31 29 31 30 31 34 36 36 38 40 40 40 40 39 37 37 37 38 39 39 38 39 36 30 27 27 25 23
18 20 24 24 19 22 21 24 20 22 22 25 27 28 27 31 35 35 35 36 40 41 41 43 46 46 45 42 41 40 38 39 40 41 40 38 38 40 40 37 32 31 29
23 24 25 23 25 24 23 22 24 24 27 29 30 30 32 36 36 40 44 44 44 44 46 46 45 42 41 42 44 43 42 41 41 42 40 37 37 38 40 40 39 38 35
24 22 22 24 22 20 21 21 23 26 28 24 24 28 32 36 47 46 48 49 51 48 46 45 44 44 44 43 47 47 46 44 43 42 43 44 42 37 36 40 41 40 38
23 21 19 15 17 21 24 28 26 25 27 31 33 37 44 46 48 50 50 49 48 49 47 47 47 48 47 44 46 48 51 47 44 44 44 44 41 40 40 38 43 42 46
15 14 17 18 19 24 27 27 29 30 31 33 33 35 40 45 48 48 47 49 49 50 48 47 48 48 47 46 45 45 49 52 54 48 46 45 45 45 44 42 42 42 43
15 18 20 22 24 26 26 28 31 34 35 37 40 43 43 45 50 49 49 49 47 46 46 47 48 50 51 51 49 48 47 47 52 59 52 50 51 50 48 46 47 47 45
17 19 18 25 31 32 32 33 34 35 36 38 42 46 49 48 45 45 46 46 47 48 48 49 51 53 54 53 53 55 53 47 44 48 58 57 53 48 48 48 50 52 50
21 25 30 28 25 28 32 36 39 43 45 46 45 43 40 42 45 44 45 47 48 48 49 51 51 51 50 46 44 43 41 45 46 41 40 44 47 47 41 44 49 50 53

GFSSE_700_spd_024.txt.gz
Wind_Speed
11 14 13 12 10 9 6 2 2 2 1 2 2 3 6 9 12 15 15 16 17 18 19 20 21 21 21 19 18 16 15 14 15 16 17 18 16 13 10 7 6 6 4
11 13 14 13 9 9 5 2 6 5 3 2 3 9 13 15 16 17 16 16 16 15 17 18 19 19 18 18 18 18 17 15 15 17 17 15 15 12 12 8 10 9 7
11 15 13 11 12 10 4 6 8 5 4 5 9 14 15 17 17 15 12 10 10 11 13 14 15 15 15 16 17 18 19 19 18 17 18 18 13 10 12 12 8 12 10
12 13 12 10 10 8 6 5 4 6 8 11 15 17 16 13 9 6 6 7 8 11 12 13 13 12 12 12 13 13 14 15 16 17 17 18 14 12 11 15 14 9 11
12 11 10 10 10 6 4 5 8 11 15 16 16 13 9 6 5 6 7 9 11 12 13 13 12 11 12 12 11 11 12 12 13 13 14 13 12 11 11 11 16 13 12
11 10 10 10 7 4 5 10 13 13 12 10 7 3 4 6 8 9 12 13 14 14 14 14 14 13 13 12 12 13 13 13 13 12 11 12 12 12 12 7 6 10 13
13 12 10 7 4 6 10 11 7 5 4 2 4 6 9 10 12 13 13 14 14 15 15 16 15 16 16 16 15 15 14 15 15 14 12 11 11 9 10 11 10 12 13
11 9 6 5 6 9 8 3 5 5 3 5 8 11 12 13 13 14 14 15 16 17 18 18 18 17 17 18 17 17 17 18 18 16 15 15 14 12 12 11 12 12 14
9 6 4 6 8 6 3 5 5 5 6 8 10 10 10 11 13 15 17 19 19 20 21 21 21 21 20 18 17 16 16 17 19 19 18 18 16 12 11 13 13 13 16
7 4 6 7 5 4 5 4 5 6 5 6 8 10 11 12 13 15 17 19 20 21 23 23 23 22 21 20 18 16 15 15 15 17 20 19 20 19 16 15 15 15 15
6 6 6 4 3 4 3 3 3 5 8 10 10 12 14 18 20 20 20 21 22 23 23 24 23 23 21 19 17 16 14 13 14 15 16 16 16 17 19 18 18 18 17
6 2 3 2 0 3 5 6 7 7 8 10 13 15 18 22 24 24 24 23 23 24 24 23 22 21 20 18 15 15 16 16 15 15 14 15 14 14 16 19 19 19 20
7 10 12 9 7 5 4 3 2 4 7 12 15 18 21 22 24 25 24 23 24 25 22 21 22 23 22 21 19 18 17 16 19 19 17 15 15 14 16 17 19 20 20
10 11 14 12 9 7 8 7 9 10 12 13 17 20 22 25 25 26 26 24 25 25 23 22 24 25 25 25 25 25 25 24 23 22 23 21 20 19 17 17 19 20 21
7 7 10 10 9 8 9 12 10 15 16 16 17 19 21 24 25 29 27 26 27 26 25 26 26 26 27 28 29 30 30 30 28 27 25 24 25 25 23 20 19 19 21
7 6 12 14 16 16 11 13 15 18 22 18 18 20 23 24 27 29 28 29 29 29 30 32 34 34 33 33 32 33 33 33 34 33 32 30 28 26 26 25 21 21 21
11 10 13 10 13 12 6 8 17 18 22 22 24 25 26 26 28 28 29 30 32 33 36 39 40 41 41 38 37 36 37 37 36 36 37 37 37 35 31 28 26 23 22
11 12 13 16 14 12 11 16 19 17 20 25 26 28 31 30 30 30 32 37 38 40 42 45 42 44 44 43 41 38 37 37 36 36 37 37 38 40 40 37 32 29 25
16 16 16 20 18 15 21 22 18 17 20 25 27 28 28 29 32 33 36 38 43 44 45 46 46 45 45 44 43 40 38 38 39 39 39 38 39 40 41 42 41 37 33
19 19 20 19 18 22 23 19 17 19 23 27 31 33 34 35 37 37 38 44 45 48 50 48 47 46 46 47 47 46 43 41 40 39 40 40 41 41 43 45 44 44 40
21 21 22 24 25 20 15 17 19 23 26 29 32 32 34 35 37 39 46 44 47 49 51 52 52 51 50 50 52 51 48 44 43 41 40 42 44 45 45 45 46 46 48
21 27 22 22 16 14 16 19 21 23 26 27 29 32 36 38 39 42 44 47 51 52 50 49 49 49 47 48 49 50 54 51 48 45 43 43 45 46 47 46 42 40 40
21 14 18 18 18 21 24 27 28 27 27 30 32 34 35 37 41 47 51 51 49 47 47 48 48 48 48 49 49 50 53 57 57 53 49 47 46 47 47 48 47 45 43
16 18 18 20 23 25 28 26 24 26 26 27 30 35 38 41 44 45 46 48 50 50 49 49 49 49 49 50 51 50 50 51 55 61 55 50 49 50 49 50 51 50 48
22 24 24 24 28 27 28 29 31 34 36 39 42 41 41 41 42 45 47 48 49 51 51 50 51 51 51 52 53 54 52 45 43 46 54 50 44 41 42 45 48 49 49
18 17 24 27 30 33 35 35 37 37 41 46 44 43 42 43 46 47 47 48 48 49 49 50 50 50 49 48 45 40 39 40 40 39 40 39 40 35 30 32 38 42 45

GFSSE_700_spd_030.txt.gz
Wind_Speed
23 19 17 16 13 9 7 4 2 4 3 3 3 4 10 15 17 18 18 16 15 13 12 13 14 15 14 14 15 15 15 14 12 10 11 10 10 10 9 8 7 7 7
18 18 16 14 11 9 7 3 3 4 3 3 5 8 12 16 18 16 11 9 8 9 12 12 13 13 13 13 14 13 12 12 12 11 11 9 9 10 9 8 8 8 8
17 17 15 13 11 10 7 1 4 3 3 5 8 11 15 16 12 8 9 10 11 12 13 13 13 13 12 12 13 13 11 10 9 8 6 4 6 8 8 8 8 9 10
17 16 15 12 10 9 4 4 3 5 7 10 13 15 12 7 7 8 11 12 12 13 13 14 14 14 14 14 13 13 12 12 11 10 7 4 1 3 8 10 10 10 13
16 17 14 12 9 6 2 2 6 10 13 11 8 5 6 7 9 11 12 12 12 13 13 13 14 14 15 15 15 14 13 12 13 11 9 5 2 2 7 10 11 11 13
18 16 13 10 8 5 2 5 10 10 5 5 8 8 8 10 11 12 12 13 13 13 14 14 14 15 16 16 16 16 16 15 12 12 9 7 4 3 5 8 10 12 12
16 14 12 9 7 3 4 8 5 3 5 6 7 9 10 11 12 13 13 13 14 14 14 14 14 14 14 14 14 14 15 15 14 13 11 8 7 7 8 8 10 13 13
13 12 12 9 5 3 6 4 1 5 6 7 9 12 13 14 15 15 15 15 16 16 16 17 18 17 16 14 14 13 12 13 14 13 14 12 9 9 10 12 15 16 17
15 13 9 5 3 4 2 2 5 6 8 10 11 11 11 12 13 15 16 17 17 17 19 20 22 21 19 18 16 15 13 12 13 12 14 16 15 12 13 14 15 18 17
14 10 5 3 3 1 4 6 8 9 10 9 9 9 10 11 13 15 17 20 21 22 22 21 20 19 18 18 18 18 16 15 14 13 12 15 16 17 16 17 17 19 21
9 5 5 4 4 6 6 7 9 9 8 7 7 7 10 13 15 17 18 21 25 24 24 24 22 20 20 21 21 19 18 18 18 17 16 15 16 17 19 20 20 21 22
4 6 5 5 7 8 9 9 7 7 5 4 7 10 14 16 17 19 19 22 25 25 24 24 23 23 23 24 26 27 27 24 23 22 21 22 20 20 19 19 22 22 23
5 7 6 7 9 9 9 7 5 3 4 6 9 12 14 17 19 21 21 21 24 26 27 26 25 25 26 27 29 32 34 32 30 29 27 26 26 25 24 24 23 23 23
9 13 13 12 11 12 6 4 2 2 8 11 13 14 15 17 19 22 21 22 25 27 28 30 30 30 32 32 33 35 34 33 34 34 32 31 31 30 28 28 27 27 27
10 12 10 11 10 8 7 1 1 3 10 13 16 18 18 18 21 24 25 27 28 29 30 31 33 35 36 38 38 37 35 36 36 36 36 36 36 35 35 33 32 31 29
6 5 6 3 4 2 1 4 5 7 12 15 19 21 21 22 24 28 29 30 31 32 33 36 37 39 42 43 42 42 39 38 37 37 37 38 39 39 39 38 36 36 36
4 6 8 7 8 6 4 6 7 11 17 19 20 20 20 23 27 29 31 32 34 35 38 39 41 44 46 47 47 47 45 43 43 43 43 42 41 42 42 42 42 40 37
8 11 15 16 15 12 6 11 13 22 18 20 20 21 23 26 30 31 32 34 37 40 42 43 48 50 51 52 52 50 49 48 48 48 47 47 47 47 47 47 45 45 44
10 14 21 22 24 18 14 15 15 14 18 20 23 25 26 28 30 32 33 37 41 43 45 51 52 54 56 56 57 55 50 46 46 45 45 45 46 47 48 49 50 48 47
13 17 24 28 26 24 18 15 16 15 18 21 24 26 27 29 30 31 37 41 44 48 50 52 54 55 58 59 57 57 55 52 49 49 48 47 47 48 49 50 51 52 51
17 18 20 22 20 19 20 18 14 15 19 23 27 28 30 31 34 37 41 44 48 50 52 52 52 53 56 58 60 59 56 54 54 50 48 48 50 50 51 52 51 52 52
16 13 13 16 16 13 11 15 20 23 24 24 25 28 32 36 39 41 44 46 48 49 51 53 56 56 56 57 59 59 60 59 56 52 50 49 50 51 51 53 55 54 53
16 14 11 9 11 14 17 19 19 21 22 26 28 30 33 36 39 42 46 49 51 52 53 54 54 55 55 53 53 51 52 54 57 54 47 45 48 49 50 52 55 56 55
4 4 8 10 11 12 15 20 27 30 33 36 36 36 38 41 44 46 47 49 50 51 52 53 55 56 56 54 51 45 45 48 50 55 53 55 49 42 41 45 50 53 55
1 8 12 15 20 23 26 28 35 35 39 41 38 40 42 44 45 46 48 50 52 54 55 54 54 52 49 46 44 45 45 45 43 48 51 52 48 45 35 32 36 41 45
17 22 23 22 23 26 28 32 35 39 43 39 39 41 42 44 45 47 49 50 49 49 50 48 48 47 44 44 46 45 42 43 43 44 45 46 43 40 37 28 27 31 34

GFSSE_700_spd_033.txt.gz
Wind_Speed
24 21 19 18 14 11 9 8 5 3 2 3 4 5 8 12 16 15 11 11 10 10 10 11 12 13 12 12 12 12 10 9 6 6 7 9 10 10 10 9 9 9 8
23 22 19 18 13 11 8 6 4 3 3 3 3 6 10 15 13 9 10 10 10 10 11 11 12 12 12 12 12 11 11 9 7 4 4 7 9 10 10 10 9 9 9
19 21 20 17 13 11 7 3 3 3 2 3 6 9 13 9 6 8 9 10 9 10 10 10 11 12 11 11 11 10 8 7 5 4 3 4 4 7 11 11 10 10 9
22 20 18 16 13 10 5 1 2 3 5 8 10 9 3 5 7 8 9 9 10 10 10 11 11 11 12 12 12 12 10 8 6 4 4 3 3 5 6 11 11 12 13
23 20 17 14 12 9 4 2 3 6 8 5 1 5 8 8 8 9 10 12 12 12 12 13 13 13 13 13 12 12 10 9 8 6 4 4 4 6 8 9 12 13 13
23 19 15 12 12 9 4 1 5 4 3 7 8 8 9 10 11 11 12 12 13 14 14 15 16 16 16 15 14 14 13 11 9 9 6 5 6 8 8 9 11 11 14
22 18 15 13 11 7 2 2 1 4 7 7 9 11 12 11 11 12 12 12 13 14 15 16 18 19 18 17 15 14 14 14 12 9 9 8 9 9 11 11 11 13 13
19 17 14 12 9 4 1 1 4 7 8 10 12 11 11 11 11 12 13 14 15 17 18 19 19 20 19 18 16 15 14 14 14 13 12 11 10 12 13 14 14 15 17
18 16 14 11 6 2 3 6 8 9 11 12 10 9 8 9 10 11 12 14 17 18 19 20 19 18 18 18 18 18 17 16 15 14 13 14 14 14 15 17 18 19 18
18 16 13 8 4 5 7 8 10 12 12 10 7 6 6 8 9 11 13 15 18 19 20 20 18 17 17 17 18 19 20 21 20 19 17 15 15 16 16 18 20 22 23
16 12 8 6 7 9 10 11 12 11 8 6 4 4 6 9 10 13 14 17 20 22 21 21 20 19 19 19 21 22 23 24 24 23 22 21 20 19 18 18 20 22 24
11 7 6 7 10 12 13 14 11 8 5 2 3 6 8 12 13 13 16 19 21 24 23 22 23 23 23 24 25 26 27 30 30 27 26 24 24 24 23 23 21 22 22
5 7 10 12 13 16 15 13 10 6 3 1 5 9 11 13 14 15 18 19 22 23 23 23 24 26 29 29 29 30 31 32 32 30 30 30 28 27 26 26 26 26 26
14 16 14 17 14 14 13 12 10 8 4 3 6 10 13 15 15 18 20 22 24 24 24 25 27 29 32 34 33 33 34 33 33 32 31 32 31 30 30 29 29 29 29
14 12 14 16 12 12 13 12 10 8 4 7 10 13 15 15 17 19 22 25 26 27 27 28 31 34 36 36 37 37 35 36 36 36 35 34 35 35 34 34 34 33 32
9 9 10 11 11 9 9 10 7 5 9 17 14 15 15 17 18 22 25 28 30 31 32 33 35 38 39 40 42 42 41 42 42 42 42 41 41 40 40 40 39 38 38
9 10 11 12 12 12 8 7 8 6 17 21 16 16 16 18 21 25 28 30 32 35 37 39 40 42 43 46 47 47 47 47 48 47 45 44 44 43 43 43 44 44 44
15 16 17 18 16 16 16 12 12 11 16 13 16 16 18 22 26 28 31 34 37 38 41 43 44 46 48 49 50 50 50 50 50 49 49 48 47 46 46 46 45 45 46
17 18 20 22 24 24 24 17 12 4 11 14 17 19 23 27 30 31 34 35 39 41 43 45 48 50 52 52 52 53 53 54 52 50 49 49 50 50 50 51 49 48 48
16 17 21 24 27 26 17 10 7 5 9 15 19 23 25 27 29 32 36 39 41 43 45 48 50 51 53 55 55 55 54 54 53 53 52 52 53 53 53 52 53 53 51
19 22 27 17 20 14 6 6 10 11 15 17 19 20 24 29 33 36 39 41 44 47 48 49 50 52 53 54 57 57 57 57 56 54 53 52 51 50 50 51 53 54 54
22 24 9 10 8 7 10 11 10 11 14 18 22 26 29 31 32 34 37 40 43 47 50 50 51 53 54 55 56 57 56 54 53 49 48 48 49 48 46 48 52 53 54
13 15 7 7 12 12 10 9 13 18 22 26 30 33 31 31 33 37 41 43 45 46 47 49 51 52 53 52 51 50 50 51 51 48 42 37 36 36 39 40 43 50 53
9 6 4 5 10 16 16 16 20 24 28 32 35 36 34 36 39 41 43 44 46 48 49 50 49 48 47 47 44 41 40 43 46 48 44 45 43 39 36 36 35 38 43
7 2 12 22 27 21 22 23 25 29 32 36 38 36 36 39 40 43 44 46 47 48 48 48 49 50 47 44 44 41 41 41 41 42 45 43 42 43 40 35 33 32 35
8 15 27 18 14 18 23 25 28 32 36 38 37 37 38 40 42 44 46 47 47 48 51 51 50 44 39 44 43 42 41 37 37 39 41 41 40 42 42 35 31 31 29

GFSSE_700_spd_036.txt.gz
Wind_Speed
21 21 19 19 17 14 12 9 6 4 3 3 2 1 5 10 12 5 7 8 7 7 7 8 9 9 8 8 8 8 8 7 3 3 7 9 12 12 13 12 11 11 11
23 22 20 19 16 14 12 7 4 4 3 2 0 4 9 11 4 6 8 8 8 8 9 10 10 10 10 9 8 7 6 5 4 3 4 6 9 11 13 13 12 12 12
21 19 19 18 16 14 10 5 4 3 2 1 5 7 8 3 5 7 7 7 8 8 10 10 11 11 11 10 9 8 6 6 5 4 4 6 8 9 12 14 14 14 14
13 16 18 17 16 13 8 4 4 2 3 6 6 3 4 6 5 6 7 8 9 10 10 11 11 12 12 12 12 11 9 7 6 6 6 7 9 10 11 11 14 14 15
17 21 19 16 16 11 6 5 2 2 2 2 5 8 7 5 7 9 9 10 11 12 13 14 14 14 13 13 13 13 12 11 9 7 8 7 9 10 10 10 12 14 15
24 23 19 16 14 9 7 3 1 2 6 9 8 8 8 8 8 9 10 10 11 12 13 14 15 15 14 13 12 11 11 11 11 11 10 10 11 11 13 14 13 13 14
23 20 18 15 13 10 6 3 3 8 9 9 9 10 8 8 8 9 9 10 11 12 13 15 15 15 14 14 13 12 11 10 10 10 10 12 13 14 15 15 16 16 16
22 21 18 16 13 8 5 5 8 10 10 11 11 8 7 7 7 9 10 12 14 14 16 16 16 16 16 16 15 15 14 13 11 10 11 12 12 14 16 18 18 20 20
25 20 17 15 11 7 7 9 11 11 12 11 9 6 5 5 6 7 8 10 14 16 20 20 20 17 16 16 16 16 16 16 16 16 14 15 15 15 15 17 20 22 24
22 19 17 12 8 8 10 12 13 14 14 11 8 5 3 4 4 4 7 11 14 17 19 20 19 18 17 18 18 19 19 19 19 20 18 17 16 18 19 18 18 20 22
21 18 13 10 9 11 13 14 15 16 13 9 5 3 0 2 3 5 9 12 14 16 19 19 20 20 20 20 22 23 23 23 23 24 23 20 19 19 20 21 22 22 21
16 12 10 10 13 15 16 16 16 15 11 8 6 5 4 5 6 8 11 13 15 18 19 20 21 22 24 25 27 26 24 25 25 25 26 23 22 22 21 22 22 22 24
11 12 13 15 17 17 18 19 18 15 11 7 6 7 8 9 10 11 12 14 17 19 21 23 24 25 26 27 30 28 28 28 28 28 29 27 26 25 25 25 24 24 24
12 13 15 17 19 20 21 19 16 14 10 8 7 9 11 12 13 13 15 17 19 21 24 26 27 28 29 31 31 30 32 32 32 32 35 30 32 31 31 31 31 30 29
15 16 18 18 19 19 19 19 17 14 9 6 10 13 13 14 14 16 18 20 23 26 29 30 32 32 32 33 34 34 36 38 38 36 38 39 37 37 36 35 36 36 36
15 16 18 16 16 17 18 17 15 11 7 9 15 16 15 16 16 19 22 25 28 32 35 37 35 36 36 36 38 40 40 41 43 43 42 44 42 39 39 39 39 39 39
15 13 14 15 17 14 15 18 16 10 5 6 17 15 16 17 18 23 26 29 32 35 38 37 38 41 42 43 45 45 46 47 48 48 47 45 46 46 42 42 41 42 43
15 15 16 18 19 19 20 20 23 24 10 6 12 16 17 20 24 28 31 34 35 37 38 40 43 43 46 47 48 49 48 48 50 49 50 49 50 48 49 50 45 46 46
18 18 20 19 23 21 25 28 21 16 20 11 12 15 19 23 28 31 32 33 35 38 40 42 44 47 47 49 48 48 49 49 50 51 52 52 53 53 52 55 54 50 51
20 21 21 24 27 30 31 14 5 7 6 9 12 17 21 24 27 30 31 34 36 39 41 42 44 46 48 48 49 51 52 53 52 53 54 53 55 57 56 56 56 56 56
21 22 23 26 24 25 14 9 2 3 6 8 12 16 20 25 27 29 32 34 36 39 41 42 43 46 47 50 49 51 51 53 51 52 51 50 52 53 54 56 58 58 58
23 25 24 15 9 5 5 7 4 7 8 10 14 19 24 28 28 30 32 35 38 40 43 44 45 46 47 52 52 49 48 44 31 39 48 46 47 46 45 47 49 50 50
20 17 15 6 2 3 10 15 12 10 13 16 20 25 28 30 33 34 36 37 40 41 43 45 46 47 47 45 49 47 43 38 42 40 35 35 36 33 34 37 40 43 44
12 12 3 2 12 17 16 13 12 16 20 23 27 31 33 34 36 37 38 40 42 42 43 44 46 45 46 45 43 41 41 41 37 35 27 26 28 26 28 32 37 37 41
11 10 8 11 21 16 13 15 19 21 24 27 31 34 34 36 37 38 39 41 43 44 45 47 47 47 45 43 37 34 36 33 27 25 29 25 27 28 29 39 41 42 37
7 11 16 19 15 15 17 21 23 27 27 31 34 36 37 38 38 41 43 44 46 46 48 43 41 41 33 27 29 37 36 29 26 26 34 36 34 33 26 32 31 26 30

GFSSE_700_spd_039.txt.gz
Wind_Speed
22 21 20 19 19 17 14 11 8 6 4 3 3 1 3 8 6 4 6 6 6 6 6 7 7 7 8 7 7 7 7 7 5 5 8 11 12 13 13 12 11 12 11
23 23 21 20 19 17 14 10 7 6 5 4 3 1 5 6 2 4 6 7 7 8 9 9 9 9 9 9 9 8 8 7 6 6 6 8 11 11 11 12 13 12 12
24 24 23 22 19 17 13 9 7 6 5 4 3 4 2 3 4 5 6 7 9 9 10 10 10 11 11 10 10 9 8 8 8 7 6 12 21 11 11 11 12 13 13
23 23 21 21 20 17 12 9 8 5 3 4 4 2 6 5 5 6 7 8 9 9 10 10 11 11 11 11 10 9 8 7 8 9 7 3 17 11 11 12 12 15 15
24 24 22 19 19 16 11 9 5 2 3 3 6 9 7 7 7 7 8 8 9 9 9 9 10 10 11 11 11 11 11 9 7 6 9 9 17 13 13 13 13 14 16
23 22 24 19 18 14 10 7 3 2 5 10 9 8 9 7 7 8 8 9 9 10 12 14 14 14 12 11 10 10 10 9 9 7 9 12 13 15 16 17 18 16 16
21 27 20 19 16 13 10 5 3 7 10 9 9 10 8 7 8 7 8 8 10 12 15 16 17 16 15 13 12 11 10 9 8 9 10 14 12 14 16 18 20 20 19
20 22 19 16 14 12 7 5 7 10 10 10 10 9 7 7 5 5 6 8 10 13 16 17 19 18 16 15 15 14 13 12 11 12 13 16 15 15 14 15 19 22 23
20 20 20 17 14 10 7 9 11 12 12 12 10 8 6 4 2 2 5 8 11 14 17 18 20 20 19 17 17 17 17 16 15 15 13 17 17 17 18 17 16 18 21
20 20 17 15 11 8 8 11 13 14 14 12 9 7 4 1 2 4 6 9 11 13 16 18 20 21 22 21 20 20 20 19 17 17 19 17 18 18 19 19 19 20 20
17 19 18 14 10 8 11 14 15 15 14 11 9 6 4 4 5 6 7 10 11 14 15 18 20 23 24 25 22 22 22 19 19 20 20 17 19 19 19 20 21 21 22
17 17 14 11 11 12 15 16 16 17 14 11 8 6 7 6 7 9 10 11 12 15 17 20 22 25 26 26 28 29 27 23 24 24 25 19 20 21 21 21 22 23 23
16 14 12 10 12 15 16 18 18 16 14 11 9 8 7 8 9 11 12 13 16 18 21 25 26 29 29 29 30 30 28 27 27 28 30 27 23 25 25 25 26 26 26
14 13 12 12 15 17 18 18 19 18 15 11 8 7 9 11 11 13 15 16 18 22 24 27 30 32 32 30 30 31 31 32 33 33 35 33 30 29 30 29 29 29 30
12 12 13 15 16 17 19 19 20 17 13 10 8 10 14 15 13 17 18 20 22 27 30 31 34 35 34 34 35 36 35 37 37 37 37 37 37 32 31 31 30 30 32
11 13 14 16 17 19 19 19 17 16 14 12 11 13 18 20 16 19 21 23 27 31 33 34 36 36 37 39 39 40 40 41 41 40 39 39 40 42 37 35 35 35 35
12 13 16 15 18 19 19 20 21 20 16 8 8 10 19 21 17 19 24 28 32 34 35 36 37 39 39 42 43 43 44 43 45 43 46 44 41 45 47 43 39 39 40
16 13 14 15 16 16 17 19 22 24 24 5 15 30 21 18 19 23 28 30 31 34 36 36 39 41 41 42 45 44 44 44 44 43 45 48 48 46 47 49 49 43 46
19 17 16 15 18 20 23 25 34 27 24 13 27 21 20 19 21 25 27 30 33 34 35 35 38 41 43 44 46 44 45 47 48 46 47 49 49 50 53 53 53 53 53
20 14 16 19 22 24 27 23 28 32 20 10 18 19 19 18 20 25 27 28 30 33 35 39 40 41 43 46 48 46 45 46 47 49 49 48 50 50 52 55 56 56 60
25 17 20 21 25 24 21 11 6 5 4 13 13 14 16 19 23 25 28 31 32 37 40 41 43 43 44 44 48 49 47 45 42 43 46 50 46 47 52 53 53 56 58
24 22 23 21 21 11 6 5 6 4 8 12 15 16 20 23 26 28 28 31 36 36 39 42 43 44 44 45 46 49 49 44 35 26 37 39 42 43 45 46 43 44 46
23 22 20 16 12 8 9 11 12 10 12 16 17 20 23 25 28 30 32 33 36 39 40 43 44 45 46 45 42 39 38 37 37 35 36 35 36 36 37 30 35 35 37
20 17 15 12 10 9 10 12 11 11 14 19 22 26 28 29 32 33 36 38 39 40 42 43 42 43 44 43 35 35 34 36 34 40 30 28 30 24 27 32 34 35 39
16 14 13 10 13 15 12 11 12 16 20 21 23 29 31 36 36 37 38 40 39 41 42 43 44 45 42 39 37 30 31 34 34 26 31 27 28 28 27 27 32 35 33
14 12 12 15 17 14 14 16 17 19 22 26 27 31 34 32 34 37 39 41 43 43 43 43 44 44 32 30 33 31 33 35 35 35 33 31 30 28 25 28 31 33 32

GFSSE_700_spd_042.txt.gz
Wind_Speed
16 21 20 20 20 19 17 14 12 10 8 6 4 2 4 7 5 7 6 6 6 7 8 9 9 9 8 8 8 9 9 10 9 8 8 8 10 10 13 14 11 10 9
14 22 21 21 21 20 16 13 12 10 7 4 3 0 4 3 5 6 6 7 8 8 9 9 9 10 10 10 10 9 9 10 11 9 7 6 10 14 12 12 11 12 10
17 23 23 23 22 20 15 12 11 9 6 4 3 2 1 6 6 6 8 8 9 9 10 10 11 12 12 12 11 11 9 8 8 12 9 8 13 14 14 14 12 12 12
24 27 25 23 22 19 14 11 9 7 5 4 4 2 7 7 7 8 9 9 10 11 11 12 12 11 11 10 10 10 9 7 6 6 10 14 13 16 13 12 14 15 15
27 27 26 24 22 18 13 11 8 5 3 3 6 10 8 8 9 9 9 9 9 10 11 12 12 11 11 11 11 11 10 8 4 3 11 11 15 15 15 15 15 14 17
28 29 27 23 20 17 12 11 6 3 4 10 11 10 10 9 9 9 9 9 10 11 13 14 14 14 14 13 12 11 10 10 9 8 11 12 13 15 16 16 17 17 16
29 33 32 24 19 14 11 9 5 6 11 11 10 11 10 10 10 8 8 9 9 10 12 14 15 16 16 13 11 10 10 10 12 10 13 13 15 16 17 17 17 18 18
29 34 25 25 17 12 11 7 7 11 11 12 13 11 10 9 7 5 7 7 8 10 12 14 16 18 18 17 14 12 11 11 11 8 14 14 16 17 18 18 18 18 18
23 26 23 21 15 15 10 7 10 12 12 12 12 10 8 6 4 4 4 5 7 9 12 14 17 19 21 21 20 18 17 14 13 13 15 14 15 17 17 19 18 18 19
15 23 17 14 13 12 9 9 11 12 12 12 11 9 6 3 1 2 4 6 8 10 12 14 16 19 21 21 21 18 19 17 16 16 16 16 16 17 17 18 20 19 19
25 21 19 18 17 12 9 10 12 12 14 12 10 6 3 2 2 4 5 7 9 11 13 16 18 21 24 24 25 24 22 21 19 21 18 19 16 19 19 19 19 20 20
18 17 20 18 11 8 11 13 14 15 15 12 8 6 5 4 7 6 9 11 13 15 17 18 21 24 25 26 27 24 25 24 23 24 22 24 22 21 22 22 22 22 22
14 12 12 9 8 8 10 13 14 15 15 10 8 8 4 6 7 12 12 13 16 18 20 22 27 28 29 29 29 28 28 26 27 29 29 28 29 25 26 26 26 25 25
14 15 11 9 9 8 12 15 15 16 15 12 8 7 6 9 11 13 17 21 20 23 22 26 31 32 31 32 33 33 33 31 32 32 32 31 31 30 26 27 26 27 27
13 10 10 12 11 13 18 18 20 15 15 10 10 9 11 13 16 16 21 25 23 24 28 30 32 33 33 33 35 36 35 35 35 37 35 33 32 34 31 28 29 30 30
11 11 10 11 12 16 18 17 19 19 16 14 13 9 8 11 12 23 20 21 23 26 30 32 34 35 35 35 37 38 37 37 36 38 37 40 39 38 37 38 32 33 35
6 4 6 10 13 12 13 15 18 19 18 19 17 15 18 21 21 22 23 22 27 30 30 32 35 35 37 36 38 40 39 38 39 39 38 38 43 43 41 42 42 36 38
10 7 7 6 7 8 11 13 16 19 22 28 26 21 30 21 26 23 24 25 26 29 32 32 34 36 38 39 39 41 42 39 40 40 40 40 42 44 47 50 50 50 45
10 10 8 9 10 12 15 16 19 23 22 27 35 29 25 23 20 25 23 23 27 29 31 34 35 38 39 41 41 42 43 42 42 42 44 41 44 46 48 50 53 53 54
12 8 14 15 14 17 20 20 16 14 7 14 13 19 18 20 22 23 23 24 27 30 32 35 37 38 39 41 43 43 44 45 43 41 41 41 46 48 49 50 52 54 57
17 10 14 16 18 21 22 18 9 9 13 8 10 11 16 18 20 23 27 28 28 32 36 39 40 41 41 42 43 44 43 43 41 36 40 43 46 47 48 51 54 55 54
24 19 19 21 21 23 15 9 9 11 9 8 11 14 18 21 23 27 26 30 33 34 35 38 39 40 41 41 42 45 47 44 42 39 37 40 42 47 48 49 49 52 49
30 21 22 23 22 17 13 11 12 12 12 12 12 16 20 21 25 27 30 30 32 35 36 36 38 41 43 42 40 43 47 47 45 41 41 38 40 45 46 44 42 32 38
29 26 25 25 18 16 15 15 13 13 15 18 19 21 20 22 25 30 31 33 34 34 35 37 38 40 41 41 41 39 39 37 43 46 38 34 30 33 33 33 37 33 37
26 27 24 18 16 14 17 16 12 15 16 18 19 25 30 28 35 32 35 37 38 39 40 41 41 41 41 42 41 40 37 36 38 38 41 41 38 32 33 29 28 29 34
22 20 18 15 16 15 16 16 15 18 22 22 26 30 25 31 30 31 35 37 37 39 40 39 39 38 38 39 38 33 35 38 39 41 42 43 40 36 36 35 37 37 35

GFSSE_700_spd_045.txt.gz
Wind_Speed
17 21 22 23 24 23 20 18 15 13 11 10 7 5 4 5 7 8 8 8 8 8 8 8 9 9 10 10 9 9 8 8 7 8 7 6 8 11 12 10 10 9 9
11 19 20 22 23 23 21 18 15 13 11 9 7 4 3 6 7 8 9 9 9 9 9 10 10 10 9 9 9 8 9 7 6 5 6 5 11 13 15 13 12 10 9
18 20 23 24 26 24 21 18 15 13 10 8 5 2 4 8 8 9 10 10 10 10 10 9 9 9 10 9 9 8 7 11 11 7 6 6 9 14 13 12 11 11 11
21 30 29 29 27 24 21 17 14 11 8 6 3 3 10 9 10 10 10 10 9 9 9 9 9 10 9 9 10 10 9 12 11 11 12 13 13 15 14 14 14 15 13
24 29 31 31 29 23 18 15 13 9 6 4 6 12 11 11 11 11 10 10 9 9 9 10 11 12 12 11 10 9 9 12 12 14 13 11 13 12 13 14 14 15 14
28 35 32 29 26 22 17 13 11 7 7 10 15 13 13 12 12 11 10 9 9 9 10 11 13 14 14 12 11 10 9 12 11 10 13 11 10 13 14 13 13 13 14
36 35 32 29 26 23 18 14 9 8 13 15 13 13 13 12 12 11 9 8 6 7 8 10 13 14 15 14 11 10 11 12 17 14 16 15 15 14 15 15 14 13 13
29 36 36 33 32 24 19 13 9 12 14 14 14 13 12 11 9 8 6 4 4 5 8 10 12 14 16 15 14 11 9 11 18 16 16 16 17 17 17 16 16 15 14
26 34 30 28 27 18 13 11 12 15 14 15 15 13 11 9 6 4 3 2 3 5 8 9 11 13 16 16 16 16 12 13 17 16 16 15 15 16 16 16 17 16 17
13 24 15 22 16 11 10 10 13 14 15 16 14 12 9 7 5 1 1 3 5 7 9 11 13 16 18 20 19 17 13 13 17 17 17 19 17 17 18 17 17 17 16
16 18 19 17 17 15 12 11 14 15 16 15 13 10 7 4 2 3 5 7 9 11 12 14 16 19 22 24 23 22 20 19 19 20 21 23 22 21 21 21 21 21 20
26 22 17 13 13 8 9 12 15 15 15 13 11 10 6 4 4 5 9 12 15 16 17 16 17 21 23 25 25 23 21 21 22 24 23 24 26 25 23 23 23 24 24
17 20 21 18 12 9 13 15 15 13 13 14 13 9 6 7 7 10 11 14 17 16 17 19 21 27 29 28 29 29 28 28 27 27 26 26 27 29 26 23 24 24 24
16 17 15 14 13 13 14 14 14 15 15 14 11 8 8 7 9 11 14 17 24 24 21 23 27 29 27 28 30 31 32 31 30 32 31 29 27 28 29 27 26 26 27
13 13 8 6 6 9 12 13 12 12 13 14 12 11 8 14 12 12 17 20 19 23 25 26 28 29 30 30 31 34 35 34 34 35 35 36 36 34 32 31 30 28 30
9 6 6 7 11 11 8 8 9 9 9 14 15 16 13 9 19 16 15 18 17 22 27 28 28 29 31 33 35 36 37 35 35 36 36 37 39 39 38 36 35 34 33
7 10 9 8 3 3 3 4 7 8 11 11 18 21 22 18 29 24 19 19 20 26 28 29 29 31 33 34 34 36 37 36 35 35 36 36 39 40 42 44 43 39 39
5 5 5 4 3 2 2 5 8 10 12 14 22 26 29 29 27 34 22 22 23 27 27 29 30 32 35 37 38 38 37 36 34 36 38 38 42 43 44 46 48 50 50
7 8 4 3 4 4 5 7 9 13 18 19 17 20 25 31 37 27 26 22 25 28 30 32 32 34 36 37 37 35 36 37 38 40 41 42 43 44 45 48 51 52 52
6 4 5 6 6 6 10 14 14 14 14 10 14 17 24 24 25 22 21 22 26 29 31 33 35 37 38 37 37 37 38 38 38 38 40 41 43 44 46 48 50 52 55
3 5 6 8 10 13 17 19 16 11 10 12 12 12 14 16 20 23 24 25 27 30 32 34 37 38 36 35 36 37 38 37 37 36 36 37 39 43 45 47 50 52 55
11 12 12 12 14 19 21 18 12 11 13 12 9 12 13 17 21 23 24 25 28 29 31 34 36 36 36 36 38 38 40 38 36 37 38 38 40 41 43 46 49 54 57
22 19 16 17 20 23 23 15 14 14 15 12 13 15 16 19 22 20 21 27 29 28 31 32 33 35 38 37 37 39 43 44 45 42 40 37 34 38 37 42 44 45 45
26 27 20 23 24 26 19 15 16 16 16 16 18 18 20 20 24 23 29 28 27 29 31 32 34 35 38 40 39 39 40 44 48 51 48 42 39 36 35 34 39 37 37
30 31 26 27 28 25 17 14 17 19 20 20 20 21 22 24 25 28 34 31 31 32 33 35 36 37 37 39 40 42 41 42 41 42 46 43 42 40 37 37 35 36 35
31 28 30 31 26 20 17 16 18 20 21 22 24 24 26 29 35 38 39 34 34 35 36 37 37 38 38 39 39 40 40 42 38 38 39 42 43 41 35 36 34 37 39

GFSSE_700_spd_048.txt.gz
Wind_Speed
15 24 26 28 29 27 24 22 20 18 15 14 10 7 4 7 7 7 7 8 8 8 9 9 9 9 9 8 7 9 8 8 9 9 10 8 10 12 12 10 8 7 6
12 25 25 26 26 26 25 23 20 18 15 13 10 7 4 8 7 7 9 9 9 9 9 8 8 9 8 8 9 8 8 7 6 6 8 10 12 12 12 11 10 8 7
19 24 25 26 23 27 26 23 20 17 15 13 11 6 5 8 8 9 10 10 9 8 7 7 7 7 7 7 9 10 9 9 8 9 10 10 11 12 13 13 13 13 11
21 26 30 26 33 32 27 23 20 18 15 13 10 8 11 11 10 11 10 10 8 8 7 7 7 7 7 7 8 9 9 9 11 11 10 11 11 11 10 11 13 13 14
24 29 31 33 35 30 26 22 19 16 14 11 9 13 14 13 12 11 10 9 8 8 8 9 9 9 9 10 11 12 12 13 13 14 13 14 15 14 13 11 11 12 12
30 32 32 34 33 29 24 21 17 14 11 10 14 16 14 13 11 10 9 8 7 7 7 8 9 10 11 11 12 13 14 14 14 14 15 12 13 14 14 13 13 12 12
31 37 37 36 33 29 26 19 14 12 11 16 18 16 15 14 12 10 8 6 4 5 5 6 7 9 10 12 12 15 16 16 17 16 17 15 15 14 14 15 15 14 13
37 39 38 34 30 31 27 22 14 13 17 17 16 16 14 12 10 7 5 3 1 2 3 4 7 9 11 13 12 15 18 17 16 18 19 19 18 17 16 15 15 14 13
20 26 31 35 33 33 26 16 14 19 18 17 16 15 13 11 8 7 3 1 3 4 5 7 8 9 11 14 15 15 18 20 18 18 18 18 19 19 19 19 18 16 15
34 32 30 29 38 28 16 14 17 16 15 16 16 14 12 9 8 5 3 4 6 6 8 9 10 10 14 17 16 15 15 19 19 20 22 22 22 20 20 20 21 20 19
19 24 32 23 26 24 15 16 17 16 16 16 13 12 13 8 4 5 6 6 9 10 12 12 13 14 19 22 21 18 18 20 20 21 22 24 27 26 24 24 24 23 23
15 11 23 26 23 16 14 15 15 14 14 14 16 11 7 6 8 10 9 10 11 11 12 13 15 18 22 23 21 21 21 22 23 23 24 25 26 27 27 25 25 25 24
28 21 20 19 14 11 10 11 13 14 14 14 13 12 10 9 11 12 12 11 10 14 12 15 20 25 26 27 27 26 25 26 27 28 28 28 28 27 28 28 25 26 25
21 23 18 15 10 10 10 11 13 12 12 14 14 13 14 14 13 13 14 16 15 14 17 18 25 28 27 29 29 29 30 30 31 30 29 30 31 31 30 29 28 27 25
19 21 16 13 11 11 10 11 11 11 12 14 12 12 13 14 17 10 12 18 21 23 22 21 23 25 26 26 30 32 32 32 32 33 32 32 31 32 32 33 32 32 31
14 14 12 10 9 6 6 8 8 7 8 11 11 11 15 21 17 17 21 20 23 27 23 23 24 27 30 30 32 33 34 33 32 32 32 34 34 35 36 35 35 34 33
8 6 7 5 5 5 5 5 5 6 8 7 10 13 18 21 22 24 27 27 29 28 26 24 25 28 31 33 35 37 37 36 35 33 32 35 35 35 36 37 39 39 38
6 7 8 9 9 7 6 4 2 3 6 10 13 18 22 19 26 25 27 30 34 28 24 24 27 31 34 35 37 37 36 35 34 34 35 36 37 38 40 42 43 44 45
8 9 7 7 6 4 3 1 3 7 10 13 16 18 21 23 24 27 29 32 32 26 25 28 31 33 33 36 39 39 37 35 35 35 35 36 38 40 42 44 46 48 51
11 10 7 6 4 2 3 5 9 12 13 15 15 17 20 20 21 24 23 22 26 26 29 33 33 32 35 39 38 37 35 35 35 36 36 36 37 39 42 45 47 49 52
14 11 9 8 7 8 9 11 13 16 14 14 15 18 18 16 17 17 20 24 28 29 29 32 33 34 37 37 36 35 35 34 33 33 35 35 36 38 41 44 46 49 52
9 11 11 9 10 11 13 16 17 16 15 16 16 17 16 16 18 21 25 30 27 25 29 29 32 36 36 35 37 37 36 34 32 33 35 36 36 38 40 42 44 44 46
12 13 14 14 15 16 18 20 19 16 15 15 17 15 17 19 21 25 25 28 25 27 27 29 33 35 34 33 35 37 40 40 40 37 38 40 39 39 39 41 42 40 42
14 16 17 20 19 19 23 20 19 16 18 19 17 17 19 21 22 24 25 25 29 36 33 31 33 34 35 35 36 36 38 41 44 48 45 45 44 40 39 39 40 39 42
21 20 20 21 26 24 25 22 19 17 19 19 18 18 19 21 28 29 30 29 31 35 33 34 34 34 36 35 36 38 39 39 41 45 48 46 44 42 38 35 34 33 36
26 25 21 26 28 28 28 23 19 20 19 18 18 20 24 30 32 33 35 37 44 38 38 36 36 38 38 37 38 39 40 42 43 43 45 46 46 42 41 37 40 38 38

GFSSE_700_spd_051.txt.gz
Wind_Speed
22 26 30 33 33 29 26 23 20 18 16 14 9 5 3 6 5 5 6 7 6 6 5 3 4 6 7 8 8 9 10 8 8 5 7 14 14 13 13 11 9 8 7
15 24 30 32 32 31 28 25 23 21 18 15 11 7 5 8 7 6 7 8 7 6 5 4 5 7 7 8 9 9 9 8 8 8 11 13 14 13 12 11 11 10 10
16 26 31 31 31 31 27 25 25 22 19 16 11 8 6 8 7 8 8 7 6 6 5 5 7 8 10 10 10 9 9 9 9 10 11 11 12 13 13 12 11 10 10
20 29 32 34 34 31 26 30 26 22 18 15 11 8 9 9 9 9 7 6 6 6 5 5 7 9 10 10 10 9 10 11 12 11 11 11 12 12 13 13 13 12 12
27 32 35 35 36 35 34 29 23 19 16 13 12 10 11 11 10 8 7 7 6 6 6 7 9 10 11 12 13 14 14 14 14 15 14 14 14 14 15 14 14 14 13
26 32 34 37 40 35 32 27 24 18 16 13 10 12 13 12 11 9 8 6 6 6 8 8 10 11 14 15 17 19 19 19 19 19 19 17 16 15 15 15 15 14 14
23 38 40 41 39 33 29 24 21 17 12 11 14 15 14 13 11 9 7 5 4 4 4 6 7 10 13 16 19 21 22 22 20 19 19 19 18 17 16 16 15 14 15
27 35 42 39 32 32 29 22 16 17 14 16 17 16 15 13 9 7 5 2 1 1 4 4 6 7 11 17 21 22 21 20 21 22 22 21 20 19 18 18 18 17 16
25 34 34 32 34 28 26 22 20 17 20 19 18 17 15 12 10 7 4 4 2 3 5 6 7 10 12 16 22 19 17 19 20 21 22 21 21 20 20 20 20 20 20
14 17 26 32 34 36 30 27 19 21 19 18 17 15 14 11 9 7 5 6 6 4 5 7 11 13 14 17 18 18 20 21 21 21 22 24 25 24 22 21 22 22 23
18 15 30 28 31 33 32 26 26 22 18 18 17 15 15 11 9 8 7 9 8 7 10 11 11 12 15 18 18 18 19 20 21 21 22 23 25 24 24 23 22 23 24
11 20 24 22 29 33 20 22 21 21 19 18 17 15 12 11 9 8 7 9 11 12 15 15 14 15 18 19 18 19 20 22 24 25 26 26 27 26 24 24 23 22 23
17 17 17 25 30 25 21 19 18 16 17 18 17 14 11 8 10 8 8 10 13 14 14 16 19 20 21 21 22 22 24 27 28 29 29 28 27 28 27 24 24 21 20
28 30 21 17 15 15 14 13 17 16 17 16 14 11 10 10 11 13 13 13 10 12 18 24 25 23 22 24 25 28 30 31 31 31 31 30 29 29 28 27 26 25 23
22 21 19 17 14 11 13 16 15 13 13 14 13 11 11 12 14 17 16 15 19 20 24 27 26 25 24 25 29 31 33 34 35 36 33 30 29 30 30 30 29 30 28
18 18 14 13 12 10 9 11 10 9 10 12 13 13 12 12 16 18 19 21 23 24 25 27 26 23 24 27 30 33 35 38 39 37 34 34 33 32 32 31 31 31 31
8 12 13 13 13 11 8 7 8 9 11 12 13 13 14 14 19 17 21 23 24 27 28 28 27 26 28 30 33 35 37 40 40 37 35 34 34 34 35 35 35 34 35
10 11 13 14 14 13 12 10 9 8 8 9 11 13 15 17 20 21 23 24 26 29 27 24 26 29 32 33 34 35 37 39 39 38 37 37 37 37 37 38 39 40 41
14 13 14 15 14 13 12 9 7 7 9 9 12 13 15 19 22 24 24 23 27 24 22 25 30 33 34 35 36 37 39 38 37 38 38 38 37 37 38 40 41 42 44
17 17 16 14 12 11 10 7 4 5 7 10 12 15 17 21 23 25 23 22 20 22 25 29 33 33 36 36 36 39 39 37 37 36 36 36 36 37 39 41 43 44 47
12 11 9 9 7 6 4 4 6 8 11 12 15 17 18 20 21 21 21 21 23 27 30 34 33 35 36 35 37 38 38 38 37 35 35 36 36 37 39 42 43 45 47
12 10 9 8 8 8 8 10 11 12 14 16 16 15 18 19 20 21 22 23 27 31 33 36 35 37 37 37 38 40 41 38 37 35 36 37 37 38 39 41 43 43 45
10 8 9 9 10 12 13 15 14 14 17 16 16 17 19 18 20 21 22 24 29 30 31 31 38 42 39 37 41 40 43 42 42 38 37 39 41 41 41 42 42 42 43
1 5 10 11 14 17 20 20 19 17 18 15 19 21 18 18 19 22 26 28 27 29 32 37 40 36 36 42 41 39 40 43 46 47 44 42 41 40 40 41 40 40 42
10 11 11 14 17 17 22 24 22 22 17 19 19 20 19 20 23 25 26 32 33 27 32 37 38 37 41 39 39 42 42 43 43 44 47 47 45 38 37 39 37 36 36
17 16 18 19 19 20 20 21 26 24 19 18 19 18 21 24 26 31 34 38 42 32 38 43 43 42 40 40 41 43 45 45 43 43 44 43 43 45 40 37 34 32 32

GFSSE_700_spd_054.txt.gz
Wind_Speed
21 24 28 29 29 28 26 25 23 21 19 17 13 7 3 5 5 4 4 3 3 4 6 7 7 7 7 8 7 7 7 6 6 7 9 10 11 11 11 9 8 7 6
17 25 31 30 31 29 26 25 23 20 18 17 12 7 4 5 4 3 4 4 4 4 5 5 6 7 7 7 7 8 7 8 9 11 12 12 13 12 12 11 10 9 8
19 26 30 33 32 31 28 26 23 19 20 15 10 6 6 7 6 5 4 3 3 3 5 8 9 9 10 10 10 11 12 12 12 13 14 14 14 13 14 14 13 12 10
19 26 32 35 35 33 31 28 20 22 18 15 11 8 8 8 8 6 4 3 3 5 7 8 10 11 12 13 14 15 16 16 16 16 16 15 15 15 15 14 14 14 13
25 30 36 36 39 36 33 31 22 24 19 14 11 8 10 10 9 7 5 4 4 6 7 8 10 12 13 15 17 18 19 18 18 17 17 17 17 15 14 15 14 14 14
23 28 35 40 40 38 35 31 27 22 17 14 8 8 11 11 10 8 6 4 4 6 7 10 12 14 17 19 21 23 23 21 20 19 18 17 17 17 16 15 15 14 14
20 28 35 40 44 41 37 28 24 20 17 10 10 13 13 13 10 9 7 4 5 6 8 9 11 14 16 18 21 23 22 21 20 20 20 19 19 18 17 17 15 15 15
20 26 38 39 46 45 37 30 22 19 15 11 14 17 16 13 11 8 6 5 3 5 7 8 11 14 16 17 20 21 20 19 19 19 19 18 18 18 18 17 17 16 16
19 26 31 25 28 36 36 24 20 20 18 19 19 18 15 12 10 7 4 1 3 4 6 10 12 12 13 16 20 19 18 19 19 20 20 19 19 19 18 18 18 18 19
18 21 21 28 30 34 34 30 26 24 22 23 21 18 16 14 10 6 2 1 3 5 7 10 9 12 14 17 17 17 18 19 21 22 22 21 19 19 18 18 18 18 18
14 27 21 8 16 27 38 33 33 29 25 23 22 20 17 12 8 4 2 2 5 8 8 8 11 14 18 19 17 15 17 20 21 22 23 25 23 20 18 17 18 18 19
12 16 22 20 28 27 36 34 30 28 25 20 20 19 16 10 7 3 3 6 7 8 9 10 14 19 18 19 18 19 20 23 24 26 28 29 29 25 21 19 16 16 17
8 7 19 25 20 22 32 28 28 25 23 21 18 15 11 7 4 3 6 8 9 10 8 14 19 20 19 18 19 20 22 25 27 29 32 32 30 29 24 22 18 17 17
15 16 15 30 29 30 33 29 23 20 19 17 14 12 8 6 4 6 9 11 13 12 14 17 20 21 20 19 21 24 25 27 28 31 34 34 32 32 30 27 25 21 22
32 26 26 30 29 25 22 20 18 16 16 15 13 10 9 7 6 9 12 13 15 19 22 23 24 23 21 22 25 28 29 29 30 32 34 32 31 31 31 31 30 28 26
22 18 20 20 18 17 16 17 16 16 15 13 11 11 10 8 10 12 14 17 18 19 21 23 24 21 21 25 29 31 32 32 32 34 35 33 33 32 32 32 31 31 29
14 13 13 15 16 16 17 16 15 14 13 13 13 11 11 12 14 14 16 17 19 21 22 25 20 21 24 28 31 33 34 35 36 38 36 36 36 35 34 34 33 33 33
13 14 14 15 15 17 17 15 14 12 11 11 11 13 14 14 15 17 19 21 21 22 22 19 20 24 27 30 31 34 34 36 39 39 38 37 37 38 37 37 36 37 38
13 13 15 16 17 17 16 15 14 12 10 10 11 13 14 15 16 18 21 21 21 20 18 20 24 27 30 32 32 33 34 37 38 39 39 40 39 39 39 39 40 40 41
18 18 18 17 16 15 14 12 10 7 5 7 10 12 14 15 16 19 21 21 20 18 20 23 28 33 35 36 35 38 38 39 39 41 40 40 41 41 41 41 41 42 44
18 18 17 16 14 13 10 7 6 4 5 7 9 13 15 15 16 19 20 20 20 21 23 27 31 35 38 37 39 43 44 41 43 42 42 42 43 43 42 43 44 44 44
16 14 13 11 10 11 9 8 8 8 8 10 11 12 14 15 17 19 20 21 22 24 26 30 33 35 33 35 41 38 40 42 45 44 43 44 44 44 44 45 46 46 45
12 9 7 7 8 9 10 11 11 11 10 11 12 12 13 16 19 20 21 22 25 27 28 32 34 36 40 39 38 40 44 43 47 46 45 46 45 46 45 47 47 46 46
10 11 9 10 10 11 13 14 17 16 15 14 15 14 16 20 20 21 23 25 24 26 28 33 35 28 36 38 43 43 43 45 50 50 49 48 47 46 45 45 46 45 46
11 8 6 9 12 12 14 15 17 19 19 19 21 18 18 21 22 24 25 28 32 34 36 39 44 51 48 49 40 42 45 47 45 47 52 52 52 51 45 39 41 42 41
12 10 10 12 15 17 17 17 14 15 21 24 25 21 20 23 24 28 31 33 36 39 39 46 37 40 46 50 48 47 47 46 45 48 52 52 51 50 46 41 39 38 36

GFSSE_700_spd_060.txt.gz
Wind_Speed
12 15 19 22 24 22 21 19 17 15 12 10 7 4 1 5 8 9 9 10 10 10 9 9 10 10 10 10 11 12 12 11 11 11 11 10 9 8 7 6 5 3 3
17 17 20 23 25 23 23 21 19 17 15 11 9 5 2 6 7 8 10 10 10 9 9 9 10 10 12 13 13 13 12 12 12 11 10 10 9 8 7 5 5 4 4
17 20 24 26 28 27 25 23 20 18 17 14 11 7 5 6 8 9 11 10 9 9 10 11 11 12 13 14 14 15 14 14 13 13 13 11 10 8 7 6 5 5 5
21 23 29 31 31 28 25 23 21 20 18 16 12 8 6 8 10 12 11 11 10 10 11 12 12 12 13 13 14 14 14 14 14 13 13 12 11 10 9 7 6 6 5
17 27 33 32 31 28 26 25 24 22 20 18 15 12 11 12 13 13 13 12 12 11 11 11 11 12 12 13 14 14 14 14 13 14 13 13 13 12 11 10 9 8 7
25 32 31 35 32 31 29 28 25 23 21 20 17 15 13 14 14 14 14 13 11 10 10 10 10 12 13 15 16 15 15 14 15 13 13 14 14 14 13 13 12 10 9
27 36 36 37 38 35 32 28 26 24 22 20 17 15 14 15 15 15 14 11 10 9 9 9 10 12 13 16 17 17 16 15 14 14 14 13 13 13 14 14 13 12 11
26 16 29 27 33 36 38 37 33 26 23 20 19 17 16 17 17 15 13 11 9 8 8 8 9 10 11 15 16 15 12 12 12 12 12 12 14 14 15 15 15 14 13
14 12 28 27 37 42 39 38 34 29 22 22 20 17 18 18 16 13 10 8 6 6 6 6 7 8 13 15 14 11 10 12 13 13 13 14 14 13 13 14 15 15 16
14 15 19 23 19 25 17 13 28 24 24 23 21 19 18 18 15 12 8 6 4 3 4 5 7 11 13 14 12 11 11 12 14 14 13 14 15 16 15 15 15 16 16
15 15 14 19 18 21 18 15 15 29 26 25 22 22 21 18 14 10 7 5 3 2 3 6 6 10 11 12 11 11 12 14 15 15 16 16 17 19 17 15 16 16 17
10 18 19 21 22 22 23 11 26 40 34 35 28 24 19 16 12 8 6 3 1 3 5 5 9 11 13 13 11 10 12 14 15 16 17 19 18 19 19 18 17 17 17
8 10 14 17 16 14 16 15 35 46 40 37 34 23 19 13 10 7 3 1 3 5 5 8 10 12 13 12 10 10 12 14 16 18 19 21 23 22 22 21 21 21 20
15 18 14 20 14 13 16 25 40 39 31 29 24 21 17 15 10 8 5 3 4 7 9 10 12 15 13 10 9 11 15 15 18 21 24 24 24 24 26 27 25 22 21
14 14 13 16 15 19 28 25 30 34 28 23 23 22 19 13 11 8 6 5 7 8 10 12 13 13 9 9 12 15 17 18 20 21 23 26 28 31 31 30 28 27 26
10 14 14 23 34 32 33 38 33 27 24 24 23 20 16 15 13 10 9 8 7 9 11 11 11 9 10 12 15 17 19 20 21 23 27 28 29 29 28 30 32 32 32
16 19 23 34 29 32 24 25 26 26 25 24 22 21 17 15 13 11 10 9 8 12 12 10 9 11 12 15 17 19 21 22 22 23 26 29 28 27 30 31 32 33 35
20 28 29 26 23 24 26 26 24 24 25 24 22 19 18 17 15 12 11 11 13 13 12 10 11 12 15 17 19 21 23 23 23 24 24 28 30 32 33 35 36 36 37
17 19 20 21 22 22 21 23 24 23 23 23 22 20 19 18 16 14 13 13 14 15 13 12 12 14 16 19 21 24 26 25 22 26 31 34 31 29 32 38 36 36 38
17 18 19 18 18 20 23 23 23 23 23 22 21 20 18 17 16 15 15 14 17 17 14 14 15 17 20 21 24 28 28 21 29 40 38 37 36 31 37 37 38 40 41
18 18 18 20 22 23 23 23 22 20 18 15 16 17 19 19 17 17 15 17 19 18 17 17 19 21 22 22 25 30 32 33 39 33 37 37 35 37 40 38 38 39 43
17 17 18 17 17 16 16 16 16 15 15 16 17 16 17 17 18 18 19 20 20 20 19 20 21 23 24 26 31 34 36 40 39 35 35 36 36 41 42 39 39 42 43
18 18 18 17 17 17 17 18 18 18 17 16 15 13 16 18 19 22 22 21 21 22 21 22 23 25 30 31 33 35 35 33 36 43 43 37 37 38 39 40 43 42 42
19 19 19 19 19 19 20 20 19 18 17 16 16 16 17 20 22 23 24 22 24 24 23 25 27 30 31 37 39 37 34 31 36 37 41 45 42 39 41 39 39 40 39
23 22 21 19 20 20 20 20 20 20 19 20 21 23 24 24 26 26 26 28 27 26 27 29 30 33 32 36 48 38 34 40 38 35 38 36 41 44 43 37 36 38 40
23 24 23 21 20 19 18 19 19 20 22 21 23 25 28 28 30 30 30 31 29 30 29 30 30 35 38 34 40 31 39 34 35 39 39 38 39 37 39 37 37 37 38

GFSSE_700_spd_063.txt.gz
Wind_Speed
19 12 17 20 22 22 22 22 20 17 13 10 7 4 5 8 11 11 12 13 12 11 11 11 12 12 12 11 11 11 11 10 10 9 8 8 7 6 5 3 2 2 3
21 20 17 21 23 24 25 23 21 18 14 11 7 5 6 7 9 11 13 13 12 12 12 13 14 15 14 13 12 12 12 12 12 11 10 10 8 7 6 5 5 4 4
23 18 19 22 23 26 25 23 21 17 14 12 9 6 6 8 9 12 14 13 13 13 14 15 16 15 14 13 12 13 13 13 13 12 12 10 9 8 7 7 6 6 5
17 20 25 24 27 27 25 23 20 18 16 14 10 8 7 10 11 13 13 14 15 16 16 15 14 13 12 12 12 12 12 12 11 11 10 9 9 8 7 7 7 7 6
20 21 26 23 26 27 26 23 22 20 18 15 12 10 10 11 13 13 14 14 15 15 14 14 13 13 13 13 13 12 12 11 9 12 10 9 8 7 7 7 6 5 5
28 26 28 30 33 31 29 27 24 21 19 16 14 12 12 15 16 15 15 15 16 14 14 13 12 13 13 14 14 13 12 11 12 10 10 10 9 8 8 7 6 5 5
32 27 35 35 38 37 34 30 28 25 21 19 17 15 15 17 17 16 16 15 14 13 12 11 10 11 11 13 13 11 11 11 11 11 11 11 11 12 12 11 10 9 9
22 26 10 40 39 41 40 37 35 30 26 22 20 17 19 19 17 17 15 13 12 11 9 9 8 8 10 11 11 11 10 10 11 11 11 13 15 14 13 12 12 12 11
22 23 12 24 35 43 40 38 34 31 30 24 21 20 20 17 18 16 14 11 10 8 7 6 6 7 9 10 11 11 8 9 9 10 12 12 14 16 15 15 15 15 15
14 18 9 16 13 26 23 29 24 33 26 22 21 21 20 21 18 15 12 9 8 6 5 5 5 6 7 10 12 9 7 7 11 12 12 13 13 14 15 14 15 15 16
9 8 15 17 14 20 28 5 5 24 35 29 25 24 23 23 20 14 10 7 5 4 3 2 3 6 9 13 10 7 7 10 10 11 12 12 13 13 13 15 15 15 16
8 8 14 19 13 18 27 21 16 15 39 37 32 30 29 23 17 12 9 7 4 2 1 1 5 10 15 14 8 6 8 9 10 11 13 14 13 14 15 16 19 18 17
6 9 15 13 20 19 21 21 15 33 41 35 31 34 25 20 17 12 9 6 4 1 2 6 11 14 14 10 6 7 8 8 9 11 13 14 16 17 17 19 19 19 18
10 10 11 19 25 22 15 14 24 38 37 33 34 30 29 19 15 11 8 6 4 2 6 9 12 11 10 6 5 6 8 9 10 10 13 17 19 19 19 18 18 19 20
10 15 15 14 14 9 11 17 37 39 36 33 38 30 21 18 13 11 9 7 4 6 8 9 10 9 6 5 7 8 9 10 13 15 13 15 17 18 20 22 21 23 23
14 17 15 13 15 14 21 31 35 36 34 36 30 24 19 17 13 12 10 7 7 7 9 9 7 7 7 8 10 11 12 12 12 15 19 18 23 25 25 24 26 28 28
7 10 18 21 22 29 26 22 23 38 38 27 23 21 20 18 16 14 12 9 10 9 11 9 9 10 10 11 12 13 13 15 16 15 19 25 24 26 27 28 29 28 28
9 17 27 29 28 25 26 29 29 26 26 24 22 20 20 19 17 14 12 14 13 12 13 12 11 11 12 13 14 14 18 19 18 14 18 29 29 35 34 28 30 34 37
20 25 25 26 25 23 26 23 23 23 22 21 21 21 21 20 18 16 16 17 15 15 15 13 13 14 14 15 16 17 16 19 21 23 30 31 26 28 30 38 35 37 36
17 19 18 18 17 19 20 20 20 20 21 22 21 22 19 19 20 20 19 19 19 18 17 15 16 16 17 17 18 21 24 27 28 31 33 31 31 33 33 31 37 40 39
17 19 16 13 14 17 19 20 20 20 21 22 21 21 21 21 21 23 22 21 21 20 19 17 17 18 19 19 22 25 31 32 34 37 33 31 34 38 37 34 36 37 38
14 16 18 18 18 18 16 17 18 19 19 19 21 22 20 21 22 23 24 24 23 24 23 20 19 20 23 22 24 26 28 33 41 42 33 34 37 32 34 41 40 37 36
16 17 17 16 17 17 17 18 18 19 19 20 20 21 21 21 22 24 25 27 25 30 27 23 21 23 27 27 26 27 33 35 40 36 36 35 39 36 39 38 37 38 40
18 18 19 18 17 17 18 19 20 20 19 19 20 20 19 23 24 27 28 28 27 30 30 27 26 27 27 34 29 31 34 35 32 32 33 38 42 40 41 38 36 36 37
18 18 18 19 20 21 21 22 21 22 21 21 22 25 23 26 25 27 31 29 31 33 34 32 30 29 31 29 33 32 33 32 34 37 33 30 32 36 39 42 40 36 35
24 23 23 23 22 22 22 22 22 21 23 24 26 23 27 30 33 32 34 34 34 35 37 36 33 35 32 30 35 29 31 27 32 30 33 34 35 34 35 38 39 38 40

GFSSE_700_spd_066.txt.gz
Wind_Speed
22 14 9 18 20 19 22 23 21 19 16 12 9 6 9 12 14 14 14 15 15 14 13 13 12 12 12 11 10 10 9 9 9 9 8 7 7 6 5 4 3 3 3
12 14 16 15 20 23 25 23 22 20 18 14 10 8 10 13 12 14 15 15 15 15 15 15 16 15 13 12 12 11 11 11 11 10 10 8 7 6 5 4 3 2 2
28 8 15 17 21 25 25 24 24 21 18 15 11 9 10 12 13 14 15 14 15 15 18 18 16 14 13 12 12 11 10 9 8 8 11 9 8 7 6 4 4 4 4
59 11 16 19 21 24 25 26 24 22 19 16 12 10 11 12 15 15 15 15 16 18 18 17 15 15 14 12 11 11 10 9 9 10 12 9 8 7 7 7 7 8 7
11 25 15 16 19 23 25 27 26 24 21 18 14 13 12 14 16 16 16 17 18 18 17 16 15 14 14 14 13 12 10 8 9 12 11 10 10 9 10 10 10 10 9
16 19 17 18 24 27 30 31 29 25 22 19 17 15 16 17 17 17 18 18 17 16 16 15 15 14 14 13 12 11 10 8 11 11 11 11 11 11 11 10 9 9 8
17 19 19 23 34 33 35 35 33 30 25 21 19 17 18 18 18 18 19 18 16 15 14 13 13 12 12 12 11 11 10 10 11 11 10 11 11 11 11 9 9 9 9
15 19 20 19 4 40 42 46 41 35 30 24 21 19 20 19 18 20 19 17 16 14 12 11 9 10 11 11 11 10 8 8 9 10 9 10 11 11 10 10 9 9 9
12 12 16 26 27 30 30 45 36 37 32 27 23 21 21 20 21 20 18 15 13 11 10 9 6 8 10 11 10 8 8 7 8 10 9 9 11 11 11 10 10 11 11
15 15 14 18 17 30 16 22 28 31 30 26 24 25 24 23 23 19 16 15 12 9 8 5 4 6 7 9 9 6 5 5 5 8 9 9 9 10 10 10 11 12 12
11 11 15 16 5 7 6 7 12 33 31 28 30 28 24 25 24 21 16 13 10 8 5 4 2 5 7 8 6 3 4 4 7 7 8 8 8 10 11 11 12 13 14
9 9 15 18 11 16 15 17 11 13 34 28 33 30 30 27 21 19 15 13 10 7 4 1 3 5 6 4 4 3 2 4 6 6 7 7 9 10 11 13 14 15 15
8 7 8 8 19 15 21 25 13 28 30 36 33 31 30 28 23 16 10 8 6 4 1 2 4 8 6 7 4 2 3 5 7 6 7 8 10 12 13 14 15 15 16
8 4 2 11 9 21 28 19 21 28 38 38 34 31 28 29 18 17 15 10 7 3 1 4 6 7 6 3 1 4 5 6 8 7 7 9 11 12 13 13 13 15 17
7 7 13 11 20 23 25 18 24 32 43 35 35 34 26 24 21 17 13 10 6 2 3 6 7 5 2 1 4 6 6 7 9 8 8 9 9 12 14 16 19 20 19
9 7 16 14 17 18 12 21 32 38 40 36 30 33 31 26 19 14 11 9 6 4 5 7 6 6 3 4 7 7 7 8 12 10 9 10 12 19 20 20 23 23 24
15 13 15 14 17 17 22 33 34 39 39 28 35 34 29 21 17 14 12 11 8 7 7 8 8 7 6 6 8 10 8 10 10 13 13 13 20 23 21 20 25 25 26
12 10 17 20 25 23 29 34 40 35 37 36 36 28 24 20 16 14 13 10 10 11 12 11 10 10 10 11 11 13 12 10 11 15 21 28 28 28 23 26 28 28 28
6 12 16 20 24 28 23 25 25 34 31 33 29 26 22 19 15 14 14 12 14 14 15 15 13 13 13 14 15 16 15 17 19 20 20 25 28 29 31 30 31 30 29
19 20 23 26 26 20 27 31 32 28 28 27 26 24 22 19 17 17 16 18 16 18 18 17 15 15 16 16 18 21 20 21 24 27 28 29 28 22 24 31 33 35 35
14 16 15 18 20 23 24 24 24 24 24 24 24 21 20 20 20 19 20 20 19 21 20 21 21 19 19 19 19 23 25 26 26 30 35 36 35 32 30 32 31 32 35
15 17 14 13 16 17 17 17 17 18 19 18 18 19 18 18 19 18 21 22 20 23 25 25 25 25 23 22 22 25 26 31 32 31 33 38 33 26 31 35 34 34 32
14 15 15 16 15 16 15 17 17 18 19 20 20 20 18 18 20 20 22 24 24 25 31 29 27 30 29 29 23 27 27 28 31 33 37 35 31 34 31 31 32 35 36
12 13 13 12 13 15 15 17 19 19 19 16 16 17 19 16 19 20 23 25 28 26 31 33 30 32 34 35 30 28 27 30 33 35 30 36 41 35 34 35 35 37 37
14 15 15 15 16 18 18 18 18 18 16 16 16 18 21 17 21 22 25 27 29 30 33 36 38 36 37 36 41 28 28 35 36 36 31 28 32 34 36 43 44 44 38
16 17 19 20 20 19 17 18 17 15 18 20 20 22 23 22 22 25 31 32 36 38 33 35 36 37 41 41 33 30 33 38 37 39 33 32 31 29 32 36 42 44 42

GFSSE_700_spd_069.txt.gz
Wind_Speed
21 21 18 19 22 25 25 26 24 22 19 17 14 12 12 14 18 19 18 17 16 15 14 14 14 13 12 11 9 9 8 8 8 8 9 8 7 5 4 3 3 2 2
17 22 18 19 26 27 29 28 25 23 21 18 15 14 15 17 18 18 18 17 16 15 15 16 16 14 12 11 10 9 10 11 10 9 10 8 7 5 4 4 3 4 5
15 16 29 25 24 29 30 29 27 26 22 19 16 16 17 17 18 19 18 17 17 17 18 18 16 14 13 11 11 9 10 11 8 7 8 8 7 7 7 7 6 6 6
25 31 29 50 34 31 30 30 29 27 24 21 18 18 18 18 20 20 19 18 18 19 19 18 16 15 13 11 9 9 9 9 8 9 10 9 9 9 10 9 9 8 7
32 34 36 46 47 35 32 29 29 28 25 22 20 20 20 20 20 19 19 19 20 19 17 17 16 15 14 12 10 10 11 9 9 11 10 10 10 9 9 9 8 8 8
21 20 21 16 31 31 36 35 34 33 31 28 24 21 20 21 21 20 20 21 19 18 17 16 16 15 13 11 8 11 13 9 9 10 10 10 10 9 8 8 8 9 8
18 16 18 16 33 31 36 38 40 37 32 28 26 24 22 22 21 22 22 21 19 18 17 16 14 11 11 9 8 8 11 8 9 9 9 10 10 10 9 9 8 9 8
15 14 15 13 23 33 29 48 45 41 35 31 27 24 23 22 21 22 22 20 19 17 15 14 12 11 10 9 8 8 11 11 7 7 8 9 9 9 9 9 9 10 10
15 14 11 18 19 27 28 49 52 50 42 33 29 26 25 25 25 25 23 21 19 16 13 10 10 12 8 7 5 4 7 11 6 6 6 7 8 9 9 9 9 10 11
15 15 14 13 16 17 20 6 24 33 38 31 30 29 29 29 28 26 24 21 17 15 13 12 10 6 5 3 3 2 3 8 6 6 7 8 8 8 8 8 9 9 9
13 13 12 12 11 8 8 18 26 28 38 32 30 31 31 31 29 26 23 21 17 13 11 9 5 3 3 4 2 1 3 5 4 5 6 6 5 4 4 5 7 9 10
12 13 10 15 14 10 5 5 25 20 31 34 32 32 31 30 29 25 22 19 15 10 6 5 1 2 4 1 3 2 2 4 1 1 2 2 3 4 5 6 8 11 12
13 10 12 13 13 13 8 8 20 19 31 39 31 34 31 29 26 21 16 13 12 6 4 3 0 3 2 3 5 3 1 1 2 3 2 1 2 4 6 9 12 13 13
11 10 9 11 16 14 12 18 14 24 37 32 39 31 29 28 22 21 19 13 10 9 4 1 2 2 1 4 3 0 4 3 4 4 3 2 3 6 8 9 10 12 14
13 11 5 10 13 21 18 22 20 35 41 36 34 33 28 26 25 21 18 16 11 7 4 1 1 1 2 2 0 3 6 4 3 4 4 6 7 8 10 14 13 12 17
10 8 13 12 17 15 19 21 20 33 34 36 34 30 31 28 27 22 22 15 11 8 3 2 3 2 2 2 3 4 7 6 4 5 7 9 11 13 16 15 13 16 18
9 10 8 13 15 21 22 16 25 32 36 38 36 30 33 31 26 19 15 13 11 7 5 3 5 4 4 4 5 6 7 9 6 6 10 12 14 17 18 15 14 17 20
11 11 12 16 13 18 16 12 30 35 40 37 35 29 33 28 22 19 15 13 12 9 8 8 7 7 6 5 8 8 8 7 13 15 14 15 17 19 18 16 15 19 22
9 13 11 13 8 18 19 29 36 36 36 31 35 37 30 24 21 17 16 14 12 11 11 11 12 12 11 11 11 12 12 12 14 17 20 20 22 22 23 20 20 22 23
16 15 14 11 10 16 21 21 27 29 36 37 34 30 25 23 20 18 17 14 14 13 14 14 16 16 16 17 16 17 17 17 19 20 19 27 31 31 29 22 22 25 27
13 19 22 23 25 26 28 31 37 37 34 32 31 27 25 22 22 19 17 16 15 15 17 17 19 20 20 21 23 23 24 23 23 24 26 26 29 27 25 26 27 27 28
9 14 17 20 21 20 20 25 27 26 25 24 24 26 23 24 21 19 18 18 17 17 21 21 22 24 25 26 28 28 29 29 26 27 31 33 35 30 28 30 28 28 26
10 11 13 14 14 14 15 16 19 21 22 23 23 23 23 23 21 17 17 20 18 19 23 23 23 26 28 33 30 33 32 35 30 30 32 35 37 36 30 28 30 32 33
10 13 14 15 15 15 16 18 20 19 20 19 19 19 20 18 18 15 13 18 19 19 23 27 27 28 29 32 39 35 36 35 33 35 35 35 41 37 31 29 32 33 35
14 14 15 14 13 14 16 15 17 19 19 19 21 21 19 16 14 15 16 20 23 22 25 26 31 36 38 41 45 37 36 38 28 32 35 34 37 41 36 34 36 36 35
15 17 17 18 18 21 21 20 18 18 20 19 19 19 17 16 14 15 17 16 22 29 32 29 30 30 33 32 40 42 36 45 35 32 37 32 33 32 38 38 36 36 38

GFSSE_700_spd_072.txt.gz
Wind_Speed
13 18 18 17 26 28 31 30 29 26 24 23 21 20 17 16 17 16 16 15 15 14 12 11 11 11 11 11 11 10 9 8 7 7 8 6 5 5 4 5 4 4 3
11 9 15 16 17 24 27 29 28 29 26 24 22 18 16 17 18 18 18 17 17 15 13 13 12 12 12 12 12 10 9 8 8 6 6 6 5 5 5 5 4 4 4
7 11 13 23 25 19 32 30 31 31 28 25 21 19 19 19 20 20 20 19 17 15 14 14 13 12 12 12 13 10 8 7 6 5 4 5 5 6 6 6 6 6 6
14 16 16 20 22 36 24 33 36 33 30 26 22 22 20 20 20 20 20 18 17 16 16 15 13 11 12 12 11 9 6 6 5 5 6 6 7 8 9 9 8 9 8
18 17 21 28 30 32 43 40 39 36 32 27 24 24 24 23 22 22 20 19 19 19 17 15 13 12 13 12 11 10 8 7 6 6 7 7 8 8 9 9 8 8 7
35 24 20 26 36 39 38 39 45 41 36 31 29 30 28 26 24 23 22 22 22 20 18 16 14 13 13 11 7 8 8 8 8 8 9 8 8 7 8 8 7 7 7
22 26 18 19 21 27 24 50 54 54 39 33 29 27 26 26 25 23 24 23 21 19 18 17 14 10 11 10 7 6 8 8 9 9 9 9 8 8 9 9 7 7 7
17 17 17 15 15 24 8 10 47 51 43 35 32 31 30 29 27 26 26 24 22 20 19 16 12 9 10 11 11 9 5 7 7 7 7 7 7 8 8 7 8 8 9
13 13 14 12 15 19 26 24 45 44 39 37 37 34 33 31 30 29 26 24 22 20 18 15 11 7 6 8 8 10 6 6 5 6 6 6 7 8 8 8 8 9 10
16 13 13 16 14 15 9 0 37 42 40 39 36 36 34 33 31 29 27 24 22 20 16 14 11 6 2 3 3 7 6 5 4 5 5 6 7 7 6 6 7 8 8
12 12 15 15 16 14 8 16 27 19 35 37 35 35 35 34 32 29 27 24 20 18 15 12 9 5 2 2 2 7 7 7 6 5 4 3 3 3 3 4 6 7 8
11 12 14 13 15 14 12 10 20 33 33 39 34 33 35 34 31 28 24 22 19 16 13 8 5 4 2 2 3 8 6 5 5 3 1 1 1 2 3 3 4 6 8
11 14 13 13 13 11 5 4 22 32 32 45 41 38 36 36 27 25 25 21 17 14 9 5 2 2 2 2 3 6 5 3 2 1 1 1 1 2 2 3 5 6 7
13 12 12 13 14 12 3 13 20 20 27 37 38 37 39 32 32 28 23 18 12 8 7 4 2 3 3 3 4 4 3 1 1 0 1 1 1 1 3 7 8 8 9
12 12 11 13 14 13 9 16 18 19 25 34 33 34 33 30 28 23 18 16 15 15 8 6 4 3 5 6 4 3 1 1 1 1 2 1 2 4 8 11 11 8 9
11 13 13 18 16 14 16 16 16 17 26 35 37 35 31 28 24 23 18 17 20 12 8 4 2 2 5 5 5 2 1 1 2 2 1 3 6 9 11 13 13 13 10
13 14 17 13 16 18 15 16 18 16 31 35 37 36 33 28 26 26 24 24 18 13 9 5 3 2 3 5 5 5 4 4 5 5 6 7 9 12 15 17 15 15 15
10 17 9 17 20 20 21 21 21 17 33 38 40 36 32 33 28 26 29 23 19 13 10 9 6 2 3 5 7 7 8 8 8 9 9 11 13 15 18 20 17 17 19
12 17 20 19 16 21 24 20 20 26 34 34 36 35 35 29 33 29 26 23 18 14 12 12 9 8 6 6 9 10 12 14 14 13 13 15 17 19 19 21 17 16 17
2 18 18 16 14 14 22 22 20 41 37 36 38 41 35 38 33 25 23 19 16 15 14 12 11 12 11 11 14 14 15 17 20 20 19 20 22 24 23 22 20 19 20
12 17 19 17 19 21 23 23 37 36 28 33 35 35 37 35 28 25 23 20 19 16 15 14 13 14 13 17 20 21 23 21 21 26 25 25 27 28 28 27 25 25 23
11 18 22 21 21 23 23 26 29 27 27 33 37 40 36 30 28 25 22 20 18 17 16 15 16 17 17 21 24 27 31 31 26 28 29 31 32 32 32 35 28 27 28
8 11 15 17 19 22 25 28 31 32 37 37 36 35 32 30 27 22 19 19 18 18 18 19 19 19 18 23 26 35 34 30 32 36 34 33 32 35 32 33 31 33 32
8 9 11 10 10 13 16 20 25 29 29 28 28 27 28 26 24 21 20 19 18 18 18 19 20 21 22 21 32 33 32 36 42 41 35 37 32 33 33 36 35 35 36
8 9 11 13 14 14 15 17 20 22 21 22 24 26 27 26 22 19 18 18 18 17 18 21 22 24 26 24 25 28 30 34 36 40 41 37 36 30 36 37 37 37 37
12 12 14 15 15 16 16 17 18 20 21 22 21 22 22 20 19 19 20 19 18 14 16 22 24 27 29 29 30 28 27 36 34 34 37 33 33 32 35 40 41 37 38

GFSSE_700_spd_075.txt.gz
Wind_Speed
7 15 15 14 16 18 17 27 22 26 24 27 26 27 22 16 13 11 12 12 11 10 9 8 8 10 11 11 11 9 8 8 7 7 7 6 6 6 6 6 6 6 6
18 18 15 17 20 23 25 29 24 28 28 30 29 24 21 18 15 13 13 13 11 10 8 9 9 11 12 10 10 9 8 8 7 6 6 5 5 5 5 5 6 5 6
12 11 16 20 26 24 26 30 31 30 31 31 29 25 21 21 18 16 16 15 14 13 11 11 12 14 11 9 10 8 7 6 5 4 3 3 3 3 4 6 7 7 7
14 18 19 25 32 29 29 26 24 32 31 31 29 25 24 23 22 20 19 17 16 14 14 13 14 14 12 9 8 7 6 4 4 3 3 4 5 6 7 8 9 8 7
20 19 21 28 25 36 38 35 32 31 35 33 30 26 26 26 24 21 20 18 17 17 16 16 15 14 13 9 7 5 5 5 5 5 6 6 7 7 8 8 7 7 6
24 19 19 24 28 30 29 31 32 32 29 35 33 28 28 24 25 23 21 20 19 18 16 17 16 14 11 9 7 6 5 6 7 7 8 7 8 7 7 8 7 6 7
23 17 23 28 30 34 44 41 38 38 38 44 32 32 31 29 27 25 24 22 22 20 17 17 17 14 10 9 7 7 7 6 7 7 7 8 8 8 8 8 8 8 7
12 18 23 24 22 32 40 38 37 37 39 46 35 34 32 29 29 26 25 24 22 20 18 19 17 13 10 9 7 7 7 7 8 8 8 8 8 8 8 8 8 8 8
10 13 19 19 17 25 11 16 28 40 46 38 38 35 33 32 29 28 28 25 22 21 19 18 15 13 11 10 6 6 7 7 8 8 8 8 8 7 7 8 8 7 7
13 12 13 11 7 17 19 19 28 34 50 41 42 41 38 33 32 32 29 26 24 20 18 16 15 12 9 9 7 5 5 6 6 6 6 6 6 5 5 5 6 6 7
11 11 11 9 12 19 16 9 6 35 44 56 45 33 35 39 37 32 29 27 23 18 14 13 14 11 7 4 9 8 8 7 6 6 5 4 3 3 4 5 5 6 7
12 11 12 14 12 19 17 13 19 36 43 37 35 39 39 38 36 32 28 24 20 17 13 9 9 6 4 1 5 9 8 7 6 5 3 3 2 3 3 3 3 4 4
13 12 12 11 11 15 15 14 13 47 37 37 42 40 40 38 35 31 26 23 20 17 12 7 3 1 1 6 7 8 8 7 6 3 2 2 3 2 2 1 1 3 4
15 14 12 12 13 12 11 8 23 34 28 41 44 41 41 39 34 29 25 19 17 16 10 3 2 2 4 6 7 7 6 5 4 3 3 3 1 1 2 4 7 9 9
13 13 12 13 13 11 8 9 16 20 38 43 49 42 43 42 39 29 22 23 17 11 7 4 5 7 5 6 6 6 4 3 3 4 4 4 2 2 5 7 9 9 10
12 13 14 15 15 11 12 11 15 16 26 38 40 47 44 32 31 28 24 19 16 10 7 8 8 5 5 6 6 3 2 3 4 4 5 3 2 4 4 7 9 11 11
12 15 15 14 13 15 16 15 16 22 21 31 36 39 37 32 28 26 21 17 15 13 13 10 5 3 4 5 5 4 4 4 4 5 5 6 7 8 10 11 14 15 15
19 14 18 18 16 20 18 15 19 23 33 37 36 35 35 32 28 24 21 16 16 16 14 11 5 4 4 4 4 5 5 5 6 7 9 9 11 12 13 14 16 16 16
11 20 20 21 21 22 21 18 21 26 38 37 36 38 37 33 29 23 21 23 20 18 15 12 9 8 7 6 7 7 8 10 11 11 13 14 16 17 17 17 18 19 20
12 19 20 18 22 21 19 26 24 29 36 38 41 38 36 32 26 27 28 26 21 19 17 14 12 12 11 11 12 12 13 14 16 16 18 19 20 22 23 22 21 23 26
1 22 25 23 22 22 25 27 23 30 37 41 41 38 34 32 32 32 27 24 24 20 17 16 17 14 14 16 18 17 19 20 21 21 21 23 25 26 28 29 28 27 25
10 14 21 23 22 21 23 26 22 26 39 38 33 37 37 36 30 32 27 25 22 20 20 21 19 18 18 19 19 21 25 27 24 27 23 24 27 29 30 33 32 30 28
9 16 19 17 16 27 24 22 25 34 37 34 35 38 39 35 34 35 28 24 23 24 23 22 20 20 20 22 22 21 25 28 28 30 29 33 31 32 31 34 33 30 32
10 12 16 18 18 20 24 28 29 29 32 28 30 34 37 36 37 32 29 25 24 23 22 22 22 23 23 24 24 22 22 27 25 29 28 31 30 33 37 34 36 32 35
8 7 8 11 14 18 21 21 23 26 28 30 34 35 35 33 30 27 25 25 25 23 23 22 24 25 26 25 28 27 28 29 27 28 29 33 34 35 37 37 36 35 35
8 9 9 7 7 8 11 15 17 18 23 27 27 28 28 27 28 25 25 24 24 25 23 23 25 26 26 26 25 30 31 27 29 29 32 30 35 29 31 33 32 33 37

GFSSE_700_spd_078.txt.gz
Wind_Speed
8 19 21 17 22 19 16 16 12 15 14 18 21 14 19 22 17 12 9 11 10 9 8 8 9 11 12 12 12 11 10 9 7 8 8 8 8 7 7 6 5 4 5
14 18 26 26 25 24 21 19 16 15 14 20 19 17 11 24 21 15 13 13 13 12 10 10 12 13 14 12 11 10 10 9 8 7 7 7 6 6 5 5 7 6 7
15 17 22 25 28 24 24 22 22 19 20 19 24 21 18 24 21 17 16 15 14 12 11 12 13 12 12 11 10 9 8 7 5 4 4 4 5 5 5 7 9 9 8
16 17 19 25 29 30 29 25 25 27 27 24 23 27 26 23 20 18 19 16 14 12 12 13 13 12 11 10 8 6 5 4 4 3 3 3 5 7 8 9 9 9 9
22 22 23 25 30 31 24 26 23 29 29 27 27 27 24 22 23 20 21 18 14 13 13 15 13 12 10 9 7 5 4 3 2 2 3 4 6 7 8 8 9 8 8
23 24 24 24 24 29 31 35 30 25 33 32 30 28 24 22 24 22 23 19 17 15 15 15 13 11 10 9 7 5 4 3 3 4 6 6 7 7 7 7 8 8 7
23 25 26 28 28 29 27 21 19 31 26 26 33 38 24 25 27 23 23 21 19 19 18 16 14 13 11 8 7 6 5 5 5 6 7 7 7 8 8 7 7 7 8
22 23 29 28 26 22 18 15 22 27 37 34 34 33 34 28 29 25 27 22 21 20 18 17 15 14 11 9 8 6 6 7 6 7 7 8 8 8 7 7 6 7 7
9 17 24 26 23 18 14 11 20 23 36 40 44 37 34 34 31 28 25 24 23 21 20 18 15 12 11 8 8 7 7 7 7 6 6 7 8 8 8 7 6 6 7
12 14 15 17 18 19 17 14 18 21 32 36 50 44 40 35 32 28 28 26 24 22 20 17 14 12 10 7 7 7 7 8 7 7 7 8 8 7 5 5 6 8 8
15 14 13 14 18 17 11 13 17 27 33 33 44 45 38 38 36 34 30 26 24 22 19 15 13 11 9 7 8 6 7 8 8 8 8 6 6 5 6 6 6 6 6
17 16 11 14 19 16 13 13 16 14 28 43 39 42 42 39 35 32 29 26 23 21 18 15 11 7 6 9 8 7 7 7 7 7 6 4 5 6 5 5 4 3 1
18 17 16 14 15 16 16 12 14 14 30 50 44 45 40 37 36 31 28 25 23 20 17 15 8 5 6 7 6 6 7 7 6 5 5 5 5 4 3 2 1 2 4
20 18 16 14 13 13 12 9 10 26 39 42 44 49 36 35 33 32 26 22 20 18 14 11 5 3 3 3 4 7 7 6 5 4 5 5 4 2 1 3 4 6 7
19 18 15 14 13 10 7 4 6 39 36 35 41 48 40 41 38 32 27 21 18 15 12 8 6 6 3 5 7 6 5 4 4 4 4 4 2 1 2 4 5 6 8
13 16 14 14 12 9 7 9 15 26 39 35 42 41 41 40 37 32 26 20 12 12 10 7 3 1 2 6 6 4 3 3 4 4 5 4 3 3 4 7 8 10 12
11 14 16 13 14 12 12 13 19 25 31 34 44 43 41 40 35 31 31 23 20 15 9 5 1 2 2 4 4 3 2 2 3 4 7 6 7 7 8 8 10 11 12
12 11 15 13 15 16 18 18 17 14 36 41 47 43 40 37 36 30 27 22 20 14 8 5 5 3 3 3 4 4 4 4 4 5 7 10 10 12 13 14 14 15 14
12 16 17 14 22 16 21 20 20 24 40 39 46 49 42 33 32 30 24 23 19 14 10 9 9 8 4 4 3 4 5 7 8 9 10 12 14 16 18 19 19 20 21
15 16 21 20 20 21 15 17 15 20 32 37 37 43 45 38 32 30 27 22 18 13 11 11 10 8 11 11 10 10 10 11 13 14 16 17 19 21 22 24 25 24 24
15 15 21 21 21 18 18 18 20 25 30 36 35 39 39 33 33 30 24 20 17 14 12 14 13 14 14 16 15 14 15 17 18 18 20 21 22 21 24 27 29 28 27
9 10 19 16 19 25 17 18 25 25 29 35 33 35 31 31 29 25 23 20 19 22 17 15 14 19 20 19 18 18 19 15 17 21 25 24 28 24 27 27 32 25 28
3 5 15 22 23 22 20 20 26 29 31 33 33 35 37 34 33 31 25 23 23 21 18 17 21 23 22 23 21 21 22 25 20 23 20 23 24 26 30 25 32 31 29
4 3 5 9 17 22 19 21 25 23 35 34 31 37 37 35 33 30 28 28 25 23 21 22 24 25 26 25 25 25 26 24 26 25 22 20 22 21 27 36 29 32 34
9 6 5 7 7 7 16 21 21 25 24 24 23 26 33 34 34 34 32 32 29 25 23 25 26 26 26 26 28 29 28 32 26 31 31 31 25 25 28 32 30 30 32
10 10 9 8 10 13 14 15 19 22 23 25 26 28 31 33 35 34 32 31 29 27 26 27 29 29 30 30 30 29 30 32 26 34 28 38 30 29 31 31 31 32 32

GFSSE_700_spd_081.txt.gz
Wind_Speed
9 17 22 22 20 17 17 17 15 14 11 14 16 14 19 12 11 12 9 8 11 11 11 10 10 11 12 13 13 12 11 10 9 8 8 8 7 7 7 7 6 6 6
13 16 22 26 24 22 18 23 19 16 12 18 19 18 19 22 16 15 12 10 11 11 10 10 11 11 12 12 11 11 10 10 9 8 8 6 6 6 6 7 8 7 8
15 17 22 27 28 25 25 25 22 18 18 19 22 19 14 15 14 16 13 11 12 12 11 11 13 14 13 13 12 10 9 9 7 6 4 5 5 6 7 8 8 9 9
15 20 21 28 33 31 30 29 28 26 25 25 25 24 18 14 15 15 14 11 13 13 12 13 14 13 12 12 11 10 8 6 4 3 3 4 5 8 9 9 10 10 10
19 25 24 23 29 31 29 31 24 17 30 33 28 27 23 22 19 16 14 12 15 14 14 14 14 13 11 10 8 7 5 5 3 4 4 5 7 9 9 9 9 9 9
15 21 26 24 25 28 27 34 29 27 41 40 32 27 25 24 24 18 13 14 16 15 16 15 13 12 10 8 7 5 4 3 3 4 6 7 8 8 8 8 8 8 8
18 21 22 23 26 26 28 32 29 29 14 34 29 26 25 22 21 18 14 15 16 16 17 15 14 12 9 7 6 5 4 4 4 5 6 7 8 8 8 9 9 8 8
20 22 25 22 24 25 24 24 27 24 25 30 31 30 26 24 21 21 18 17 18 19 17 15 13 11 10 8 6 5 5 5 5 6 6 7 9 9 9 9 8 7 6
22 21 16 20 22 25 25 25 24 25 20 30 37 37 33 26 26 22 19 19 19 19 18 16 14 13 10 8 8 7 6 6 7 7 8 7 8 8 8 7 7 7 8
21 19 18 18 19 24 24 25 23 18 17 10 35 39 37 34 29 26 23 20 21 21 19 17 15 13 11 10 8 7 6 6 7 6 7 9 9 8 6 6 7 8 7
19 19 19 19 18 9 24 30 23 19 16 18 29 43 34 35 35 28 26 23 23 21 20 17 15 11 9 7 7 6 6 6 7 7 7 7 6 5 7 7 7 6 5
18 18 18 20 23 21 19 21 19 18 19 23 37 55 44 40 32 31 29 26 25 23 20 17 13 9 6 6 4 6 7 8 7 8 7 5 6 6 7 6 5 3 2
23 18 18 19 22 19 23 19 17 22 20 27 42 46 42 45 39 37 30 28 27 24 20 17 12 9 5 6 5 6 7 7 7 8 6 6 7 6 5 5 3 3 4
22 18 16 17 17 15 17 17 17 21 27 32 45 35 41 44 37 32 32 30 26 22 17 13 10 7 6 5 6 5 6 6 7 6 7 8 8 6 4 2 3 4 4
22 10 12 14 14 17 21 14 17 18 26 37 51 40 43 39 37 33 32 29 26 21 16 12 10 5 4 4 5 7 5 6 7 8 9 8 5 3 3 4 3 4 5
19 10 12 14 16 13 12 12 10 23 35 49 42 44 42 36 32 33 31 30 23 19 15 9 5 7 7 8 8 7 6 8 8 8 8 6 5 4 4 5 7 8 9
17 10 9 13 15 13 13 9 15 34 40 36 42 43 34 34 32 32 34 31 30 21 14 13 12 8 7 8 7 6 6 7 7 7 8 7 6 6 8 9 9 10 11
16 12 8 11 13 18 12 18 27 31 30 30 47 46 37 36 36 34 33 34 21 19 19 15 11 8 7 6 6 8 7 6 5 6 8 9 10 10 12 14 14 15 16
14 12 8 12 16 13 16 23 29 31 24 29 38 52 49 38 33 33 30 17 22 24 21 15 13 10 5 5 6 7 7 6 6 7 8 11 12 14 16 18 19 20 22
14 12 14 16 17 19 17 21 28 26 29 28 44 36 38 39 33 23 25 30 30 23 17 14 11 9 10 10 8 8 8 8 9 10 12 14 17 18 19 22 22 23 25
12 13 14 16 20 19 22 21 21 30 36 35 44 44 43 37 31 29 35 32 25 17 15 13 10 8 8 12 10 12 13 14 13 14 16 19 20 20 24 26 27 27 24
9 8 17 18 17 21 22 18 15 32 38 37 48 49 52 44 38 38 32 17 16 18 17 16 11 11 12 15 15 17 17 18 14 17 17 19 19 25 26 29 25 26 24
4 6 12 18 14 21 22 17 21 36 41 40 37 31 45 46 41 36 28 26 22 21 20 16 15 14 15 18 19 22 21 21 18 22 25 21 17 18 23 28 27 29 29
1 4 2 13 16 20 24 20 24 24 32 37 33 28 39 45 40 33 28 27 25 23 20 18 18 17 22 21 24 26 25 26 25 28 27 34 22 24 23 28 29 27 32
5 4 3 6 8 18 22 21 23 22 26 22 28 28 35 41 35 33 31 29 28 24 21 21 22 23 23 26 28 28 28 30 30 32 32 31 24 30 24 25 29 33 33
9 7 6 6 6 9 21 26 27 25 24 31 26 26 30 38 39 36 34 31 28 28 28 26 26 27 26 28 29 31 33 32 30 31 32 28 30 29 31 26 34 32 28

GFSSE_700_spd_084.txt.gz
Wind_Speed
9 10 15 18 22 20 17 14 14 16 14 9 13 14 13 9 5 7 4 1 9 11 11 11 10 10 11 12 12 10 10 10 10 9 8 7 6 6 5 5 5 5 6
12 14 15 20 24 24 22 19 18 20 18 14 15 17 15 13 10 14 5 6 11 10 12 12 12 12 13 12 11 11 10 10 9 8 7 5 5 5 5 5 6 6 6
11 13 16 21 23 26 25 22 24 24 22 19 18 17 17 15 15 13 10 9 11 13 12 11 11 11 11 11 11 11 12 11 10 9 8 6 6 6 7 7 8 8 9
17 14 15 21 25 29 29 27 29 31 27 21 20 18 21 15 12 13 13 11 11 14 13 12 12 13 13 12 12 11 10 10 8 8 8 7 8 8 9 10 10 11 11
10 13 18 22 26 33 35 32 33 33 32 28 21 16 25 19 15 13 14 10 12 13 14 13 14 13 13 13 11 10 8 7 7 6 6 7 8 10 10 10 10 10 10
16 13 13 24 26 29 39 30 26 24 22 17 15 32 33 24 22 17 15 11 14 14 13 14 15 15 14 12 10 9 8 7 7 7 6 7 8 9 9 9 10 10 10
20 21 16 18 24 25 28 27 23 28 25 29 33 33 40 29 25 26 17 13 15 13 13 14 15 14 13 12 10 9 7 6 6 6 6 8 8 9 9 10 10 9 8
23 24 21 18 22 28 38 27 27 29 23 28 35 40 34 30 23 19 13 16 16 15 15 16 15 14 13 11 9 8 7 7 6 6 7 8 8 9 9 9 9 8 7
24 23 22 15 21 22 32 31 33 30 31 28 29 37 31 30 26 19 16 14 17 16 16 17 16 14 12 10 8 7 6 6 7 7 8 8 9 9 9 8 7 7 9
24 20 20 18 16 27 28 34 30 30 31 27 28 25 35 34 28 19 17 14 16 17 18 17 16 14 12 9 9 6 6 7 8 8 8 8 7 8 8 7 8 8 7
22 20 20 19 20 23 22 36 28 26 31 29 25 27 41 35 30 23 18 20 20 19 19 18 16 13 11 8 6 7 7 7 7 9 9 8 7 6 7 8 8 7 6
21 20 22 20 22 22 19 25 31 32 32 27 25 29 45 39 33 30 25 24 21 22 21 18 16 13 10 8 8 6 5 7 8 8 8 8 7 8 8 9 9 7 5
20 22 22 21 23 22 23 19 25 27 32 30 29 43 41 43 36 32 32 32 28 26 23 20 16 12 10 8 8 7 7 8 9 9 7 7 10 10 10 8 6 4 3
21 19 24 19 22 22 24 27 25 27 28 30 24 37 44 49 42 37 34 31 29 27 23 20 16 12 10 9 9 9 9 10 10 9 10 12 11 9 7 5 5 5 6
20 18 21 14 18 21 22 25 25 25 28 30 27 45 59 50 43 39 35 32 30 26 23 19 16 13 11 9 8 8 9 8 8 9 12 12 10 8 6 5 5 5 6
18 16 16 12 16 18 24 24 25 26 30 34 33 51 46 37 45 42 35 31 29 27 23 18 16 14 12 10 9 8 8 9 9 9 11 10 8 7 6 7 7 7 7
18 14 15 11 17 18 18 15 19 25 24 21 41 48 48 44 43 37 36 34 33 27 23 18 14 9 8 10 10 9 8 9 8 9 10 10 9 7 8 8 9 10 11
17 14 14 11 18 18 17 15 15 18 32 38 44 46 42 35 36 38 39 37 32 26 22 14 9 12 13 12 11 9 9 8 7 8 10 11 10 11 11 13 14 14 15
15 14 11 10 17 18 17 15 14 25 35 36 29 27 36 39 40 40 41 37 30 28 23 24 20 16 14 11 10 10 9 7 7 8 9 10 11 12 14 15 18 19 20
14 14 10 16 21 22 15 15 21 33 31 29 18 49 45 45 47 47 38 39 35 29 27 24 20 17 14 11 9 7 6 7 8 9 10 12 14 15 18 21 21 22 25
12 14 9 22 19 17 21 22 23 22 21 22 28 41 50 46 37 30 31 34 34 27 28 24 22 18 13 14 9 11 9 11 12 12 14 15 16 17 23 22 24 26 27
10 13 4 18 19 22 21 23 25 25 21 18 24 39 48 45 36 37 35 32 27 29 28 25 19 17 14 12 9 8 11 13 14 15 16 18 20 22 18 18 25 29 28
7 8 2 15 18 19 20 22 27 27 27 25 23 33 40 41 37 29 30 31 31 37 26 20 18 17 15 14 12 12 15 16 19 19 21 21 23 27 23 20 21 23 28
6 2 1 10 18 19 25 20 21 27 30 28 29 40 46 43 40 38 35 30 26 24 21 19 19 18 17 14 15 16 19 21 23 25 26 26 27 29 33 28 26 29 26
7 4 1 4 15 18 20 24 22 25 26 30 33 35 40 40 46 42 37 33 30 23 22 21 21 18 17 17 20 22 23 26 27 27 29 33 31 32 32 31 28 26 27
8 6 3 3 5 13 18 22 19 26 28 34 34 35 26 27 45 43 39 37 30 27 26 24 22 22 20 21 23 24 25 28 30 32 32 33 35 33 33 34 31 31 31

GFSSE_700_spd_087.txt.gz
Wind_Speed
13 12 11 10 15 20 20 18 14 15 15 15 13 10 10 9 7 5 3 2 5 8 10 11 11 11 10 11 10 10 10 10 10 9 9 9 8 6 5 4 4 4 5
17 17 12 13 17 21 22 21 19 18 19 19 14 12 12 13 10 8 4 3 5 7 8 9 10 11 12 12 12 11 11 11 10 9 8 7 7 7 6 6 5 5 5
17 16 10 14 18 23 26 26 23 22 23 22 17 15 15 15 13 10 6 4 5 4 8 11 10 12 12 13 13 11 12 11 11 9 7 6 6 7 6 6 6 7 7
15 13 9 14 19 25 30 27 25 26 26 27 22 19 18 18 14 11 8 7 6 6 11 11 11 10 12 11 12 13 12 10 9 8 7 7 8 7 7 8 10 10 11
13 13 13 12 20 26 31 32 30 28 30 33 29 24 19 21 17 18 11 8 8 10 11 12 13 13 13 13 13 12 10 9 8 7 7 7 9 10 11 11 11 11 10
13 14 18 16 18 24 31 36 35 37 28 40 32 26 23 26 18 16 16 8 6 9 11 13 13 13 14 14 13 12 11 10 8 7 8 9 10 11 12 12 11 10 10
16 16 18 18 20 23 31 36 37 42 40 25 28 13 14 25 26 22 20 12 11 13 14 13 13 15 15 14 13 11 9 9 8 8 9 10 10 11 11 11 11 10 9
20 19 22 19 22 24 29 31 35 31 26 32 38 15 23 30 31 25 23 18 15 15 15 15 15 16 15 13 12 11 10 9 8 8 9 10 10 11 11 10 10 9 8
25 23 24 21 22 23 26 31 31 37 37 21 21 19 28 39 38 22 25 22 16 16 16 16 16 15 14 13 12 11 10 8 10 10 10 10 11 11 10 10 9 8 9
23 24 24 21 23 23 24 27 25 28 22 22 24 19 31 36 40 23 16 22 18 17 18 18 17 15 14 14 12 12 11 9 9 9 10 11 10 11 10 8 9 9 9
24 24 23 21 21 24 26 28 28 25 28 21 13 16 17 31 29 24 22 21 20 18 19 19 17 16 14 13 14 13 13 10 10 9 10 11 11 10 10 9 10 9 8
23 25 23 22 24 25 25 25 22 26 29 32 29 23 22 26 28 27 26 25 20 20 21 20 18 17 14 12 13 12 11 12 13 12 11 10 11 11 11 11 10 9 7
23 25 22 23 26 27 26 21 19 25 32 29 30 25 18 32 28 32 30 30 25 23 23 23 20 18 15 13 12 12 12 13 11 11 11 12 11 11 11 10 8 7 5
23 23 22 23 27 23 25 24 26 15 30 32 30 29 23 32 38 37 35 32 28 25 25 25 22 18 16 15 14 12 13 12 11 10 11 12 12 11 9 8 7 6 6
24 23 21 22 24 22 21 25 26 24 22 28 27 23 26 26 43 38 39 34 30 27 27 24 20 18 15 14 13 13 11 10 9 10 12 12 11 10 9 7 6 6 5
23 21 21 21 20 18 23 22 24 29 28 28 31 30 24 35 44 41 39 33 34 32 28 24 20 18 16 14 13 12 11 11 10 11 12 11 10 9 8 7 6 6 7
22 23 23 20 18 18 22 24 22 27 32 30 30 31 29 37 49 46 42 36 33 32 29 26 22 19 16 15 13 10 9 9 9 9 10 11 10 9 9 8 9 8 10
22 22 20 20 18 20 21 20 23 24 27 28 25 27 35 58 56 56 40 37 35 32 28 26 22 19 17 14 12 10 9 8 8 9 11 11 11 10 9 11 12 12 13
21 20 19 20 19 20 20 20 21 21 21 16 21 22 38 52 54 34 46 39 31 29 27 24 21 16 13 10 12 11 10 9 9 9 9 9 10 12 12 14 15 16 16
20 18 19 20 19 17 18 18 17 15 10 19 30 43 49 47 45 43 33 33 38 39 30 24 17 18 18 16 14 12 10 9 9 9 8 9 11 13 16 18 19 20 20
19 15 17 17 15 15 17 17 15 15 19 27 29 30 37 42 38 40 41 43 43 34 27 24 24 21 20 17 13 10 9 9 9 9 10 12 15 15 13 17 21 20 19
17 13 16 12 18 16 15 16 16 20 21 20 22 19 26 36 42 50 47 45 30 27 28 26 27 26 20 18 15 8 14 11 9 10 12 14 17 19 19 23 21 22 25
15 10 11 9 18 18 19 18 24 23 22 21 15 15 39 42 49 48 43 37 35 34 28 31 30 24 20 18 16 11 11 11 12 12 13 17 19 21 24 27 25 28 32
12 9 8 8 16 19 18 23 23 23 23 19 16 12 20 35 43 42 38 36 30 34 33 31 26 21 20 19 17 14 13 13 13 14 20 20 22 23 25 29 30 31 29
11 10 7 6 14 16 17 21 23 25 19 19 21 16 21 39 39 39 40 35 34 31 31 33 26 26 23 20 18 17 17 16 17 19 23 27 29 28 30 29 33 32 34
11 12 8 5 6 15 18 21 21 27 22 25 27 23 25 39 40 41 36 34 32 31 30 27 27 25 22 22 20 19 19 20 21 24 27 27 30 34 34 36 38 38 32

GFSSE_700_spd_093.txt.gz
Wind_Speed
9 9 10 9 7 8 13 18 18 17 12 10 13 12 11 11 11 11 11 11 12 12 12 11 11 12 14 12 11 12 11 8 9 8 9 9 9 9 9 10 10 9 8
11 15 18 19 13 13 14 17 20 18 15 13 14 14 12 13 11 10 9 9 9 10 10 11 12 13 12 12 12 11 10 10 9 10 10 10 10 9 8 9 9 9 9
18 17 20 20 14 16 16 19 21 23 20 16 15 16 13 15 14 12 10 8 9 12 12 13 13 12 11 11 13 12 11 10 10 9 10 9 9 8 8 8 8 9 9
23 22 18 13 12 15 17 17 22 26 24 18 18 19 16 18 18 17 14 11 10 13 13 12 11 11 12 12 13 11 10 10 10 11 11 10 9 9 9 9 10 11 11
22 18 15 13 12 12 17 19 20 24 27 26 25 29 26 23 22 20 19 15 13 13 15 14 12 12 13 14 13 14 14 14 14 13 12 11 9 8 9 11 13 12 12
20 15 13 13 13 13 13 18 22 24 26 31 31 31 32 26 26 30 22 18 16 14 16 16 14 13 14 13 13 14 14 12 12 11 10 11 10 11 14 15 15 14 12
18 16 16 16 16 17 17 17 21 23 26 31 35 34 35 30 21 33 32 22 16 14 16 17 16 16 13 12 15 15 13 12 12 13 14 13 13 14 15 15 14 13 13
14 15 17 17 17 18 21 21 21 23 26 30 36 32 33 34 21 35 24 28 19 14 17 17 19 17 14 16 13 16 15 12 12 15 14 14 15 15 15 15 14 13 11
17 20 19 20 20 20 22 21 20 21 25 29 30 31 32 33 39 30 30 25 24 23 17 17 17 17 17 16 16 16 13 10 13 14 15 15 16 16 15 14 13 12 10
22 24 23 21 22 21 21 18 18 20 23 25 28 30 29 38 26 33 28 26 22 22 19 18 19 19 19 20 18 16 12 13 12 14 15 16 16 16 15 13 12 10 11
25 23 23 23 22 23 19 16 19 22 23 25 26 30 28 23 24 23 25 26 26 24 25 22 17 21 19 19 18 16 14 13 15 16 16 15 15 15 13 12 11 11 11
20 20 20 22 22 23 17 17 18 24 24 22 24 22 20 13 16 25 32 34 35 27 26 27 27 24 23 22 20 19 12 14 16 16 16 16 16 15 13 12 11 11 11
22 17 18 21 22 20 20 19 22 26 22 20 19 14 21 14 12 31 34 31 33 29 27 29 28 27 26 24 22 18 14 16 17 18 17 15 15 14 13 13 13 12 11
23 22 18 21 23 21 21 20 25 19 19 17 16 20 16 13 14 30 43 34 32 32 30 28 27 27 25 23 21 16 15 17 18 18 16 15 14 13 13 13 12 11 10
27 25 23 21 25 22 21 21 21 14 19 15 13 22 17 20 14 30 35 34 32 30 29 29 28 28 26 23 21 17 15 18 17 16 15 14 13 13 13 12 11 10 8
29 28 23 21 23 24 22 19 16 17 18 20 16 18 21 12 13 33 30 35 32 29 30 30 29 28 26 24 22 17 16 17 17 16 15 14 14 13 12 11 10 9 6
24 23 19 19 22 23 19 18 16 15 22 21 18 12 20 12 13 38 23 35 33 32 34 32 31 30 28 26 24 19 18 16 15 16 15 14 13 12 12 11 10 7 4
22 21 19 19 22 21 18 19 18 16 21 23 26 23 20 21 21 25 28 27 36 38 36 35 32 30 27 27 25 21 17 15 14 14 15 15 14 13 12 10 7 5 4
22 19 17 20 21 20 18 19 21 20 24 25 24 23 23 29 22 26 25 36 44 42 35 35 34 30 28 27 23 19 17 16 15 14 14 14 15 13 11 8 7 5 4
20 18 17 20 20 17 22 22 19 21 23 25 24 25 25 30 24 28 28 44 44 40 39 38 32 29 27 25 23 20 17 14 12 12 13 14 13 12 11 8 6 6 6
18 17 18 20 19 18 20 16 16 17 19 21 23 25 28 31 35 35 40 52 47 45 42 37 32 31 31 28 25 21 12 10 15 16 16 14 12 10 9 8 8 8 10
18 17 18 19 17 18 14 7 5 8 14 17 18 20 21 24 24 32 55 50 43 51 42 38 40 37 40 34 27 23 22 20 18 14 12 13 12 11 11 9 10 11 11
19 18 18 18 15 16 11 6 9 11 13 18 19 21 18 24 28 36 58 53 51 50 45 42 43 41 32 35 26 20 24 20 18 16 14 12 11 10 11 10 11 13 14
19 19 18 17 14 13 11 6 11 9 11 12 6 6 26 37 48 61 59 52 41 50 47 51 48 34 31 25 24 26 23 18 18 18 16 12 11 11 12 13 14 16 17
21 19 18 16 12 11 11 9 11 13 14 9 9 13 25 37 47 49 51 42 38 43 54 50 33 31 29 27 30 27 23 17 15 12 11 10 11 11 13 14 17 18 20
22 20 18 14 11 8 10 8 10 13 12 12 14 19 14 31 33 40 45 43 40 29 38 38 34 30 30 27 29 29 24 20 16 14 13 13 15 15 17 18 19 23 26

GFSSE_700_spd_096.txt.gz
Wind_Speed
5 5 7 10 10 9 9 15 16 17 17 12 12 13 13 12 11 11 12 14 15 14 14 12 13 14 15 14 14 13 11 7 8 8 10 11 11 10 10 11 10 9 9
7 13 17 16 11 11 13 15 18 19 19 15 14 14 14 14 13 12 11 12 14 14 14 13 14 16 17 15 14 13 12 9 9 9 10 12 12 11 11 11 11 9 9
12 17 17 16 14 11 14 15 17 20 21 18 17 16 17 16 15 13 13 12 13 13 14 15 17 18 17 16 15 14 12 11 11 10 9 9 10 11 10 10 10 10 9
20 22 17 15 13 10 13 16 19 21 24 24 23 21 21 21 20 17 15 13 12 14 16 17 17 17 16 16 14 13 13 12 12 12 12 12 10 9 9 8 9 10 10
17 20 17 14 14 12 11 14 20 24 26 29 28 26 25 25 24 23 19 16 15 15 18 19 18 17 17 16 15 16 16 14 13 13 12 10 9 8 8 9 10 12 12
18 21 18 14 13 13 12 12 16 21 27 29 30 30 27 27 28 29 28 26 19 18 21 21 19 17 17 18 19 17 13 12 9 11 10 10 10 9 11 12 12 12 12
16 18 17 13 14 14 15 16 17 21 23 27 32 30 29 29 33 27 30 35 24 21 21 21 20 20 19 19 16 14 13 13 13 11 12 12 11 12 13 13 12 11 10
17 19 12 13 15 16 17 19 19 22 24 23 27 29 29 30 31 35 37 40 26 23 23 22 22 21 20 18 16 14 13 11 12 13 13 13 12 12 13 13 11 10 10
18 16 18 19 20 21 21 20 21 22 22 23 27 27 31 34 34 33 28 31 28 25 24 23 21 22 22 21 18 14 12 15 12 13 14 13 14 14 14 12 12 10 9
20 22 24 20 20 22 23 21 20 20 21 22 24 28 29 32 34 33 32 35 33 29 26 24 23 22 22 23 16 16 12 12 15 15 15 15 15 15 14 13 11 10 10
24 26 24 18 20 21 21 22 20 19 22 24 25 27 25 27 32 30 34 46 35 32 26 26 24 23 25 20 17 17 17 18 16 16 17 16 16 15 16 14 12 11 12
26 28 19 19 20 20 20 20 20 20 21 24 26 24 23 25 26 22 26 44 37 36 31 27 27 24 23 22 20 17 19 17 16 16 17 17 17 17 16 14 13 13 12
27 26 19 19 20 20 21 20 21 20 23 26 24 21 21 20 19 25 29 33 36 36 36 32 28 27 28 22 20 19 18 17 17 18 18 17 18 17 13 13 13 13 13
32 23 18 19 22 23 22 20 21 21 23 20 20 18 22 19 26 12 25 40 37 33 35 34 31 33 27 25 21 19 16 16 18 18 19 19 17 14 14 14 14 13 11
35 23 22 23 23 24 21 21 22 22 19 18 19 17 22 24 27 14 24 49 37 37 37 36 33 30 30 23 22 20 19 19 20 20 20 18 16 15 15 15 13 11 10
37 26 25 19 23 24 22 22 21 20 15 16 16 13 17 23 21 23 30 44 33 39 38 35 33 33 31 26 23 22 20 21 23 21 19 17 16 15 16 14 12 11 9
28 28 23 20 22 23 22 22 20 18 15 16 19 20 15 19 16 14 28 43 34 37 36 35 35 35 33 27 25 23 21 22 21 20 19 17 15 15 15 13 11 9 8
29 27 24 21 23 23 23 22 19 18 16 18 21 19 13 20 12 16 30 30 37 35 36 36 37 36 34 29 27 24 22 22 22 21 19 18 16 16 15 13 11 10 8
30 27 23 22 23 23 24 21 20 20 20 21 22 26 21 18 17 16 31 27 38 41 37 37 38 34 34 30 27 23 21 20 20 20 19 18 18 17 15 13 11 9 8
30 26 22 21 23 23 22 21 23 23 23 24 28 27 27 26 24 19 32 32 34 38 40 38 36 34 32 29 26 24 22 19 19 17 17 18 17 17 15 13 10 10 9
27 21 20 21 23 22 21 21 21 19 18 24 28 26 30 32 24 32 32 32 32 36 41 41 38 35 33 33 31 31 26 22 19 16 12 16 18 17 15 13 12 11 10
29 24 19 20 22 21 20 18 14 9 15 26 29 30 28 32 28 36 34 44 33 39 46 41 39 40 39 35 34 28 27 22 18 15 20 19 17 16 14 13 12 11 11
28 22 18 20 22 19 19 15 10 9 9 15 22 26 31 32 34 35 41 37 45 47 51 44 41 43 39 40 37 32 32 29 18 21 21 19 19 16 15 13 11 12 12
29 23 19 20 22 19 17 14 11 13 13 16 19 23 25 32 39 40 44 39 48 50 53 46 45 42 42 45 44 33 31 24 22 24 23 21 19 17 15 13 12 12 13
30 24 20 20 22 17 16 15 12 16 14 21 19 21 30 32 31 29 32 44 58 54 52 48 42 44 41 38 34 32 30 24 22 21 19 17 14 12 13 12 11 10 12
31 25 21 20 21 16 15 15 10 12 15 18 19 15 19 23 20 28 34 46 61 55 51 53 45 47 47 39 31 34 26 26 20 21 13 14 13 13 13 15 15 15 15

GFSSE_700_spd_102.txt.gz
Wind_Speed
8 7 3 5 10 14 14 9 10 12 11 12 13 15 15 13 12 12 11 10 10 11 12 11 11 11 12 11 12 12 13 11 9 8 10 11 12 12 10 10 9 8 8
7 5 6 11 15 12 9 10 11 11 11 11 14 14 16 13 12 13 14 13 11 10 11 13 13 11 12 13 13 14 12 10 10 11 12 10 11 11 10 9 7 6 6
7 9 10 15 18 13 7 8 11 12 13 14 15 17 15 15 13 13 15 15 13 13 12 13 15 14 14 15 15 14 12 11 9 10 10 10 10 10 9 8 8 6 6
10 10 15 19 19 16 7 7 9 13 15 15 15 19 19 17 16 18 17 16 15 14 14 13 14 16 16 15 16 15 14 13 9 10 9 10 9 9 8 7 7 6 7
12 12 15 17 18 17 8 7 7 11 16 17 18 20 19 19 20 20 17 19 17 16 15 15 13 14 17 19 19 16 15 12 11 11 10 9 8 7 6 6 7 7 7
11 12 14 16 19 12 6 7 8 8 12 19 22 23 25 21 22 22 23 27 21 20 17 16 14 14 17 19 20 17 15 13 13 11 10 8 6 5 5 5 6 7 8
11 14 14 14 16 9 8 7 8 9 11 13 17 23 26 25 24 30 32 16 20 22 21 17 15 15 17 21 21 17 15 14 12 11 9 8 7 6 6 6 7 7 8
11 13 13 15 16 12 12 11 13 15 16 17 17 20 24 25 26 27 27 23 21 25 24 26 14 18 19 21 20 17 16 14 14 13 11 10 8 6 7 9 11 10 10
10 13 14 15 17 18 14 15 16 17 19 20 21 22 23 24 26 27 28 27 27 29 30 25 25 21 30 24 20 18 17 17 14 12 10 9 8 8 6 11 11 11 10
12 13 15 15 17 14 12 14 17 18 18 20 22 22 24 25 26 27 30 29 29 29 30 30 29 37 38 25 21 20 18 17 16 12 11 10 11 8 10 11 11 12 10
13 15 17 15 16 13 13 16 19 19 20 21 23 24 24 26 27 28 30 29 31 31 30 30 28 32 30 26 24 21 19 18 16 15 14 12 7 10 13 12 12 11 11
17 17 17 16 17 15 15 19 19 20 22 22 23 23 23 25 27 29 28 29 31 29 29 29 18 41 31 27 26 24 22 20 18 16 17 11 10 11 14 14 13 12 11
17 19 19 17 17 15 15 20 21 21 23 24 24 24 26 29 31 28 32 30 30 28 29 34 28 40 29 28 27 25 23 21 19 20 17 14 13 17 15 14 14 13 13
17 18 21 21 19 19 17 20 23 23 24 24 23 24 27 31 31 30 29 28 32 33 32 42 40 33 30 28 26 24 22 19 20 18 17 15 18 17 16 16 14 13 13
22 22 22 23 21 22 17 19 21 23 25 25 25 24 27 28 29 26 26 31 32 38 40 46 43 38 33 29 28 24 22 21 19 18 14 13 19 16 16 14 14 14 13
23 23 24 22 20 19 18 23 24 24 25 27 27 22 24 25 23 22 25 23 24 32 45 44 41 40 33 33 31 27 25 22 19 19 15 18 19 17 16 15 13 13 13
27 24 24 23 21 20 22 24 25 25 26 27 27 23 23 21 22 19 23 26 21 32 42 36 36 36 35 29 30 28 25 23 19 18 19 21 20 19 17 16 14 13 13
31 28 26 25 23 22 24 26 25 26 27 26 25 22 24 22 23 20 24 25 24 24 35 38 40 39 34 35 30 29 27 24 17 19 22 22 20 18 17 16 15 14 12
27 26 26 26 25 26 25 27 25 26 26 24 24 26 25 24 21 19 23 26 27 35 33 42 43 41 37 32 31 27 25 20 17 21 24 24 22 20 16 15 15 14 15
26 30 30 28 26 25 26 25 24 25 25 23 25 27 28 26 22 21 20 22 28 35 47 45 45 40 34 31 32 28 25 19 20 23 24 24 21 18 16 14 15 15 15
23 20 23 24 23 23 24 21 23 24 24 23 26 27 26 24 21 26 18 20 25 30 57 52 45 38 36 38 35 32 27 25 24 25 25 23 20 18 16 19 18 15 16
28 23 20 21 27 25 24 21 23 24 24 24 26 26 25 29 28 25 21 20 16 40 44 43 43 38 39 35 36 33 32 30 27 27 28 25 23 20 18 19 16 21 20
31 25 23 20 25 23 24 21 22 24 23 23 24 22 22 29 30 31 25 28 21 34 39 40 41 40 41 40 37 34 34 32 26 25 24 24 24 22 20 20 22 22 21
28 28 25 22 25 23 25 23 23 24 23 22 22 20 18 28 31 29 29 25 31 20 26 31 37 41 38 37 37 36 32 27 24 24 24 21 20 21 21 22 24 23 21
31 28 26 26 29 26 26 23 23 24 22 23 22 21 19 25 28 28 29 26 24 34 24 32 39 40 39 39 40 38 37 31 22 24 22 22 23 20 20 25 24 22 21
29 30 26 26 31 29 25 22 23 23 22 23 20 20 20 20 31 29 28 27 30 30 36 38 39 41 40 39 37 38 38 39 30 29 27 23 25 21 23 25 24 22 21

GFSSE_700_spd_105.txt.gz
Wind_Speed
9 11 9 6 8 11 14 15 12 10 8 7 9 10 8 8 11 7 6 7 9 10 9 8 8 9 9 9 9 11 12 10 8 7 7 8 10 9 9 10 9 9 9
10 9 7 9 12 14 11 9 11 10 8 7 8 12 10 11 9 9 9 9 10 9 9 9 10 10 10 12 11 12 12 10 8 8 8 10 11 11 10 11 9 9 8
8 8 10 11 14 16 8 4 8 10 9 9 9 9 9 12 14 12 10 10 11 12 10 10 10 11 11 12 12 12 12 10 8 8 10 11 10 11 11 11 9 8 10
6 9 9 13 17 17 6 3 4 8 10 10 10 11 11 13 15 14 12 13 15 13 13 10 10 10 11 13 14 13 14 11 8 7 9 11 10 10 10 9 9 9 10
8 8 10 12 15 13 4 1 2 4 8 11 11 13 15 17 16 15 16 15 13 15 17 11 10 12 12 13 15 16 14 11 10 10 9 10 9 8 8 8 7 8 9
8 7 9 10 16 15 11 2 2 2 3 8 14 16 18 17 19 19 19 17 18 15 15 17 12 12 14 16 18 16 13 12 12 11 11 10 9 9 8 8 8 8 8
9 6 7 8 13 15 8 6 1 3 4 5 8 13 19 21 23 21 21 23 15 22 15 18 14 15 15 17 18 19 16 14 12 11 11 11 9 8 7 7 8 9 9
8 6 7 10 11 15 11 5 6 8 9 11 13 15 16 19 23 23 23 25 20 18 15 19 18 16 18 14 17 17 17 15 15 14 12 11 10 8 7 7 7 11 11
7 6 7 9 10 11 11 7 6 9 11 14 15 16 18 20 22 22 25 25 22 23 17 21 24 13 22 14 12 18 19 18 17 14 12 12 11 10 9 8 11 11 10
8 8 7 8 9 12 9 8 8 10 13 15 16 19 21 21 22 24 24 25 25 25 24 26 25 22 26 26 21 21 22 20 17 16 14 13 13 11 10 12 11 8 10
9 9 9 11 11 12 11 10 11 12 13 16 17 18 22 23 24 25 26 25 26 25 26 27 24 24 31 33 36 25 23 21 19 17 16 15 14 13 12 13 12 13 12
12 13 12 13 12 14 13 12 13 14 15 18 18 19 22 24 25 25 27 28 29 28 28 26 27 27 28 25 24 28 24 22 21 19 18 18 16 14 14 12 12 13 12
14 15 16 16 15 16 17 14 14 17 16 18 20 20 21 23 25 26 27 29 29 28 26 32 29 30 27 22 24 26 25 25 22 20 19 19 18 17 13 13 13 13 12
13 16 17 19 19 19 19 19 17 15 16 17 19 20 21 25 26 27 27 32 27 32 28 33 31 30 24 26 26 24 27 25 22 19 17 18 16 17 14 13 14 13 13
16 17 18 20 21 20 21 18 17 17 18 18 19 20 22 25 28 26 30 29 26 30 30 33 34 34 32 29 28 26 27 24 21 19 18 18 18 17 15 15 15 13 14
18 20 19 19 21 21 19 19 19 20 20 19 20 21 22 23 25 27 24 29 27 28 37 38 40 41 35 37 29 29 28 23 21 21 21 20 20 17 15 17 16 16 17
25 23 26 23 23 23 20 21 21 23 22 21 22 22 22 21 21 24 23 23 28 25 31 38 42 44 38 39 31 31 29 26 23 21 20 23 23 16 20 20 19 18 18
29 28 27 29 27 24 22 23 23 25 25 23 23 22 20 19 20 20 22 20 27 26 25 28 43 48 43 43 34 35 31 27 23 22 21 22 19 19 21 20 19 18 17
29 28 31 30 30 25 23 25 24 26 25 24 24 22 21 20 23 22 24 20 24 29 19 34 43 42 40 37 35 32 30 26 23 23 25 23 20 21 21 19 19 18 17
31 28 28 27 29 27 24 25 25 25 24 23 24 22 22 22 23 19 24 21 21 22 22 33 35 34 40 35 36 32 31 28 26 24 25 24 24 24 22 20 18 17 16
31 29 31 29 34 31 25 23 22 23 23 23 24 22 22 22 22 21 23 25 26 25 26 37 33 29 42 41 39 37 33 29 27 26 28 26 26 25 25 24 16 14 15
31 31 31 27 25 26 28 24 24 24 23 23 24 22 22 20 20 22 26 29 22 21 31 41 42 36 50 49 41 35 35 33 30 28 27 26 27 27 27 23 21 21 19
34 33 34 31 26 28 26 26 25 24 21 23 24 22 21 21 20 20 28 26 27 25 24 32 48 44 48 49 37 37 37 36 30 27 26 29 30 28 25 22 21 21 17
37 37 35 35 32 30 26 26 26 23 22 22 24 23 23 21 20 21 26 25 21 24 15 30 49 42 42 49 43 39 33 30 28 26 26 28 29 30 28 23 23 21 19
37 37 36 36 34 29 27 27 26 24 22 23 24 23 22 20 19 20 26 28 26 19 26 20 36 37 36 47 46 38 37 30 27 24 24 23 26 26 24 23 19 21 24
34 34 38 37 35 31 28 29 26 22 21 23 23 22 21 19 19 19 28 24 27 23 30 27 19 24 30 45 39 37 35 35 33 29 22 22 22 21 22 22 20 22 27

GFSSE_700_spd_108.txt.gz
Wind_Speed
6 9 9 10 11 12 13 12 10 11 10 7 7 7 6 5 6 6 4 5 5 5 4 5 5 6 7 8 9 10 12 11 9 7 6 7 9 8 8 8 8 7 8
4 8 10 11 13 14 12 9 8 10 8 8 7 6 8 7 8 7 5 6 7 7 7 5 7 8 7 9 9 10 10 11 9 6 6 8 10 10 10 9 8 9 7
0 8 9 12 12 12 10 4 7 9 8 8 8 8 7 7 7 9 9 7 7 7 8 8 7 8 9 10 10 11 11 10 7 5 7 9 10 11 10 10 10 9 9
2 6 7 9 12 13 5 4 4 5 8 9 8 8 9 9 9 10 12 9 11 10 9 9 8 7 8 11 11 12 11 10 7 6 11 12 12 12 12 11 10 11 12
2 4 5 7 13 12 5 3 6 6 7 9 10 10 10 11 13 12 14 13 12 11 10 10 9 10 9 10 13 13 13 11 9 9 9 11 11 11 10 10 11 10 11
3 4 5 6 13 13 9 3 4 5 5 6 10 11 12 13 12 15 15 15 14 14 12 14 11 11 11 10 12 15 13 12 11 10 10 11 11 11 10 10 10 10 10
4 4 3 6 11 12 10 6 5 5 3 1 3 7 12 15 16 17 18 18 17 19 16 15 14 10 11 12 12 16 14 12 13 11 11 12 11 11 10 10 9 10 10
5 4 2 4 7 9 8 2 3 3 2 4 6 8 10 13 17 20 20 18 20 21 20 14 15 11 7 12 13 14 16 14 12 14 14 14 14 12 11 11 10 11 11
6 4 3 3 5 6 7 5 3 5 5 6 8 11 11 13 16 19 21 20 24 24 19 19 17 16 10 11 11 11 12 14 14 15 16 16 15 13 11 11 11 12 11
8 7 7 6 5 5 6 6 6 7 7 9 10 12 13 14 17 19 21 23 24 23 20 19 16 18 17 19 15 12 11 13 18 17 18 17 16 14 12 10 12 13 13
10 9 9 10 10 8 8 8 9 10 10 11 13 13 14 16 18 19 21 23 24 22 21 22 22 23 23 24 24 18 18 16 19 19 22 17 16 15 13 13 14 14 15
12 13 13 12 12 13 12 11 10 13 14 15 15 15 16 17 19 21 23 25 25 25 26 26 24 23 23 26 28 24 25 23 23 23 23 20 19 16 14 14 14 15 12
16 17 15 15 16 17 16 15 12 12 15 16 18 17 16 18 20 22 23 26 27 30 30 29 27 26 25 31 32 22 32 29 26 25 23 23 20 17 17 17 15 13 13
19 19 19 19 19 20 20 18 17 15 13 13 16 17 17 18 20 22 22 26 29 31 30 30 30 26 29 29 30 24 19 24 27 27 24 22 20 17 18 19 17 15 13
24 21 20 20 21 22 23 21 21 17 15 14 16 18 18 18 20 21 24 27 28 27 28 31 29 31 30 32 30 25 23 25 26 27 23 21 20 20 21 19 19 17 16
25 25 23 21 21 20 21 22 22 21 19 17 17 18 20 20 21 20 23 25 26 28 33 29 29 29 30 33 26 30 24 25 25 25 23 20 20 21 20 21 20 17 16
29 28 27 26 27 27 24 23 23 24 23 20 19 20 21 21 21 19 22 23 32 29 31 27 26 34 35 33 34 26 26 27 25 25 23 21 21 22 22 23 20 18 18
32 31 29 29 29 29 30 27 26 26 25 23 21 21 23 22 20 19 20 23 27 28 30 31 31 30 33 43 36 32 28 29 27 26 26 24 24 23 26 23 21 19 20
36 35 35 34 31 30 31 32 27 27 25 25 22 22 24 23 22 22 23 24 24 24 27 33 36 31 38 42 43 35 33 32 29 28 28 27 26 25 26 24 19 20 21
34 34 35 34 32 33 34 33 30 27 24 24 21 23 25 24 23 24 23 21 26 27 28 29 24 30 42 44 41 41 36 34 33 30 28 27 28 27 27 21 22 22 21
35 35 35 35 33 32 31 31 29 25 23 22 22 24 25 24 24 24 22 21 27 27 24 24 27 25 41 48 48 45 36 33 35 30 29 30 29 28 27 25 24 24 22
33 35 36 36 35 34 33 34 32 27 26 24 25 24 24 24 24 24 22 23 29 29 24 24 23 30 34 39 41 47 43 37 34 33 29 31 31 32 28 27 27 27 23
33 36 36 36 37 36 34 31 33 32 30 27 23 22 24 25 25 24 23 26 30 29 24 27 27 34 36 32 45 45 47 45 35 31 31 32 31 31 31 31 30 26 21
30 33 37 38 39 38 36 30 30 31 29 25 24 24 25 25 26 26 24 24 32 30 31 31 31 35 41 40 46 42 42 38 33 33 31 31 33 33 32 31 30 26 25
26 31 34 35 40 39 37 31 30 31 30 29 25 25 26 25 26 27 24 25 28 33 24 27 22 36 47 45 44 48 47 37 33 30 31 32 34 33 30 28 29 28 27
26 29 32 35 38 39 38 34 32 32 31 28 26 26 27 26 27 26 22 22 29 26 25 24 21 24 49 43 39 52 48 44 37 30 30 25 26 29 29 32 29 29 27

GFSSE_700_spd_114.txt.gz
Wind_Speed
7 11 13 7 6 7 10 12 14 15 11 10 10 9 10 10 9 5 3 4 5 5 4 2 1 1 2 2 3 3 4 4 4 3 4 7 5 5 6 5 5 4 3
7 12 13 7 6 10 13 16 16 15 11 9 10 10 10 11 9 7 4 2 2 2 3 3 2 1 2 3 3 3 4 6 6 5 7 8 6 6 5 5 5 4 4
7 13 8 8 9 11 12 13 13 11 10 10 10 10 11 10 9 7 4 1 1 1 3 2 2 3 2 3 3 4 5 6 7 8 8 6 7 7 7 6 6 6 4
10 15 8 9 9 8 8 6 6 8 10 11 10 11 10 10 7 6 4 2 4 4 4 3 2 2 2 3 4 4 7 8 8 8 7 7 8 8 7 6 6 5 5
11 10 7 8 8 7 3 3 7 9 11 12 11 11 10 8 6 7 5 4 4 6 6 6 5 4 2 3 4 6 7 8 8 9 8 9 10 9 9 8 7 7 7
9 6 6 6 6 6 6 4 6 8 11 12 13 11 10 9 8 8 7 8 8 6 7 7 6 6 9 5 3 6 7 9 9 8 8 6 8 12 9 9 10 9 10
8 5 6 5 4 5 7 8 7 8 9 9 10 10 8 9 10 10 9 9 11 8 9 8 10 12 8 5 4 6 7 11 9 9 13 5 9 10 11 10 9 11 11
8 7 5 3 1 4 7 7 7 7 8 7 7 7 8 8 11 11 11 12 13 13 10 10 11 12 9 11 8 7 9 11 9 13 14 8 11 12 11 11 13 11 11
10 8 7 5 3 3 6 5 4 4 5 5 6 6 8 11 11 12 11 13 13 12 13 13 13 14 12 14 13 11 12 13 11 19 10 12 14 13 13 13 12 12 11
14 11 10 9 6 3 2 3 2 2 3 5 6 7 8 11 11 12 13 14 15 15 16 16 16 17 16 18 16 15 17 16 18 10 15 14 16 14 13 12 12 12 11
19 15 14 13 10 7 5 4 1 1 4 6 7 8 8 10 11 12 14 14 15 17 17 18 18 18 15 14 12 14 15 17 19 19 17 15 17 16 14 13 13 13 13
22 18 18 15 13 11 10 9 7 5 5 7 10 11 12 12 13 13 15 16 17 19 20 19 19 19 18 18 18 18 19 17 18 27 18 17 18 18 16 15 13 13 14
24 22 22 19 17 15 15 12 12 10 9 8 10 11 13 14 15 16 17 15 17 20 20 19 20 22 21 19 21 20 20 20 22 27 12 18 19 20 19 17 15 15 15
25 26 25 22 21 19 19 17 15 16 13 11 10 10 11 13 14 15 17 18 19 21 22 21 21 24 24 22 24 22 21 23 27 30 37 29 23 22 20 19 17 17 17
25 25 27 25 23 22 23 21 21 15 17 16 13 12 12 12 13 14 17 19 19 22 22 25 23 23 25 24 25 27 24 26 30 24 23 25 25 24 21 20 19 19 19
25 27 29 30 25 24 24 24 23 23 18 22 17 16 16 15 14 15 17 18 20 21 23 21 20 23 25 25 25 25 28 27 32 31 19 28 24 24 22 21 19 20 20
32 29 27 32 34 25 25 25 26 27 22 23 23 22 20 19 19 16 18 18 19 21 23 22 21 25 28 25 24 24 22 26 33 23 19 28 26 22 23 22 20 20 20
29 32 31 33 38 33 28 28 26 28 29 27 24 25 24 22 21 19 20 19 19 21 24 24 25 26 30 27 30 26 26 25 22 27 27 28 23 22 24 23 22 21 22
31 25 29 35 41 39 31 31 31 29 31 31 30 26 26 24 23 20 22 21 21 22 24 25 26 29 31 32 28 30 23 26 24 25 28 27 25 25 24 23 24 24 23
29 28 30 32 37 43 37 33 34 33 33 31 31 30 27 26 23 22 22 24 23 23 25 27 28 30 32 32 26 32 29 26 28 32 32 28 27 26 24 24 24 24 24
29 37 36 33 35 42 41 36 36 36 36 32 31 32 30 29 24 24 23 25 24 24 24 28 28 32 31 26 26 29 26 33 26 32 31 32 27 27 25 25 24 24 25
36 39 43 45 43 43 41 38 36 35 37 33 31 32 34 30 27 27 25 26 25 25 25 28 30 30 30 27 30 28 27 37 38 32 33 33 29 30 28 27 25 26 26
39 39 42 41 40 40 40 41 42 42 39 35 32 32 34 31 30 29 28 27 27 27 27 28 31 26 27 24 24 22 31 41 42 38 32 34 32 28 28 27 28 29 29
32 40 44 42 39 38 41 41 45 42 38 35 35 32 36 34 32 30 31 28 28 30 29 28 30 27 29 27 33 28 28 48 45 36 32 31 30 29 28 25 28 30 30
12 18 26 28 32 36 38 41 45 42 40 37 37 36 37 38 35 31 33 30 29 31 31 30 29 29 28 25 25 25 30 46 51 38 37 33 33 32 27 28 28 30 31
12 22 28 26 28 32 34 36 41 39 39 38 37 38 36 39 36 33 33 30 31 32 33 29 29 29 25 31 27 28 27 32 54 44 42 36 34 32 25 29 33 32 30

GFSSE_700_spd_117.txt.gz
Wind_Speed
4 4 9 15 12 7 7 9 11 13 13 12 9 11 13 13 10 7 7 7 7 6 5 5 4 3 4 3 2 2 3 3 3 3 5 5 3 4 5 6 5 5 5
4 6 10 17 11 10 9 12 15 16 14 12 11 13 14 14 12 9 7 5 3 4 4 4 4 3 2 2 3 4 4 6 6 6 5 4 4 5 6 6 6 5 5
4 7 11 17 12 10 11 11 14 13 11 11 13 13 15 15 13 10 8 5 4 2 2 2 3 3 2 2 3 5 6 6 5 4 5 5 6 7 7 6 6 6 6
7 9 13 14 11 9 9 9 10 9 10 12 12 14 15 15 13 10 8 6 5 3 2 0 0 1 2 1 2 5 7 6 5 5 4 6 7 8 8 7 6 6 6
11 12 13 14 11 7 7 5 5 7 11 13 14 15 16 16 14 12 8 5 5 5 4 2 2 1 1 2 4 6 7 8 8 8 7 9 10 9 8 7 7 7 7
17 14 12 13 9 7 5 1 2 6 9 12 14 14 16 15 13 11 8 7 6 8 6 5 5 3 4 11 9 8 7 8 7 7 6 5 9 10 9 8 9 8 8
17 13 11 9 8 4 3 3 5 6 8 10 12 13 14 14 13 10 9 6 8 7 5 6 7 7 5 9 9 8 7 8 8 8 8 6 8 11 11 10 10 10 10
14 12 10 8 6 3 2 5 7 7 7 8 9 10 11 12 12 10 9 9 11 9 10 8 8 9 6 8 10 8 8 9 9 8 10 9 8 10 11 10 10 11 10
15 12 9 7 6 3 2 4 6 7 7 7 6 6 7 8 8 10 10 10 11 11 11 9 10 9 9 8 12 12 12 12 12 12 15 9 8 10 12 11 11 10 10
17 13 11 9 8 6 3 3 4 5 6 6 5 3 5 5 6 8 10 11 11 12 12 13 13 12 12 10 11 14 14 15 18 14 13 6 11 12 12 12 12 12 12
20 16 14 12 11 9 7 5 4 3 4 5 5 4 5 5 4 6 8 9 11 13 14 15 15 14 14 12 11 9 11 12 19 18 21 8 12 15 15 12 12 12 11
22 20 18 16 15 13 11 9 7 5 4 5 6 7 7 8 8 9 9 11 13 15 16 15 17 16 15 13 12 12 13 15 17 17 17 12 15 17 16 14 13 12 12
21 23 22 20 19 16 15 13 11 9 8 6 7 8 8 9 10 10 11 11 13 14 15 15 15 17 16 14 14 15 17 18 17 14 22 23 22 18 17 16 15 13 13
30 26 25 24 22 20 18 17 15 14 12 11 9 9 9 7 9 9 9 11 13 16 17 16 16 17 18 16 17 19 22 21 18 21 22 19 24 18 20 18 17 16 16
24 22 20 24 22 22 22 20 18 16 16 15 14 13 11 10 9 9 11 11 12 15 18 18 17 17 18 16 19 20 22 22 21 22 26 27 32 29 25 21 20 18 17
26 26 23 22 22 21 25 24 22 18 19 18 18 17 17 15 13 12 12 12 14 15 18 19 16 16 16 18 19 21 22 22 23 25 23 26 20 23 23 20 20 20 19
29 27 28 24 23 23 24 24 26 22 20 19 19 20 21 21 18 17 14 14 14 16 18 18 16 17 19 18 20 20 20 22 24 26 27 20 25 22 25 24 22 22 21
34 33 31 25 25 27 26 27 28 26 23 22 21 22 23 24 23 21 18 16 15 17 19 18 19 19 21 19 20 22 24 26 25 25 25 23 25 29 23 25 20 22 22
33 36 40 38 34 34 34 32 30 31 29 26 24 24 24 25 26 25 21 19 17 17 19 20 21 21 23 23 23 25 26 27 25 28 21 26 27 26 21 25 22 23 23
29 35 31 31 30 32 34 36 36 34 35 31 28 26 25 26 27 28 25 22 20 18 19 20 22 21 24 25 26 27 28 28 26 31 21 24 29 25 25 24 24 25 25
31 31 38 39 35 34 35 39 41 33 33 36 33 28 27 25 26 29 29 26 22 20 20 22 23 24 24 25 28 30 25 30 30 30 28 34 30 27 26 30 25 26 25
36 37 37 39 39 37 39 42 45 40 31 35 34 34 30 27 27 31 32 29 27 22 21 22 25 26 25 25 29 27 30 27 27 24 33 30 31 31 29 27 26 27 27
41 38 36 40 40 40 41 42 46 44 37 34 34 32 31 30 28 30 32 31 30 26 24 24 25 28 28 25 27 28 30 35 29 29 40 35 32 30 29 26 27 27 28
35 37 41 44 45 42 43 44 47 45 41 36 34 33 34 32 31 30 33 33 32 29 26 25 26 28 31 26 26 30 30 28 24 32 41 34 34 33 39 25 28 29 30
37 42 44 46 47 48 48 49 51 49 42 37 36 34 34 35 32 31 34 35 34 31 28 27 29 29 30 29 26 30 30 31 31 34 41 39 36 36 38 28 28 29 33
32 36 44 47 47 47 50 45 42 40 40 39 38 36 35 37 36 34 35 36 35 32 30 29 31 31 30 30 27 28 26 25 28 26 32 47 40 37 35 38 31 30 32

GFSSE_700_spd_123.txt.gz
Wind_Speed
10 8 6 2 4 12 11 10 11 12 13 12 12 11 12 12 11 8 7 7 6 5 5 4 4 5 6 7 7 6 5 5 5 2 3 3 3 2 1 2 3 2 3
9 8 6 1 5 10 11 10 12 13 14 14 14 13 13 14 11 9 8 7 6 5 5 5 4 5 6 7 7 6 6 6 4 3 2 2 1 3 3 3 2 2 2
12 9 4 1 6 9 11 11 12 15 16 17 16 14 15 15 13 11 11 8 5 4 6 6 6 5 6 6 6 7 8 7 6 5 5 5 3 3 5 4 4 4 4
12 6 3 2 5 8 11 11 13 15 16 15 15 15 16 15 15 13 12 9 6 6 5 6 6 6 6 6 6 6 7 7 7 7 6 6 5 5 5 5 5 5 5
9 6 4 4 5 6 9 10 12 13 12 12 14 16 17 16 16 15 14 11 10 9 6 6 6 6 6 6 5 6 6 7 7 7 5 6 5 7 6 6 5 5 5
7 4 6 5 4 6 7 8 9 10 9 10 13 15 17 16 16 16 15 13 12 10 9 8 8 7 6 7 7 8 6 6 7 7 6 7 7 7 7 7 7 7 8
7 8 9 8 5 5 6 6 6 6 5 8 11 13 15 16 17 16 16 15 13 12 10 10 7 7 7 9 9 7 5 6 7 6 7 7 9 10 10 9 8 8 10
9 8 11 10 7 5 4 4 3 3 3 6 9 12 14 16 16 17 17 17 15 13 12 10 8 9 9 10 9 8 4 4 5 6 9 8 8 10 12 11 9 12 12
11 9 9 10 8 6 4 3 2 3 4 6 9 10 12 14 14 15 15 13 12 11 12 11 10 10 10 10 8 8 7 7 6 6 8 9 10 11 11 9 11 10 11
16 13 14 12 10 7 5 5 5 5 5 7 8 9 9 10 10 11 12 11 10 9 10 11 11 10 13 13 10 12 8 8 7 5 10 12 10 14 14 8 10 11 10
21 20 16 15 13 10 8 8 7 7 7 8 8 9 9 8 9 10 10 10 10 10 9 10 12 11 13 13 11 11 10 5 4 6 7 10 9 8 15 21 14 11 12
28 25 19 15 15 12 12 11 10 9 8 8 8 8 8 9 8 9 9 9 9 9 9 10 12 13 13 14 12 13 11 10 8 8 8 9 9 11 12 13 12 13 13
26 24 19 17 16 15 16 14 12 11 10 9 9 9 10 10 10 10 10 9 9 8 9 9 10 12 13 15 15 14 14 14 11 11 10 10 11 11 12 13 14 16 15
28 23 22 20 20 17 16 18 16 14 12 11 9 8 8 9 9 9 9 9 10 8 9 10 11 13 14 16 16 18 17 17 15 14 14 15 14 14 17 17 19 21 18
31 29 25 23 23 21 18 21 19 17 15 13 12 10 9 8 10 10 9 8 10 10 9 10 11 14 16 16 18 20 19 19 18 16 15 14 15 15 19 18 18 22 19
31 28 26 25 27 26 24 24 21 18 17 17 16 13 13 12 12 12 11 9 9 9 10 10 11 13 15 17 18 19 20 21 19 17 16 15 16 15 20 21 19 25 17
33 29 27 24 30 32 29 27 24 21 20 19 19 18 17 16 15 15 16 14 12 11 11 11 11 11 13 15 16 17 18 20 19 19 18 16 18 18 23 24 27 27 23
31 32 29 26 26 21 21 22 22 21 22 23 23 23 21 20 19 19 19 18 17 16 14 12 12 11 12 14 16 17 18 19 21 22 21 20 20 21 21 22 23 27 26
32 28 29 28 24 25 27 26 26 25 25 24 21 22 24 23 23 21 21 21 22 21 18 15 15 13 12 13 16 18 19 20 23 24 24 25 23 22 22 25 24 23 25
32 29 28 30 28 28 31 32 31 31 30 28 26 26 25 25 24 24 23 23 24 24 22 19 18 17 15 14 16 18 19 21 24 26 27 27 27 24 23 25 25 25 25
39 37 37 36 33 35 35 34 34 35 34 31 29 28 25 25 27 26 25 25 26 25 25 24 23 22 20 18 18 18 21 22 24 27 29 27 29 26 23 22 23 26 24
42 41 42 43 39 38 39 39 34 30 32 33 32 29 29 25 25 28 27 27 28 27 27 27 27 25 25 23 22 22 23 24 25 24 27 30 28 24 24 27 30 35 26
43 47 49 48 45 41 40 41 37 35 34 36 37 33 28 24 23 25 28 30 30 31 30 30 30 29 28 27 26 25 27 27 25 23 25 30 26 26 26 27 27 32 30
39 38 43 45 41 47 47 43 37 37 36 38 33 30 32 29 28 27 28 33 32 33 33 30 31 32 30 31 30 28 28 29 30 29 25 23 27 29 27 31 36 27 34
44 38 41 44 41 40 39 40 44 43 39 35 36 37 38 36 33 32 34 36 38 36 35 32 32 35 33 33 32 30 31 30 32 29 36 19 24 28 30 29 31 30 27
40 41 42 40 42 42 41 40 39 44 41 40 39 40 39 40 39 39 40 41 39 39 36 35 34 35 36 35 34 33 32 32 32 29 28 28 25 28 25 30 37 30 31

GFSSE_700_spd_129.txt.gz
Wind_Speed
11 15 11 6 3 6 9 7 2 3 5 6 7 7 7 5 4 3 1 4 4 5 6 5 5 4 3 3 4 4 5 5 4 3 4 6 8 8 6 7 6 2 4
15 15 13 8 4 4 7 6 4 3 5 7 8 8 8 6 5 4 3 5 5 4 3 3 3 3 3 2 2 3 3 3 3 3 4 7 7 4 5 5 8 6 4
17 15 13 9 5 4 4 4 4 4 5 8 9 9 8 6 6 4 4 6 5 2 2 3 2 1 1 2 3 4 4 4 5 4 4 2 1 6 6 4 2 5 6
16 15 14 9 4 2 3 2 3 6 6 8 9 9 8 7 7 4 5 6 4 3 1 1 1 1 1 2 2 3 4 5 5 4 4 5 4 6 6 5 6 7 7
18 17 14 8 4 3 3 1 2 6 7 8 8 8 8 8 8 6 6 5 3 3 1 0 1 0 1 2 2 2 4 4 4 4 4 4 4 5 6 6 6 6 7
14 18 13 8 5 5 4 2 2 5 6 6 7 7 8 8 8 7 7 5 5 5 3 3 2 3 3 2 2 2 3 5 5 4 5 5 5 5 6 7 8 8 8
16 15 10 7 6 6 4 3 3 4 6 5 6 8 9 8 8 8 8 7 7 6 5 5 5 3 2 3 4 5 4 3 3 3 3 3 5 5 7 8 7 7 8
15 13 10 7 7 6 5 4 4 5 5 6 7 9 9 9 9 9 9 8 8 8 8 7 5 4 4 5 3 3 3 0 2 3 3 2 3 6 7 8 8 7 7
19 14 10 7 7 8 8 8 7 7 6 7 9 10 10 10 10 9 9 9 9 10 8 6 5 5 5 4 4 4 2 2 3 4 3 3 3 6 6 8 9 8 8
22 17 14 10 9 8 10 11 10 9 8 8 9 10 10 11 10 9 9 9 9 9 8 6 6 5 6 5 5 4 3 3 5 6 4 4 5 7 8 9 10 9 8
26 20 17 15 13 9 12 13 11 11 10 10 9 10 11 10 9 8 8 8 8 9 8 7 7 6 7 7 6 4 3 3 4 6 5 4 5 8 12 13 13 9 7
27 24 20 18 16 12 13 15 12 12 13 12 11 10 10 10 9 8 8 7 8 9 7 7 8 7 7 8 7 6 6 5 7 7 7 6 7 9 12 15 16 10 9
35 30 24 20 19 15 14 15 14 13 13 13 12 12 12 11 10 9 7 6 6 7 7 7 8 9 10 9 9 8 6 8 8 9 9 9 9 10 12 12 11 17 9
41 37 30 26 23 17 17 16 15 14 14 13 13 13 12 11 10 9 8 8 7 8 8 6 7 9 11 12 11 10 9 9 10 10 11 11 10 11 13 12 8 8 9
45 43 36 31 27 21 21 19 17 17 16 15 15 13 11 10 10 10 10 8 8 8 8 7 7 7 9 12 13 12 12 10 11 12 12 12 12 11 12 12 12 14 9
48 47 43 35 30 26 23 22 20 18 19 18 18 16 14 12 11 11 12 10 10 9 9 9 8 7 8 9 11 12 12 12 11 11 13 13 14 13 13 15 16 16 17
51 49 49 42 34 31 27 26 24 21 23 21 19 18 17 15 14 13 13 13 13 12 12 11 9 9 7 7 8 10 11 13 12 12 13 14 15 15 15 16 18 18 22
50 55 53 49 41 36 31 29 29 28 25 23 21 20 19 18 17 17 16 15 16 17 16 15 13 12 11 8 8 8 9 12 13 14 16 16 16 17 18 18 19 19 21
51 55 57 56 48 40 34 32 31 30 29 27 26 24 22 21 20 21 20 19 20 21 21 19 18 16 16 14 12 10 9 10 12 13 15 16 18 19 20 21 22 22 21
52 56 59 58 53 46 38 35 35 34 33 33 30 28 27 25 25 25 25 24 25 25 24 23 22 20 20 19 19 16 13 12 12 11 14 16 18 21 23 24 23 23 22
56 54 62 60 56 51 46 40 38 35 34 34 33 31 31 30 28 27 26 26 28 27 25 25 26 25 24 24 25 23 19 17 16 14 14 15 16 20 22 26 26 26 23
61 54 52 60 55 52 47 38 39 35 33 31 32 32 33 33 32 31 26 26 27 28 28 27 26 25 26 27 28 27 25 23 21 18 17 17 17 20 21 23 24 25 24
58 58 52 54 57 53 46 41 43 39 38 37 35 34 36 37 37 33 30 30 29 29 28 28 28 28 27 28 29 31 30 28 25 23 22 21 21 23 24 23 25 27 24
54 58 49 46 49 51 46 45 48 44 40 36 37 38 38 40 39 38 32 31 28 26 23 23 26 29 30 30 32 33 33 31 30 29 26 23 22 23 25 23 24 24 24
51 59 51 46 40 48 52 47 46 45 42 39 38 38 37 40 42 46 44 30 33 26 25 25 25 26 27 32 34 34 35 32 33 33 31 27 25 23 24 24 21 23 23
44 54 53 45 40 43 49 48 47 45 43 41 39 38 39 42 43 45 44 50 33 28 27 30 28 29 29 32 35 37 36 34 34 36 34 32 31 27 24 25 23 24 26

GFSSE_700_spd_132.txt.gz
Wind_Speed
9 12 14 8 3 2 6 6 5 3 2 1 3 3 3 4 3 3 4 6 6 5 4 4 4 3 3 4 4 4 4 4 4 3 5 7 6 7 7 7 7 7 4
16 12 15 10 6 1 2 4 4 1 1 2 4 4 4 4 2 4 2 6 6 5 4 4 3 2 2 3 2 3 2 3 3 2 1 2 7 5 6 8 6 3 4
18 13 16 12 8 3 1 2 3 0 2 4 4 5 5 5 3 4 3 5 5 4 4 3 3 2 2 2 2 3 4 4 4 4 5 3 1 5 4 4 6 4 8
18 15 16 13 10 5 4 3 2 2 3 5 6 6 7 5 5 3 4 5 4 3 4 3 3 2 2 2 2 3 3 3 4 4 5 5 4 4 6 6 4 7 8
16 17 17 13 11 6 6 5 4 4 5 6 7 7 7 6 5 4 5 5 3 4 4 3 3 2 1 1 2 2 2 2 3 4 5 6 5 7 7 6 6 6 8
15 15 17 14 11 8 7 6 5 6 6 7 8 8 8 8 7 6 5 5 2 1 2 2 1 1 2 2 2 2 3 4 4 4 5 4 6 5 7 8 6 6 7
15 16 18 15 10 10 10 7 6 7 8 8 8 9 9 9 8 7 6 5 3 1 1 1 2 2 2 2 3 3 3 4 4 5 4 4 6 5 8 9 8 7 8
20 20 19 15 12 13 12 9 8 8 8 9 10 10 10 10 9 8 7 5 5 4 3 4 3 3 4 3 2 2 1 2 5 5 4 5 5 6 8 8 8 8 9
21 23 19 17 14 15 13 11 10 9 9 10 11 12 11 11 10 9 8 7 6 5 4 4 4 4 4 2 3 3 3 4 5 4 4 4 4 7 8 9 10 10 9
24 26 21 19 17 16 14 13 13 12 11 11 12 13 13 12 11 11 10 8 7 6 5 4 4 5 5 4 4 4 4 5 6 7 5 5 4 6 10 9 10 11 10
28 30 27 23 21 18 15 16 16 14 13 13 14 15 16 15 14 13 10 9 8 8 6 5 4 6 7 7 6 6 4 6 6 6 6 5 4 7 9 10 11 11 11
34 33 33 29 25 21 16 17 17 15 16 15 15 17 16 15 15 13 12 11 9 9 8 7 5 5 6 8 8 7 7 8 8 7 9 7 7 7 9 11 13 14 20
39 38 38 35 30 26 20 18 20 16 16 16 16 16 17 18 17 16 14 12 10 9 8 7 5 6 7 7 8 8 8 10 10 11 12 10 9 9 10 11 12 12 13
41 42 43 41 35 31 27 21 20 19 17 17 17 17 17 16 16 15 13 11 11 10 9 8 7 7 7 8 9 9 10 11 11 12 13 13 12 11 12 12 12 9 14
39 47 48 46 41 35 30 25 23 22 19 19 19 18 17 16 15 15 14 14 12 12 10 8 8 7 7 7 9 10 11 11 11 13 15 14 14 14 13 12 14 10 7
38 48 51 49 46 41 34 28 27 25 23 22 22 20 18 17 17 17 16 15 14 12 12 11 10 9 7 6 7 9 10 11 11 11 13 15 15 15 14 13 14 18 11
44 45 52 53 51 46 40 34 30 29 26 25 24 24 22 20 19 17 17 17 15 15 14 13 11 10 8 7 6 7 9 11 12 12 12 14 14 15 15 16 15 19 20
48 46 54 57 55 52 45 41 35 32 29 27 26 26 25 24 21 19 18 17 18 18 18 16 15 14 12 11 9 8 8 8 9 11 11 13 15 15 16 17 19 19 20
47 52 52 59 59 56 50 46 40 37 34 31 30 29 27 25 23 21 20 20 20 20 21 20 19 18 17 16 14 14 11 9 9 8 9 10 12 13 15 18 21 22 23
50 54 56 58 61 60 55 50 47 42 37 36 34 32 29 27 25 24 24 24 23 24 24 24 23 22 21 21 21 19 18 15 14 11 9 9 10 12 13 16 19 25 26
56 55 61 60 65 62 62 58 53 46 40 39 37 35 32 31 31 30 28 28 28 28 27 27 27 27 26 25 26 25 23 22 20 18 15 14 13 13 14 14 17 22 28
61 58 62 62 65 66 64 61 53 45 41 40 39 38 37 37 35 33 31 31 31 31 31 30 31 30 30 28 28 27 28 27 26 24 21 19 18 19 17 18 20 20 21
62 58 61 64 65 67 65 63 56 50 48 46 42 42 43 41 39 37 36 35 34 34 33 31 31 31 31 30 30 29 30 32 31 27 26 25 23 22 21 22 22 21 20
59 53 61 62 63 60 65 61 61 56 50 45 40 42 42 41 40 40 40 39 37 36 35 33 30 29 30 30 32 31 32 33 34 33 29 29 28 26 23 24 25 24 25
40 47 52 58 54 55 54 61 60 56 48 42 44 44 41 38 38 37 40 42 43 44 38 36 32 29 28 30 32 31 32 34 34 34 33 33 31 27 26 25 26 26 25
33 40 52 53 43 49 53 60 60 56 51 49 49 44 41 39 39 40 39 42 46 50 44 37 40 35 37 32 32 33 34 33 31 35 35 33 33 33 31 26 27 26 26

GFSSE_700_spd_135.txt.gz
Wind_Speed
15 9 13 10 5 3 3 4 4 3 2 2 2 4 4 4 4 5 8 7 6 5 5 4 4 3 2 2 2 3 4 4 4 5 5 4 5 8 6 5 5 6 2
19 10 16 13 8 5 4 2 1 2 2 1 2 2 3 3 3 5 6 7 7 5 4 3 3 2 2 1 2 2 2 1 2 2 4 3 7 3 9 5 8 7 7
14 12 17 16 11 7 5 3 1 1 1 1 3 2 1 2 1 3 6 6 6 5 4 2 1 1 1 1 1 2 2 3 4 5 6 5 4 6 6 4 4 9 7
16 14 15 16 12 9 7 5 4 3 2 3 3 3 2 1 1 1 6 6 5 4 4 3 2 2 1 2 2 2 2 3 4 6 6 5 4 4 4 3 2 3 4
12 15 16 16 13 10 8 8 7 6 4 4 5 4 4 3 3 2 5 5 5 5 5 4 3 2 2 2 2 2 2 2 3 3 5 6 6 6 5 4 3 4 5
13 16 16 17 14 11 10 9 9 8 6 6 6 6 5 5 5 4 4 5 3 3 2 1 1 1 2 2 2 2 3 3 4 3 6 6 8 5 6 5 5 4 6
16 18 19 19 16 12 12 11 10 10 8 8 7 7 8 8 7 6 5 5 4 2 0 1 2 3 2 2 3 3 4 4 6 6 9 6 4 5 7 7 6 5 5
16 18 20 20 18 14 14 13 12 12 11 10 9 9 10 10 9 7 7 6 5 3 2 3 3 3 3 4 3 2 3 3 2 7 6 9 4 6 8 9 8 8 7
20 21 22 22 20 17 17 16 15 14 13 12 11 11 11 12 11 9 9 8 6 5 4 5 3 4 5 4 4 4 4 4 5 7 1 5 5 7 7 9 9 9 9
22 23 23 24 22 20 20 19 17 16 14 14 14 14 14 14 14 13 11 10 8 7 5 5 4 5 5 5 6 5 5 5 7 7 9 5 5 5 8 9 9 11 12
25 27 27 28 25 23 23 21 20 19 17 16 16 17 17 18 17 15 14 12 10 9 7 7 6 6 6 6 7 6 6 6 5 7 10 5 5 6 9 10 9 9 11
29 31 31 32 30 27 26 24 23 21 20 19 19 19 20 19 18 16 15 14 13 12 10 9 8 7 7 7 7 7 7 4 8 9 9 7 8 8 8 10 10 10 13
21 32 36 36 35 32 30 28 26 24 22 20 20 20 20 19 17 17 17 17 14 12 10 9 9 7 8 7 7 8 8 9 10 10 14 11 11 11 10 10 11 12 13
24 20 39 40 41 38 36 31 28 27 24 21 21 21 20 21 21 18 18 16 14 11 11 10 10 9 8 8 9 12 9 10 8 14 14 13 13 14 14 13 12 12 10
27 25 30 43 46 44 41 36 32 30 27 24 23 22 22 22 21 20 19 18 15 14 12 10 10 8 6 7 10 11 11 12 13 11 17 12 14 15 15 15 14 13 10
38 26 24 40 49 49 45 41 37 35 31 28 25 24 23 22 22 23 22 19 17 15 14 12 11 9 7 7 6 8 10 12 12 13 15 14 14 15 15 16 15 14 16
37 42 30 36 46 52 50 46 42 38 36 32 28 27 26 25 24 24 22 20 17 16 15 14 12 10 8 8 6 6 7 10 12 13 13 16 14 13 14 16 17 14 16
36 41 45 32 42 49 53 52 47 43 38 35 32 31 30 29 28 26 24 21 19 18 17 16 15 13 12 11 11 10 8 7 7 9 11 14 15 13 13 14 17 17 17
35 39 44 48 40 49 49 55 52 48 43 39 36 33 33 32 30 27 25 24 23 20 20 18 18 16 16 15 16 15 15 13 11 9 9 10 12 13 12 10 14 17 19
33 38 43 48 50 48 51 53 56 55 49 44 40 37 37 34 32 30 28 26 25 22 22 21 21 20 20 19 20 20 19 19 18 16 14 14 12 12 12 12 11 15 18
37 38 46 49 53 43 59 51 58 61 56 47 43 40 39 36 34 33 32 30 27 25 25 24 24 25 24 25 24 25 24 24 24 24 22 20 18 18 16 15 16 15 17
46 45 47 48 56 55 52 57 58 62 59 49 45 47 42 39 37 38 35 32 30 30 30 29 28 29 29 28 27 28 29 29 27 28 29 27 25 24 23 21 20 20 19
39 44 40 44 54 59 47 53 57 60 62 57 54 52 45 42 41 39 36 36 34 33 34 34 31 32 31 29 29 29 31 31 29 31 28 29 30 29 27 26 25 24 21
36 29 37 38 41 56 54 49 59 61 67 64 59 50 47 46 43 42 40 39 37 37 38 37 35 35 34 33 33 31 31 30 31 32 34 31 27 30 30 29 28 28 27
27 28 28 36 39 51 56 47 56 58 65 66 60 52 51 49 46 44 43 40 41 43 42 41 37 37 34 34 32 32 31 31 31 32 34 38 37 32 29 32 31 31 29
27 27 37 36 37 45 56 46 56 60 61 67 63 56 53 52 45 44 42 42 44 43 44 44 41 42 38 37 35 41 37 35 33 31 30 29 31 33 36 33 31 32 31

GFSSE_700_spd_138.txt.gz
Wind_Speed
7 5 11 11 6 4 6 5 4 3 3 4 5 5 6 7 7 7 10 10 9 8 7 6 5 4 3 1 1 2 4 5 5 4 3 2 1 1 2 1 5 3 5
8 9 10 13 10 7 4 6 4 3 1 3 3 3 4 5 6 6 9 9 8 7 7 6 5 3 3 2 0 1 2 3 3 3 3 1 4 2 3 4 7 4 0
14 11 15 16 13 9 6 6 5 3 2 0 2 2 3 3 4 5 8 8 7 6 5 4 3 2 2 2 1 1 3 4 5 5 7 6 3 4 2 3 2 4 3
19 13 17 17 15 12 9 8 6 6 4 3 1 1 3 3 4 5 7 6 5 5 4 3 2 2 1 0 1 2 3 4 5 5 6 6 3 3 2 2 2 1 3
19 11 17 17 17 13 10 9 8 8 7 6 2 2 3 4 4 4 7 6 5 6 6 4 3 2 1 0 1 1 2 3 3 3 6 4 3 2 4 2 1 1 2
19 11 17 18 18 15 12 10 9 9 9 8 5 3 4 5 6 5 7 5 4 4 4 4 2 1 0 1 0 2 3 4 4 7 11 2 4 1 3 2 1 1 1
18 14 18 19 20 17 14 11 11 11 10 10 9 6 6 7 7 5 8 6 4 3 2 2 1 1 0 1 1 3 3 3 5 3 6 5 1 1 4 3 1 1 2
16 17 20 22 22 19 16 14 13 12 11 12 11 9 8 9 9 8 8 8 6 4 3 2 2 2 2 2 2 2 3 3 6 6 8 5 3 3 3 4 3 3 3
18 18 19 23 23 21 18 16 16 15 14 13 13 11 10 12 12 11 11 10 9 7 5 4 3 4 4 3 2 3 4 5 6 3 3 1 4 4 4 4 6 6 6
17 20 20 24 25 23 20 19 18 18 16 15 15 14 14 15 15 14 13 12 10 9 7 6 5 5 5 4 3 3 4 5 6 7 5 5 4 4 4 5 6 8 9
23 21 24 25 26 25 23 21 21 21 20 18 17 17 17 18 18 17 16 15 13 12 10 8 7 6 6 5 4 4 6 7 8 6 5 2 4 4 4 6 8 8 9
12 26 27 27 29 29 27 25 24 24 24 21 20 20 20 20 19 18 18 17 15 14 12 10 8 7 6 6 6 5 6 6 4 9 10 5 6 7 6 7 9 11 10
22 9 26 31 33 33 32 29 29 28 26 24 22 22 21 21 20 20 20 19 16 14 12 11 9 8 8 8 8 7 7 8 11 11 12 6 8 8 10 10 11 12 13
21 19 12 30 34 36 36 36 32 31 30 28 25 24 23 22 21 20 20 19 17 15 14 12 11 9 9 9 8 8 8 8 6 13 13 9 9 11 12 12 11 12 13
29 29 26 14 33 35 38 38 38 35 32 31 28 27 25 24 23 21 20 22 19 16 15 14 12 10 9 9 8 6 8 8 9 12 16 10 9 12 12 13 12 12 12
26 31 34 29 24 38 39 40 41 41 36 33 31 30 28 27 24 24 22 23 21 19 17 15 13 12 10 9 6 6 7 8 10 13 12 13 11 11 12 13 12 11 11
28 28 29 38 32 35 42 43 42 45 43 38 34 33 31 30 26 26 26 25 23 21 19 16 14 11 10 7 5 5 4 5 6 8 11 13 13 11 11 13 13 12 12
22 30 31 33 39 36 44 45 44 47 48 45 40 36 33 33 32 28 29 27 26 23 22 19 16 14 12 10 9 8 7 6 6 7 7 10 11 11 9 9 11 11 12
22 20 33 34 41 40 50 47 47 44 50 49 45 42 38 36 36 32 30 30 29 27 25 22 19 16 14 14 14 14 12 13 10 10 10 10 11 10 10 9 9 10 11
37 33 33 37 41 47 40 52 48 47 49 53 51 46 42 37 39 38 32 32 31 30 26 25 22 20 17 16 18 18 17 18 17 17 15 15 15 15 14 12 11 10 11
37 41 47 41 34 45 49 48 49 50 53 53 58 51 45 42 39 40 36 34 34 31 26 25 24 23 19 21 21 21 21 21 21 21 22 21 20 21 21 21 17 16 14
36 38 43 45 45 40 47 48 49 49 52 54 56 55 50 48 44 42 40 40 36 33 30 28 27 25 24 24 24 24 27 26 24 24 25 27 26 26 26 27 25 22 21
36 37 42 45 45 45 45 51 47 51 48 50 54 60 56 52 47 45 43 44 37 34 33 31 29 28 26 27 28 28 31 31 29 27 26 25 23 25 26 27 28 28 25
29 31 30 41 44 47 40 47 58 54 49 53 53 61 63 54 51 48 48 46 40 37 37 35 31 30 30 30 32 32 34 31 28 31 30 30 31 28 26 26 25 29 28
27 26 29 35 35 42 46 44 55 56 60 48 53 59 63 57 56 51 50 47 44 41 40 39 34 33 32 34 35 35 37 33 31 32 40 34 33 30 26 25 24 25 29
31 30 30 30 38 41 46 44 46 67 62 50 51 59 59 61 58 53 50 47 46 45 43 39 36 35 35 35 33 35 38 43 44 43 45 47 33 28 27 28 26 19 25

GFSSE_700_spd_141.txt.gz
Wind_Speed
7 4 7 9 8 6 5 7 6 4 2 3 5 6 6 6 7 10 12 12 11 10 8 7 5 3 2 1 2 2 3 4 4 5 5 5 3 5 3 2 4 3 2
8 8 5 10 12 9 7 7 7 6 4 1 3 4 5 5 6 10 11 11 11 11 9 8 6 4 3 2 2 2 3 4 2 1 1 1 2 1 3 2 5 3 1
11 7 7 13 15 12 10 8 8 7 5 5 0 4 4 5 6 10 10 10 9 9 9 8 6 5 5 3 2 1 1 1 2 3 3 3 2 1 1 3 4 4 3
12 11 8 15 18 15 12 10 9 8 6 6 5 2 3 5 6 10 10 8 7 7 6 6 5 4 3 3 1 1 0 1 2 3 3 3 1 2 3 2 2 2 3
17 14 12 16 20 17 15 11 9 9 8 6 6 6 4 5 6 9 10 8 8 7 6 6 5 5 3 3 1 0 1 1 1 2 2 2 3 1 1 1 0 2 2
17 16 14 18 22 20 18 14 10 10 9 8 7 7 5 7 7 8 9 9 8 8 6 6 5 4 3 3 2 2 2 4 3 4 7 1 1 1 1 1 1 1 1
15 14 14 20 23 22 20 16 13 12 11 9 9 7 7 7 9 9 10 9 8 7 6 5 4 4 4 4 2 3 4 5 2 1 7 3 2 0 2 0 2 2 1
16 14 11 20 23 23 21 18 16 14 14 12 11 10 9 9 11 11 12 11 9 8 6 5 4 4 5 4 3 2 3 5 4 4 2 4 0 1 3 2 3 3 3
16 14 12 17 23 25 23 21 19 17 16 15 13 12 12 12 12 13 13 13 11 9 8 6 5 5 5 4 3 3 3 5 5 3 3 2 2 1 1 2 3 3 4
19 17 14 13 21 25 26 24 22 20 19 18 16 15 14 15 15 15 15 15 13 11 10 7 6 6 5 4 4 4 4 6 5 5 3 4 1 3 2 2 4 5 7
22 20 22 13 18 24 28 27 25 23 22 22 19 18 17 17 17 17 17 17 16 13 12 9 8 7 6 6 6 6 6 7 5 6 2 1 0 1 1 3 6 7 8
22 26 26 24 18 21 27 30 29 27 26 25 22 20 19 19 18 18 18 19 17 16 14 11 10 8 7 7 8 8 7 7 6 4 5 2 3 3 2 4 6 8 8
21 16 20 28 28 24 27 32 34 31 29 28 26 23 22 21 20 21 20 21 19 17 15 12 11 9 9 9 9 10 9 9 8 6 3 3 6 6 6 6 8 9 9
24 26 20 21 28 30 31 33 36 36 34 31 29 27 25 23 23 22 22 21 20 18 16 14 13 12 10 10 9 11 12 10 7 6 5 7 6 8 8 7 8 9 9
24 26 30 26 25 32 32 38 39 37 38 35 33 31 29 27 25 23 22 22 21 20 18 17 15 14 12 10 8 12 10 9 7 5 8 13 6 7 8 9 8 9 9
27 26 29 35 31 28 34 35 39 38 39 39 38 35 31 31 28 27 25 24 24 22 20 19 17 16 14 10 7 6 5 6 7 8 10 11 7 8 8 9 9 9 9
32 32 30 34 43 36 37 38 36 40 40 41 41 38 34 33 31 29 29 27 25 24 23 22 21 19 17 14 10 6 4 3 4 4 5 6 4 6 6 8 9 8 10
31 32 33 33 42 50 44 45 42 40 39 42 43 44 38 35 34 33 33 30 28 27 27 25 23 22 19 17 13 10 8 6 5 5 5 6 6 5 5 5 6 7 8
30 36 39 42 38 45 54 45 51 44 43 43 47 44 46 40 35 36 37 32 31 29 29 28 25 23 20 17 14 12 11 10 10 10 9 8 7 8 7 5 5 5 5
42 46 44 45 48 42 44 55 50 56 48 45 45 50 48 48 42 38 40 37 34 32 32 32 27 26 23 20 17 17 14 14 15 14 13 12 13 11 13 12 11 10 9
54 52 47 45 48 48 37 40 58 55 59 51 46 46 51 50 47 41 40 42 38 37 35 32 30 29 25 22 22 20 19 20 19 18 18 18 17 18 18 18 18 17 16
49 43 46 49 50 51 49 40 41 56 59 58 53 47 50 52 53 47 44 44 44 40 38 35 34 33 28 27 26 23 24 23 23 20 22 23 22 21 20 20 22 22 21
41 41 42 44 47 49 51 50 47 49 50 64 61 53 49 54 54 54 48 42 48 43 41 39 37 35 32 29 27 26 27 27 23 25 26 26 25 22 19 20 19 19 22
38 34 34 39 40 45 51 52 53 52 55 57 63 61 54 53 58 54 53 45 46 48 46 42 40 36 34 31 29 29 29 28 28 32 30 27 35 33 26 25 24 22 22
35 34 29 29 32 36 36 42 51 53 54 60 63 67 58 57 58 64 58 51 51 52 50 46 43 40 37 32 31 28 28 28 30 29 32 33 36 38 36 36 29 21 20
36 32 30 31 32 37 36 40 44 44 47 55 60 68 67 59 57 61 68 62 58 56 54 50 45 42 37 33 31 29 29 31 32 32 34 34 39 39 42 33 32 23 19

GFSSE_700_spd_144.txt.gz
Wind_Speed
7 4 7 9 6 6 8 9 11 9 7 6 4 1 1 3 5 7 9 10 9 9 8 7 6 5 4 3 2 2 2 3 5 5 2 2 1 5 2 2 1 3 2
4 7 6 12 10 9 9 9 10 11 10 8 8 5 1 2 5 7 10 10 9 8 8 7 6 6 5 3 3 3 3 3 3 2 2 1 2 2 1 2 3 3 2
7 10 11 10 13 12 12 10 9 11 11 9 8 9 5 1 4 7 9 10 9 9 8 7 7 6 5 3 2 2 2 1 1 1 2 2 5 3 3 2 3 4 5
8 14 14 13 15 16 15 13 11 10 10 8 8 7 7 3 4 8 8 9 10 10 9 8 7 6 5 4 4 2 0 1 1 3 0 4 2 3 3 2 3 1 4
12 15 15 18 16 20 18 17 13 11 11 10 9 9 6 6 5 9 9 9 10 10 9 7 6 5 5 5 4 2 2 2 1 2 1 3 2 4 3 1 2 1 2
18 17 12 19 18 22 21 19 16 13 12 11 10 10 10 8 7 10 11 9 9 10 9 7 7 5 6 6 5 3 2 2 4 3 7 2 1 2 2 0 1 2 2
15 15 11 16 18 22 23 21 19 17 15 12 11 11 10 10 9 10 12 12 11 10 9 8 7 6 7 7 6 4 2 2 2 2 3 1 3 2 1 2 3 2 1
15 17 12 14 16 22 25 23 22 20 17 15 13 13 12 12 11 12 13 13 13 11 10 8 8 7 8 8 7 7 2 2 2 2 2 4 3 2 2 1 3 3 3
18 17 17 11 15 18 25 25 24 23 21 18 17 15 15 14 14 14 14 15 15 13 11 9 8 8 9 9 7 9 3 2 2 3 3 5 5 2 2 3 3 3 4
21 20 19 13 13 16 24 27 27 26 24 22 20 19 17 17 16 17 17 17 16 14 12 10 9 9 9 9 9 10 6 2 1 3 7 5 3 4 4 4 3 5 6
22 24 22 15 13 12 14 26 29 28 26 25 25 23 21 19 18 19 19 18 18 16 14 12 10 10 10 11 11 11 8 5 4 3 3 5 5 5 4 3 4 5 6
21 24 30 31 27 22 21 22 26 30 30 29 28 26 24 21 20 20 21 21 21 19 17 14 13 12 12 12 13 12 10 7 7 4 4 5 5 5 3 4 4 4 4
29 28 27 33 34 26 25 23 20 25 32 33 31 30 27 25 24 24 24 24 23 22 19 16 14 13 13 14 14 13 12 9 8 7 4 6 5 6 6 6 6 5 5
34 29 31 32 35 37 32 28 24 24 26 35 36 34 32 29 27 26 26 25 25 24 21 18 16 16 16 15 14 14 14 12 10 9 10 6 4 7 8 8 7 7 6
23 25 25 32 30 35 40 38 32 31 30 29 38 38 37 34 31 28 28 28 27 26 24 21 19 18 18 16 15 15 15 16 13 11 9 9 8 8 9 10 8 8 8
28 27 27 25 34 34 37 41 39 39 35 36 33 38 40 40 36 32 31 30 30 28 26 24 22 21 20 19 17 15 15 14 10 12 11 11 11 10 9 10 10 9 8
33 33 32 31 32 33 41 43 44 44 42 38 43 42 45 42 40 38 34 33 32 30 28 28 26 25 25 22 20 17 16 12 7 6 7 6 5 7 5 6 7 9 9
34 35 36 32 33 34 33 41 48 50 48 46 40 49 49 40 40 42 40 36 34 34 32 32 30 29 27 24 22 19 17 13 10 8 7 5 3 1 1 1 4 4 4
37 40 40 40 41 40 46 42 42 51 54 53 48 49 49 50 44 47 44 39 36 37 36 35 34 32 30 27 24 22 20 17 14 12 10 7 7 4 3 1 3 4 4
43 46 48 49 49 49 46 49 46 45 51 58 58 53 44 49 49 45 45 43 40 40 42 40 39 36 32 29 27 26 22 19 18 15 14 12 12 11 10 10 10 8 9
42 49 52 56 58 55 51 50 50 48 49 54 60 58 55 50 51 52 49 45 44 45 45 45 42 39 36 35 32 31 28 24 22 18 16 15 14 14 16 15 16 15 14
45 47 49 51 55 55 53 52 56 53 51 51 52 62 61 56 52 55 51 56 50 50 50 49 46 44 41 40 38 33 30 26 24 20 19 18 18 20 19 18 18 18 19
44 45 44 44 43 48 50 50 53 58 56 55 54 55 65 65 59 56 55 56 67 52 55 52 49 48 44 42 40 38 34 31 23 22 21 21 22 23 22 18 17 18 20
40 39 38 40 43 46 48 49 49 53 59 60 58 56 55 67 67 62 60 59 68 56 57 58 51 51 48 47 44 40 34 30 26 24 23 21 22 24 25 25 23 23 22
40 40 37 37 38 41 44 46 45 45 54 61 60 61 58 56 62 66 65 62 70 69 59 59 56 54 53 49 46 42 37 32 26 25 24 23 22 18 23 27 29 30 31
38 37 38 36 38 38 39 39 45 45 44 50 58 61 63 60 61 62 69 64 57 63 69 57 62 56 56 52 45 43 39 32 27 25 24 23 23 22 23 30 34 36 37